<?xml version="1.0" encoding="UTF-8" standalone="no" ?>
<gpx xmlns="http://www.topografix.com/GPX/1/1" xmlns:xsi="http://www.w3.org/2001/XMLSchema-instance" xsi:schemaLocation="http://www.topografix.com/GPX/1/1 http://www.topografix.com/GPX/1/1/gpx.xsd" version="1.1" creator="VisuGPX - https://www.visugpx.com">
  <metadata>
    <name>Coursegoules : Roubine / Garavagne / Pré de Marthe</name>
    <desc><![CDATA[Très belle balade avec de belles vues sur le Cheiron, les baous, la côte.... Des sentiers parfois très bons, souvent très caillouteux....]]></desc>
  </metadata>
  <trk>
    <name><![CDATA[Roubine Garavagne Pré de Marthe]]></name>
    <trkseg>
      <trkpt lat="43.7884" lon="7.03425">
        <ele>975.5</ele>
        <time>2017-10-23T07:09:23Z</time>
      </trkpt>
      <trkpt lat="43.7884" lon="7.03425">
        <ele>975.5</ele>
        <time>2017-10-23T07:09:25Z</time>
      </trkpt>
      <trkpt lat="43.7884" lon="7.03425">
        <ele>1010</ele>
        <time>2017-10-23T07:09:28Z</time>
      </trkpt>
      <trkpt lat="43.7884" lon="7.03427">
        <ele>999.4</ele>
        <time>2017-10-23T07:09:29Z</time>
      </trkpt>
      <trkpt lat="43.78845" lon="7.03427">
        <ele>997.8</ele>
        <time>2017-10-23T07:09:35Z</time>
      </trkpt>
      <trkpt lat="43.78845" lon="7.03427">
        <ele>975.4</ele>
        <time>2017-10-23T07:09:35Z</time>
      </trkpt>
      <trkpt lat="43.78845" lon="7.03427">
        <ele>975.4</ele>
        <time>2017-10-23T07:09:52Z</time>
      </trkpt>
      <trkpt lat="43.7883" lon="7.03427">
        <ele>992.4</ele>
        <time>2017-10-23T07:09:52Z</time>
      </trkpt>
      <trkpt lat="43.78825" lon="7.03423">
        <ele>991.1</ele>
        <time>2017-10-23T07:09:58Z</time>
      </trkpt>
      <trkpt lat="43.7882" lon="7.0342">
        <ele>990.4</ele>
        <time>2017-10-23T07:10:03Z</time>
      </trkpt>
      <trkpt lat="43.78815" lon="7.03417">
        <ele>989.9</ele>
        <time>2017-10-23T07:10:08Z</time>
      </trkpt>
      <trkpt lat="43.78815" lon="7.03417">
        <ele>976</ele>
        <time>2017-10-23T07:10:19Z</time>
      </trkpt>
      <trkpt lat="43.78815" lon="7.03417">
        <ele>976</ele>
        <time>2017-10-23T07:10:28Z</time>
      </trkpt>
      <trkpt lat="43.78794" lon="7.03401">
        <ele>984.8</ele>
        <time>2017-10-23T07:10:29Z</time>
      </trkpt>
      <trkpt lat="43.78794" lon="7.03401">
        <ele>976.8</ele>
        <time>2017-10-23T07:10:38Z</time>
      </trkpt>
      <trkpt lat="43.78781" lon="7.03394">
        <ele>981.7</ele>
        <time>2017-10-23T07:10:41Z</time>
      </trkpt>
      <trkpt lat="43.78772" lon="7.03391">
        <ele>980.6</ele>
        <time>2017-10-23T07:10:48Z</time>
      </trkpt>
      <trkpt lat="43.78772" lon="7.03391">
        <ele>978.1</ele>
        <time>2017-10-23T07:10:57Z</time>
      </trkpt>
      <trkpt lat="43.78761" lon="7.0338">
        <ele>980.6</ele>
        <time>2017-10-23T07:11:00Z</time>
      </trkpt>
      <trkpt lat="43.78756" lon="7.03377">
        <ele>980.6</ele>
        <time>2017-10-23T07:11:03Z</time>
      </trkpt>
      <trkpt lat="43.7875" lon="7.03374">
        <ele>980.6</ele>
        <time>2017-10-23T07:11:07Z</time>
      </trkpt>
      <trkpt lat="43.7875" lon="7.03374">
        <ele>979</ele>
        <time>2017-10-23T07:11:18Z</time>
      </trkpt>
      <trkpt lat="43.78736" lon="7.03367">
        <ele>980.9</ele>
        <time>2017-10-23T07:11:19Z</time>
      </trkpt>
      <trkpt lat="43.78728" lon="7.0336">
        <ele>982.1</ele>
        <time>2017-10-23T07:11:25Z</time>
      </trkpt>
      <trkpt lat="43.78728" lon="7.0336">
        <ele>980.6</ele>
        <time>2017-10-23T07:11:35Z</time>
      </trkpt>
      <trkpt lat="43.78715" lon="7.03353">
        <ele>982.9</ele>
        <time>2017-10-23T07:11:36Z</time>
      </trkpt>
      <trkpt lat="43.78715" lon="7.03353">
        <ele>981.3</ele>
        <time>2017-10-23T07:11:45Z</time>
      </trkpt>
      <trkpt lat="43.78697" lon="7.03346">
        <ele>985</ele>
        <time>2017-10-23T07:11:51Z</time>
      </trkpt>
      <trkpt lat="43.78688" lon="7.03344">
        <ele>986.2</ele>
        <time>2017-10-23T07:11:58Z</time>
      </trkpt>
      <trkpt lat="43.78688" lon="7.03344">
        <ele>983.3</ele>
        <time>2017-10-23T07:12:08Z</time>
      </trkpt>
      <trkpt lat="43.78672" lon="7.03341">
        <ele>986.2</ele>
        <time>2017-10-23T07:12:11Z</time>
      </trkpt>
      <trkpt lat="43.78669" lon="7.03337">
        <ele>986.2</ele>
        <time>2017-10-23T07:12:16Z</time>
      </trkpt>
      <trkpt lat="43.78671" lon="7.03318">
        <ele>986.2</ele>
        <time>2017-10-23T07:12:26Z</time>
      </trkpt>
      <trkpt lat="43.78671" lon="7.03318">
        <ele>985.5</ele>
        <time>2017-10-23T07:12:35Z</time>
      </trkpt>
      <trkpt lat="43.78676" lon="7.03286">
        <ele>986.6</ele>
        <time>2017-10-23T07:12:43Z</time>
      </trkpt>
      <trkpt lat="43.78676" lon="7.03286">
        <ele>985.2</ele>
        <time>2017-10-23T07:12:52Z</time>
      </trkpt>
      <trkpt lat="43.78677" lon="7.03254">
        <ele>989.2</ele>
        <time>2017-10-23T07:13:01Z</time>
      </trkpt>
      <trkpt lat="43.78676" lon="7.03247">
        <ele>989.6</ele>
        <time>2017-10-23T07:13:05Z</time>
      </trkpt>
      <trkpt lat="43.78677" lon="7.0324">
        <ele>990.1</ele>
        <time>2017-10-23T07:13:11Z</time>
      </trkpt>
      <trkpt lat="43.78676" lon="7.03234">
        <ele>990.7</ele>
        <time>2017-10-23T07:13:15Z</time>
      </trkpt>
      <trkpt lat="43.78676" lon="7.03234">
        <ele>986.2</ele>
        <time>2017-10-23T07:13:25Z</time>
      </trkpt>
      <trkpt lat="43.78676" lon="7.03234">
        <ele>986.2</ele>
        <time>2017-10-23T07:13:34Z</time>
      </trkpt>
      <trkpt lat="43.78679" lon="7.032">
        <ele>992.6</ele>
        <time>2017-10-23T07:13:37Z</time>
      </trkpt>
      <trkpt lat="43.78672" lon="7.03183">
        <ele>992.6</ele>
        <time>2017-10-23T07:13:47Z</time>
      </trkpt>
      <trkpt lat="43.78666" lon="7.03165">
        <ele>992.6</ele>
        <time>2017-10-23T07:13:55Z</time>
      </trkpt>
      <trkpt lat="43.78666" lon="7.03165">
        <ele>986.1</ele>
        <time>2017-10-23T07:14:04Z</time>
      </trkpt>
      <trkpt lat="43.78658" lon="7.03145">
        <ele>992.8</ele>
        <time>2017-10-23T07:14:08Z</time>
      </trkpt>
      <trkpt lat="43.78654" lon="7.03141">
        <ele>992.8</ele>
        <time>2017-10-23T07:14:12Z</time>
      </trkpt>
      <trkpt lat="43.78651" lon="7.03136">
        <ele>992.8</ele>
        <time>2017-10-23T07:14:16Z</time>
      </trkpt>
      <trkpt lat="43.78651" lon="7.03136">
        <ele>987.2</ele>
        <time>2017-10-23T07:14:26Z</time>
      </trkpt>
      <trkpt lat="43.7864" lon="7.03115">
        <ele>992</ele>
        <time>2017-10-23T07:14:30Z</time>
      </trkpt>
      <trkpt lat="43.78632" lon="7.03106">
        <ele>991.8</ele>
        <time>2017-10-23T07:14:38Z</time>
      </trkpt>
      <trkpt lat="43.78632" lon="7.03106">
        <ele>990.1</ele>
        <time>2017-10-23T07:14:47Z</time>
      </trkpt>
      <trkpt lat="43.7862" lon="7.03087">
        <ele>992.3</ele>
        <time>2017-10-23T07:14:55Z</time>
      </trkpt>
      <trkpt lat="43.7862" lon="7.03087">
        <ele>991.6</ele>
        <time>2017-10-23T07:15:04Z</time>
      </trkpt>
      <trkpt lat="43.78607" lon="7.0307">
        <ele>993.3</ele>
        <time>2017-10-23T07:15:11Z</time>
      </trkpt>
      <trkpt lat="43.78607" lon="7.0307">
        <ele>993.9</ele>
        <time>2017-10-23T07:15:20Z</time>
      </trkpt>
      <trkpt lat="43.786" lon="7.03061">
        <ele>996.5</ele>
        <time>2017-10-23T07:15:21Z</time>
      </trkpt>
      <trkpt lat="43.78598" lon="7.03056">
        <ele>996.5</ele>
        <time>2017-10-23T07:15:25Z</time>
      </trkpt>
      <trkpt lat="43.78591" lon="7.03048">
        <ele>996.5</ele>
        <time>2017-10-23T07:15:33Z</time>
      </trkpt>
      <trkpt lat="43.78587" lon="7.03046">
        <ele>996.7</ele>
        <time>2017-10-23T07:15:39Z</time>
      </trkpt>
      <trkpt lat="43.78587" lon="7.03046">
        <ele>997.9</ele>
        <time>2017-10-23T07:15:52Z</time>
      </trkpt>
      <trkpt lat="43.78577" lon="7.03033">
        <ele>996.8</ele>
        <time>2017-10-23T07:15:55Z</time>
      </trkpt>
      <trkpt lat="43.78577" lon="7.03033">
        <ele>1000.1</ele>
        <time>2017-10-23T07:16:04Z</time>
      </trkpt>
      <trkpt lat="43.7857" lon="7.03021">
        <ele>996.8</ele>
        <time>2017-10-23T07:16:08Z</time>
      </trkpt>
      <trkpt lat="43.78565" lon="7.03011">
        <ele>996.8</ele>
        <time>2017-10-23T07:16:16Z</time>
      </trkpt>
      <trkpt lat="43.78565" lon="7.03011">
        <ele>1002.8</ele>
        <time>2017-10-23T07:16:25Z</time>
      </trkpt>
      <trkpt lat="43.78554" lon="7.02997">
        <ele>1003.4</ele>
        <time>2017-10-23T07:16:32Z</time>
      </trkpt>
      <trkpt lat="43.78552" lon="7.02991">
        <ele>1004</ele>
        <time>2017-10-23T07:16:36Z</time>
      </trkpt>
      <trkpt lat="43.7855" lon="7.02985">
        <ele>1004</ele>
        <time>2017-10-23T07:16:40Z</time>
      </trkpt>
      <trkpt lat="43.78546" lon="7.02974">
        <ele>1004.4</ele>
        <time>2017-10-23T07:16:48Z</time>
      </trkpt>
      <trkpt lat="43.78546" lon="7.02974">
        <ele>1007</ele>
        <time>2017-10-23T07:16:57Z</time>
      </trkpt>
      <trkpt lat="43.78543" lon="7.02959">
        <ele>1005.4</ele>
        <time>2017-10-23T07:16:58Z</time>
      </trkpt>
      <trkpt lat="43.78543" lon="7.02959">
        <ele>1007.8</ele>
        <time>2017-10-23T07:17:08Z</time>
      </trkpt>
      <trkpt lat="43.78543" lon="7.02959">
        <ele>1007.8</ele>
        <time>2017-10-23T07:17:17Z</time>
      </trkpt>
      <trkpt lat="43.78543" lon="7.02959">
        <ele>1007.8</ele>
        <time>2017-10-23T07:17:25Z</time>
      </trkpt>
      <trkpt lat="43.78529" lon="7.02924">
        <ele>1009</ele>
        <time>2017-10-23T07:17:29Z</time>
      </trkpt>
      <trkpt lat="43.78526" lon="7.02918">
        <ele>1009.2</ele>
        <time>2017-10-23T07:17:35Z</time>
      </trkpt>
      <trkpt lat="43.78523" lon="7.02913">
        <ele>1009.5</ele>
        <time>2017-10-23T07:17:40Z</time>
      </trkpt>
      <trkpt lat="43.78519" lon="7.02909">
        <ele>1009.6</ele>
        <time>2017-10-23T07:17:45Z</time>
      </trkpt>
      <trkpt lat="43.78516" lon="7.02904">
        <ele>1010.3</ele>
        <time>2017-10-23T07:17:50Z</time>
      </trkpt>
      <trkpt lat="43.78516" lon="7.02904">
        <ele>1016.4</ele>
        <time>2017-10-23T07:18:01Z</time>
      </trkpt>
      <trkpt lat="43.78509" lon="7.02886">
        <ele>1010.6</ele>
        <time>2017-10-23T07:18:03Z</time>
      </trkpt>
      <trkpt lat="43.78509" lon="7.02886">
        <ele>1018.5</ele>
        <time>2017-10-23T07:18:12Z</time>
      </trkpt>
      <trkpt lat="43.78506" lon="7.02874">
        <ele>1015.4</ele>
        <time>2017-10-23T07:18:17Z</time>
      </trkpt>
      <trkpt lat="43.78505" lon="7.02867">
        <ele>1016.2</ele>
        <time>2017-10-23T07:18:23Z</time>
      </trkpt>
      <trkpt lat="43.78502" lon="7.02862">
        <ele>1017.6</ele>
        <time>2017-10-23T07:18:27Z</time>
      </trkpt>
      <trkpt lat="43.78498" lon="7.02857">
        <ele>1018.9</ele>
        <time>2017-10-23T07:18:33Z</time>
      </trkpt>
      <trkpt lat="43.78496" lon="7.02851">
        <ele>1020.4</ele>
        <time>2017-10-23T07:18:39Z</time>
      </trkpt>
      <trkpt lat="43.78496" lon="7.02851">
        <ele>1022.4</ele>
        <time>2017-10-23T07:18:50Z</time>
      </trkpt>
      <trkpt lat="43.78488" lon="7.0284">
        <ele>1022.3</ele>
        <time>2017-10-23T07:18:53Z</time>
      </trkpt>
      <trkpt lat="43.78488" lon="7.0284">
        <ele>1025.4</ele>
        <time>2017-10-23T07:18:53Z</time>
      </trkpt>
      <trkpt lat="43.78488" lon="7.0284">
        <ele>1025.4</ele>
        <time>2017-10-23T07:19:11Z</time>
      </trkpt>
      <trkpt lat="43.78482" lon="7.02816">
        <ele>1023.2</ele>
        <time>2017-10-23T07:19:11Z</time>
      </trkpt>
      <trkpt lat="43.7848" lon="7.02809">
        <ele>1023.4</ele>
        <time>2017-10-23T07:19:15Z</time>
      </trkpt>
      <trkpt lat="43.7848" lon="7.02808">
        <ele>1023.4</ele>
        <time>2017-10-23T07:19:16Z</time>
      </trkpt>
      <trkpt lat="43.7848" lon="7.02808">
        <ele>1028.4</ele>
        <time>2017-10-23T07:19:18Z</time>
      </trkpt>
      <trkpt lat="43.7848" lon="7.02808">
        <ele>1028.4</ele>
        <time>2017-10-23T07:19:42Z</time>
      </trkpt>
      <trkpt lat="43.78475" lon="7.02783">
        <ele>1025.2</ele>
        <time>2017-10-23T07:19:42Z</time>
      </trkpt>
      <trkpt lat="43.78475" lon="7.02783">
        <ele>1031.5</ele>
        <time>2017-10-23T07:19:51Z</time>
      </trkpt>
      <trkpt lat="43.78471" lon="7.02772">
        <ele>1027.6</ele>
        <time>2017-10-23T07:19:52Z</time>
      </trkpt>
      <trkpt lat="43.78471" lon="7.02772">
        <ele>1033.5</ele>
        <time>2017-10-23T07:20:01Z</time>
      </trkpt>
      <trkpt lat="43.78471" lon="7.02772">
        <ele>1033.5</ele>
        <time>2017-10-23T07:20:11Z</time>
      </trkpt>
      <trkpt lat="43.78471" lon="7.02772">
        <ele>1033.5</ele>
        <time>2017-10-23T07:20:21Z</time>
      </trkpt>
      <trkpt lat="43.78467" lon="7.02724">
        <ele>1033.8</ele>
        <time>2017-10-23T07:20:25Z</time>
      </trkpt>
      <trkpt lat="43.78467" lon="7.02724">
        <ele>1036.2</ele>
        <time>2017-10-23T07:20:35Z</time>
      </trkpt>
      <trkpt lat="43.78465" lon="7.02711">
        <ele>1035.1</ele>
        <time>2017-10-23T07:20:36Z</time>
      </trkpt>
      <trkpt lat="43.78463" lon="7.02698">
        <ele>1037.5</ele>
        <time>2017-10-23T07:20:44Z</time>
      </trkpt>
      <trkpt lat="43.78463" lon="7.02698">
        <ele>1038.7</ele>
        <time>2017-10-23T07:20:53Z</time>
      </trkpt>
      <trkpt lat="43.78463" lon="7.02686">
        <ele>1040.1</ele>
        <time>2017-10-23T07:20:54Z</time>
      </trkpt>
      <trkpt lat="43.78463" lon="7.02686">
        <ele>1038.9</ele>
        <time>2017-10-23T07:21:06Z</time>
      </trkpt>
      <trkpt lat="43.78452" lon="7.02654">
        <ele>1041.7</ele>
        <time>2017-10-23T07:21:15Z</time>
      </trkpt>
      <trkpt lat="43.78449" lon="7.02649">
        <ele>1041.8</ele>
        <time>2017-10-23T07:21:18Z</time>
      </trkpt>
      <trkpt lat="43.78449" lon="7.02649">
        <ele>1043.9</ele>
        <time>2017-10-23T07:21:29Z</time>
      </trkpt>
      <trkpt lat="43.78444" lon="7.02635">
        <ele>1043.3</ele>
        <time>2017-10-23T07:21:32Z</time>
      </trkpt>
      <trkpt lat="43.78444" lon="7.02635">
        <ele>1046</ele>
        <time>2017-10-23T07:21:42Z</time>
      </trkpt>
      <trkpt lat="43.78438" lon="7.02616">
        <ele>1044.4</ele>
        <time>2017-10-23T07:21:51Z</time>
      </trkpt>
      <trkpt lat="43.78438" lon="7.02616">
        <ele>1047.6</ele>
        <time>2017-10-23T07:22:00Z</time>
      </trkpt>
      <trkpt lat="43.78437" lon="7.026">
        <ele>1046.6</ele>
        <time>2017-10-23T07:22:01Z</time>
      </trkpt>
      <trkpt lat="43.78437" lon="7.026">
        <ele>1047.4</ele>
        <time>2017-10-23T07:22:10Z</time>
      </trkpt>
      <trkpt lat="43.78437" lon="7.026">
        <ele>1047.4</ele>
        <time>2017-10-23T07:22:19Z</time>
      </trkpt>
      <trkpt lat="43.78437" lon="7.026">
        <ele>1047.4</ele>
        <time>2017-10-23T07:22:28Z</time>
      </trkpt>
      <trkpt lat="43.78437" lon="7.026">
        <ele>1047.4</ele>
        <time>2017-10-23T07:22:40Z</time>
      </trkpt>
      <trkpt lat="43.78422" lon="7.02546">
        <ele>1047.9</ele>
        <time>2017-10-23T07:22:42Z</time>
      </trkpt>
      <trkpt lat="43.78422" lon="7.02546">
        <ele>1052.7</ele>
        <time>2017-10-23T07:22:52Z</time>
      </trkpt>
      <trkpt lat="43.78419" lon="7.02526">
        <ele>1049.2</ele>
        <time>2017-10-23T07:22:57Z</time>
      </trkpt>
      <trkpt lat="43.78417" lon="7.02517">
        <ele>1049.4</ele>
        <time>2017-10-23T07:23:01Z</time>
      </trkpt>
      <trkpt lat="43.78414" lon="7.02512">
        <ele>1049.6</ele>
        <time>2017-10-23T07:23:05Z</time>
      </trkpt>
      <trkpt lat="43.7841" lon="7.025">
        <ele>1050.3</ele>
        <time>2017-10-23T07:23:12Z</time>
      </trkpt>
      <trkpt lat="43.78405" lon="7.02489">
        <ele>1050.7</ele>
        <time>2017-10-23T07:23:18Z</time>
      </trkpt>
      <trkpt lat="43.78402" lon="7.02483">
        <ele>1051.5</ele>
        <time>2017-10-23T07:23:23Z</time>
      </trkpt>
      <trkpt lat="43.78398" lon="7.02477">
        <ele>1051.6</ele>
        <time>2017-10-23T07:23:28Z</time>
      </trkpt>
      <trkpt lat="43.78396" lon="7.02471">
        <ele>1051.7</ele>
        <time>2017-10-23T07:23:32Z</time>
      </trkpt>
      <trkpt lat="43.78395" lon="7.02458">
        <ele>1051.9</ele>
        <time>2017-10-23T07:23:41Z</time>
      </trkpt>
      <trkpt lat="43.78397" lon="7.0245">
        <ele>1052.2</ele>
        <time>2017-10-23T07:23:45Z</time>
      </trkpt>
      <trkpt lat="43.78397" lon="7.0245">
        <ele>1056.5</ele>
        <time>2017-10-23T07:23:56Z</time>
      </trkpt>
      <trkpt lat="43.78398" lon="7.02423">
        <ele>1052.9</ele>
        <time>2017-10-23T07:24:02Z</time>
      </trkpt>
      <trkpt lat="43.78398" lon="7.02416">
        <ele>1053.2</ele>
        <time>2017-10-23T07:24:06Z</time>
      </trkpt>
      <trkpt lat="43.78396" lon="7.024">
        <ele>1054.4</ele>
        <time>2017-10-23T07:24:13Z</time>
      </trkpt>
      <trkpt lat="43.78396" lon="7.024">
        <ele>1055.5</ele>
        <time>2017-10-23T07:24:22Z</time>
      </trkpt>
      <trkpt lat="43.78389" lon="7.02376">
        <ele>1056</ele>
        <time>2017-10-23T07:24:26Z</time>
      </trkpt>
      <trkpt lat="43.78388" lon="7.0237">
        <ele>1056</ele>
        <time>2017-10-23T07:24:31Z</time>
      </trkpt>
      <trkpt lat="43.78387" lon="7.02362">
        <ele>1056</ele>
        <time>2017-10-23T07:24:36Z</time>
      </trkpt>
      <trkpt lat="43.78386" lon="7.02348">
        <ele>1056</ele>
        <time>2017-10-23T07:24:42Z</time>
      </trkpt>
      <trkpt lat="43.78385" lon="7.02335">
        <ele>1055</ele>
        <time>2017-10-23T07:24:49Z</time>
      </trkpt>
      <trkpt lat="43.78384" lon="7.02322">
        <ele>1054.7</ele>
        <time>2017-10-23T07:24:57Z</time>
      </trkpt>
      <trkpt lat="43.78384" lon="7.02322">
        <ele>1057</ele>
        <time>2017-10-23T07:25:06Z</time>
      </trkpt>
      <trkpt lat="43.78384" lon="7.02322">
        <ele>1057</ele>
        <time>2017-10-23T07:25:15Z</time>
      </trkpt>
      <trkpt lat="43.78371" lon="7.02288">
        <ele>1054.9</ele>
        <time>2017-10-23T07:25:20Z</time>
      </trkpt>
      <trkpt lat="43.78371" lon="7.02288">
        <ele>1059.2</ele>
        <time>2017-10-23T07:25:29Z</time>
      </trkpt>
      <trkpt lat="43.7837" lon="7.02267">
        <ele>1057.5</ele>
        <time>2017-10-23T07:25:36Z</time>
      </trkpt>
      <trkpt lat="43.78368" lon="7.02254">
        <ele>1058.1</ele>
        <time>2017-10-23T07:25:44Z</time>
      </trkpt>
      <trkpt lat="43.78365" lon="7.02249">
        <ele>1059.1</ele>
        <time>2017-10-23T07:25:47Z</time>
      </trkpt>
      <trkpt lat="43.7836" lon="7.02246">
        <ele>1059.4</ele>
        <time>2017-10-23T07:25:52Z</time>
      </trkpt>
      <trkpt lat="43.78356" lon="7.02241">
        <ele>1059.4</ele>
        <time>2017-10-23T07:25:55Z</time>
      </trkpt>
      <trkpt lat="43.78352" lon="7.02237">
        <ele>1059.5</ele>
        <time>2017-10-23T07:25:58Z</time>
      </trkpt>
      <trkpt lat="43.78344" lon="7.02228">
        <ele>1059.6</ele>
        <time>2017-10-23T07:26:05Z</time>
      </trkpt>
      <trkpt lat="43.78344" lon="7.02228">
        <ele>1061.1</ele>
        <time>2017-10-23T07:26:14Z</time>
      </trkpt>
      <trkpt lat="43.78344" lon="7.02228">
        <ele>1061.1</ele>
        <time>2017-10-23T07:26:23Z</time>
      </trkpt>
      <trkpt lat="43.78321" lon="7.02202">
        <ele>1061.5</ele>
        <time>2017-10-23T07:26:30Z</time>
      </trkpt>
      <trkpt lat="43.78321" lon="7.02202">
        <ele>1062.7</ele>
        <time>2017-10-23T07:26:41Z</time>
      </trkpt>
      <trkpt lat="43.78306" lon="7.02183">
        <ele>1062.1</ele>
        <time>2017-10-23T07:26:45Z</time>
      </trkpt>
      <trkpt lat="43.78302" lon="7.02172">
        <ele>1063.2</ele>
        <time>2017-10-23T07:26:51Z</time>
      </trkpt>
      <trkpt lat="43.783" lon="7.02166">
        <ele>1063.4</ele>
        <time>2017-10-23T07:26:57Z</time>
      </trkpt>
      <trkpt lat="43.783" lon="7.02166">
        <ele>1064.8</ele>
        <time>2017-10-23T07:27:06Z</time>
      </trkpt>
      <trkpt lat="43.78293" lon="7.02137">
        <ele>1063.4</ele>
        <time>2017-10-23T07:27:14Z</time>
      </trkpt>
      <trkpt lat="43.78293" lon="7.02137">
        <ele>1065.8</ele>
        <time>2017-10-23T07:27:23Z</time>
      </trkpt>
      <trkpt lat="43.78289" lon="7.02118">
        <ele>1063</ele>
        <time>2017-10-23T07:27:24Z</time>
      </trkpt>
      <trkpt lat="43.78281" lon="7.02104">
        <ele>1061.8</ele>
        <time>2017-10-23T07:27:32Z</time>
      </trkpt>
      <trkpt lat="43.78281" lon="7.02104">
        <ele>1066.5</ele>
        <time>2017-10-23T07:27:41Z</time>
      </trkpt>
      <trkpt lat="43.78272" lon="7.02088">
        <ele>1061.2</ele>
        <time>2017-10-23T07:27:43Z</time>
      </trkpt>
      <trkpt lat="43.78272" lon="7.02088">
        <ele>1066.6</ele>
        <time>2017-10-23T07:27:52Z</time>
      </trkpt>
      <trkpt lat="43.78263" lon="7.02075">
        <ele>1060.9</ele>
        <time>2017-10-23T07:27:54Z</time>
      </trkpt>
      <trkpt lat="43.78257" lon="7.02065">
        <ele>1060.5</ele>
        <time>2017-10-23T07:28:02Z</time>
      </trkpt>
      <trkpt lat="43.78257" lon="7.02065">
        <ele>1066.9</ele>
        <time>2017-10-23T07:28:11Z</time>
      </trkpt>
      <trkpt lat="43.78248" lon="7.02054">
        <ele>1060.5</ele>
        <time>2017-10-23T07:28:12Z</time>
      </trkpt>
      <trkpt lat="43.78243" lon="7.02047">
        <ele>1060.3</ele>
        <time>2017-10-23T07:28:17Z</time>
      </trkpt>
      <trkpt lat="43.7824" lon="7.02042">
        <ele>1060.3</ele>
        <time>2017-10-23T07:28:20Z</time>
      </trkpt>
      <trkpt lat="43.7824" lon="7.02042">
        <ele>1067.2</ele>
        <time>2017-10-23T07:28:30Z</time>
      </trkpt>
      <trkpt lat="43.78242" lon="7.02023">
        <ele>1059.8</ele>
        <time>2017-10-23T07:28:31Z</time>
      </trkpt>
      <trkpt lat="43.7824" lon="7.02009">
        <ele>1059.6</ele>
        <time>2017-10-23T07:28:38Z</time>
      </trkpt>
      <trkpt lat="43.7824" lon="7.02009">
        <ele>1065.4</ele>
        <time>2017-10-23T07:28:47Z</time>
      </trkpt>
      <trkpt lat="43.78232" lon="7.01986">
        <ele>1059.8</ele>
        <time>2017-10-23T07:28:50Z</time>
      </trkpt>
      <trkpt lat="43.78227" lon="7.01981">
        <ele>1059.8</ele>
        <time>2017-10-23T07:28:54Z</time>
      </trkpt>
      <trkpt lat="43.78227" lon="7.01981">
        <ele>1064.8</ele>
        <time>2017-10-23T07:29:03Z</time>
      </trkpt>
      <trkpt lat="43.78219" lon="7.01965">
        <ele>1060.2</ele>
        <time>2017-10-23T07:29:06Z</time>
      </trkpt>
      <trkpt lat="43.78219" lon="7.01965">
        <ele>1064.9</ele>
        <time>2017-10-23T07:29:16Z</time>
      </trkpt>
      <trkpt lat="43.7821" lon="7.0195">
        <ele>1060.3</ele>
        <time>2017-10-23T07:29:17Z</time>
      </trkpt>
      <trkpt lat="43.78199" lon="7.01936">
        <ele>1060.5</ele>
        <time>2017-10-23T07:29:25Z</time>
      </trkpt>
      <trkpt lat="43.78197" lon="7.0193">
        <ele>1060.5</ele>
        <time>2017-10-23T07:29:28Z</time>
      </trkpt>
      <trkpt lat="43.78193" lon="7.01919">
        <ele>1060.5</ele>
        <time>2017-10-23T07:29:34Z</time>
      </trkpt>
      <trkpt lat="43.78193" lon="7.01919">
        <ele>1066.2</ele>
        <time>2017-10-23T07:29:46Z</time>
      </trkpt>
      <trkpt lat="43.78192" lon="7.019">
        <ele>1060.3</ele>
        <time>2017-10-23T07:29:47Z</time>
      </trkpt>
      <trkpt lat="43.78192" lon="7.019">
        <ele>1065.9</ele>
        <time>2017-10-23T07:29:56Z</time>
      </trkpt>
      <trkpt lat="43.78188" lon="7.01881">
        <ele>1058.6</ele>
        <time>2017-10-23T07:29:57Z</time>
      </trkpt>
      <trkpt lat="43.78186" lon="7.01874">
        <ele>1058.4</ele>
        <time>2017-10-23T07:30:02Z</time>
      </trkpt>
      <trkpt lat="43.78184" lon="7.01859">
        <ele>1058.4</ele>
        <time>2017-10-23T07:30:09Z</time>
      </trkpt>
      <trkpt lat="43.78179" lon="7.01848">
        <ele>1058.4</ele>
        <time>2017-10-23T07:30:16Z</time>
      </trkpt>
      <trkpt lat="43.78176" lon="7.01843">
        <ele>1058.4</ele>
        <time>2017-10-23T07:30:20Z</time>
      </trkpt>
      <trkpt lat="43.78176" lon="7.01843">
        <ele>1066.3</ele>
        <time>2017-10-23T07:30:32Z</time>
      </trkpt>
      <trkpt lat="43.78161" lon="7.01816">
        <ele>1062.2</ele>
        <time>2017-10-23T07:30:40Z</time>
      </trkpt>
      <trkpt lat="43.78159" lon="7.0181">
        <ele>1063.4</ele>
        <time>2017-10-23T07:30:43Z</time>
      </trkpt>
      <trkpt lat="43.78157" lon="7.01803">
        <ele>1064.4</ele>
        <time>2017-10-23T07:30:47Z</time>
      </trkpt>
      <trkpt lat="43.78153" lon="7.01792">
        <ele>1065.4</ele>
        <time>2017-10-23T07:30:54Z</time>
      </trkpt>
      <trkpt lat="43.78145" lon="7.0178">
        <ele>1067</ele>
        <time>2017-10-23T07:31:05Z</time>
      </trkpt>
      <trkpt lat="43.78145" lon="7.0178">
        <ele>1066.4</ele>
        <time>2017-10-23T07:31:14Z</time>
      </trkpt>
      <trkpt lat="43.78138" lon="7.01762">
        <ele>1070.7</ele>
        <time>2017-10-23T07:31:17Z</time>
      </trkpt>
      <trkpt lat="43.78135" lon="7.01757">
        <ele>1071.4</ele>
        <time>2017-10-23T07:31:20Z</time>
      </trkpt>
      <trkpt lat="43.78133" lon="7.01748">
        <ele>1071.4</ele>
        <time>2017-10-23T07:31:24Z</time>
      </trkpt>
      <trkpt lat="43.78133" lon="7.01748">
        <ele>1065.7</ele>
        <time>2017-10-23T07:31:34Z</time>
      </trkpt>
      <trkpt lat="43.7813" lon="7.0173">
        <ele>1071.5</ele>
        <time>2017-10-23T07:31:37Z</time>
      </trkpt>
      <trkpt lat="43.7813" lon="7.0173">
        <ele>1065.4</ele>
        <time>2017-10-23T07:31:46Z</time>
      </trkpt>
      <trkpt lat="43.78128" lon="7.01711">
        <ele>1071.3</ele>
        <time>2017-10-23T07:31:50Z</time>
      </trkpt>
      <trkpt lat="43.78126" lon="7.01704">
        <ele>1069</ele>
        <time>2017-10-23T07:31:53Z</time>
      </trkpt>
      <trkpt lat="43.78124" lon="7.01698">
        <ele>1069</ele>
        <time>2017-10-23T07:31:56Z</time>
      </trkpt>
      <trkpt lat="43.78121" lon="7.01692">
        <ele>1067</ele>
        <time>2017-10-23T07:31:59Z</time>
      </trkpt>
      <trkpt lat="43.78116" lon="7.01675">
        <ele>1065.9</ele>
        <time>2017-10-23T07:32:08Z</time>
      </trkpt>
      <trkpt lat="43.78116" lon="7.01675">
        <ele>1063.2</ele>
        <time>2017-10-23T07:32:17Z</time>
      </trkpt>
      <trkpt lat="43.7811" lon="7.01658">
        <ele>1063.9</ele>
        <time>2017-10-23T07:32:18Z</time>
      </trkpt>
      <trkpt lat="43.7811" lon="7.01658">
        <ele>1062.4</ele>
        <time>2017-10-23T07:32:27Z</time>
      </trkpt>
      <trkpt lat="43.781" lon="7.01644">
        <ele>1061.2</ele>
        <time>2017-10-23T07:32:29Z</time>
      </trkpt>
      <trkpt lat="43.781" lon="7.01644">
        <ele>1061.8</ele>
        <time>2017-10-23T07:32:38Z</time>
      </trkpt>
      <trkpt lat="43.78094" lon="7.0163">
        <ele>1058.3</ele>
        <time>2017-10-23T07:32:39Z</time>
      </trkpt>
      <trkpt lat="43.78094" lon="7.0163">
        <ele>1061.5</ele>
        <time>2017-10-23T07:32:49Z</time>
      </trkpt>
      <trkpt lat="43.78085" lon="7.01605">
        <ele>1054.7</ele>
        <time>2017-10-23T07:32:53Z</time>
      </trkpt>
      <trkpt lat="43.78084" lon="7.01598">
        <ele>1054.7</ele>
        <time>2017-10-23T07:32:57Z</time>
      </trkpt>
      <trkpt lat="43.78084" lon="7.01598">
        <ele>1061.9</ele>
        <time>2017-10-23T07:33:07Z</time>
      </trkpt>
      <trkpt lat="43.78078" lon="7.01565">
        <ele>1054.7</ele>
        <time>2017-10-23T07:33:15Z</time>
      </trkpt>
      <trkpt lat="43.78074" lon="7.01558">
        <ele>1058.1</ele>
        <time>2017-10-23T07:33:20Z</time>
      </trkpt>
      <trkpt lat="43.78069" lon="7.0154">
        <ele>1059.4</ele>
        <time>2017-10-23T07:33:31Z</time>
      </trkpt>
      <trkpt lat="43.78069" lon="7.0154">
        <ele>1061.5</ele>
        <time>2017-10-23T07:33:40Z</time>
      </trkpt>
      <trkpt lat="43.78059" lon="7.01526">
        <ele>1059.7</ele>
        <time>2017-10-23T07:33:41Z</time>
      </trkpt>
      <trkpt lat="43.78059" lon="7.01526">
        <ele>1061.7</ele>
        <time>2017-10-23T07:33:51Z</time>
      </trkpt>
      <trkpt lat="43.78046" lon="7.01501">
        <ele>1059.9</ele>
        <time>2017-10-23T07:33:58Z</time>
      </trkpt>
      <trkpt lat="43.78046" lon="7.01501">
        <ele>1061.4</ele>
        <time>2017-10-23T07:34:07Z</time>
      </trkpt>
      <trkpt lat="43.78035" lon="7.01486">
        <ele>1060.1</ele>
        <time>2017-10-23T07:34:11Z</time>
      </trkpt>
      <trkpt lat="43.78035" lon="7.01486">
        <ele>1061.7</ele>
        <time>2017-10-23T07:34:21Z</time>
      </trkpt>
      <trkpt lat="43.78022" lon="7.01468">
        <ele>1060.4</ele>
        <time>2017-10-23T07:34:26Z</time>
      </trkpt>
      <trkpt lat="43.78021" lon="7.01462">
        <ele>1060.4</ele>
        <time>2017-10-23T07:34:30Z</time>
      </trkpt>
      <trkpt lat="43.78021" lon="7.01462">
        <ele>1062</ele>
        <time>2017-10-23T07:34:40Z</time>
      </trkpt>
      <trkpt lat="43.78012" lon="7.01432">
        <ele>1059.2</ele>
        <time>2017-10-23T07:34:49Z</time>
      </trkpt>
      <trkpt lat="43.7801" lon="7.01425">
        <ele>1059.1</ele>
        <time>2017-10-23T07:34:53Z</time>
      </trkpt>
      <trkpt lat="43.7801" lon="7.01425">
        <ele>1061.8</ele>
        <time>2017-10-23T07:35:03Z</time>
      </trkpt>
      <trkpt lat="43.78004" lon="7.01395">
        <ele>1058.7</ele>
        <time>2017-10-23T07:35:10Z</time>
      </trkpt>
      <trkpt lat="43.78004" lon="7.01395">
        <ele>1061.2</ele>
        <time>2017-10-23T07:35:19Z</time>
      </trkpt>
      <trkpt lat="43.77998" lon="7.01363">
        <ele>1058.2</ele>
        <time>2017-10-23T07:35:26Z</time>
      </trkpt>
      <trkpt lat="43.77996" lon="7.01349">
        <ele>1057.8</ele>
        <time>2017-10-23T07:35:33Z</time>
      </trkpt>
      <trkpt lat="43.77996" lon="7.01349">
        <ele>1060.4</ele>
        <time>2017-10-23T07:35:42Z</time>
      </trkpt>
      <trkpt lat="43.77996" lon="7.01349">
        <ele>1060.4</ele>
        <time>2017-10-23T07:35:52Z</time>
      </trkpt>
      <trkpt lat="43.77984" lon="7.01316">
        <ele>1056.7</ele>
        <time>2017-10-23T07:35:55Z</time>
      </trkpt>
      <trkpt lat="43.77984" lon="7.01316">
        <ele>1058.5</ele>
        <time>2017-10-23T07:36:05Z</time>
      </trkpt>
      <trkpt lat="43.77982" lon="7.01297">
        <ele>1055.4</ele>
        <time>2017-10-23T07:36:07Z</time>
      </trkpt>
      <trkpt lat="43.77982" lon="7.01297">
        <ele>1057.4</ele>
        <time>2017-10-23T07:36:16Z</time>
      </trkpt>
      <trkpt lat="43.7798" lon="7.0127">
        <ele>1054.9</ele>
        <time>2017-10-23T07:36:24Z</time>
      </trkpt>
      <trkpt lat="43.77973" lon="7.0126">
        <ele>1054.6</ele>
        <time>2017-10-23T07:36:30Z</time>
      </trkpt>
      <trkpt lat="43.77967" lon="7.01249">
        <ele>1054.6</ele>
        <time>2017-10-23T07:36:37Z</time>
      </trkpt>
      <trkpt lat="43.77967" lon="7.01249">
        <ele>1054.8</ele>
        <time>2017-10-23T07:36:46Z</time>
      </trkpt>
      <trkpt lat="43.77959" lon="7.01235">
        <ele>1053.9</ele>
        <time>2017-10-23T07:36:47Z</time>
      </trkpt>
      <trkpt lat="43.77955" lon="7.0123">
        <ele>1053.5</ele>
        <time>2017-10-23T07:36:50Z</time>
      </trkpt>
      <trkpt lat="43.77947" lon="7.01226">
        <ele>1052.9</ele>
        <time>2017-10-23T07:36:57Z</time>
      </trkpt>
      <trkpt lat="43.7794" lon="7.01217">
        <ele>1052.5</ele>
        <time>2017-10-23T07:37:06Z</time>
      </trkpt>
      <trkpt lat="43.77936" lon="7.01204">
        <ele>1052.4</ele>
        <time>2017-10-23T07:37:13Z</time>
      </trkpt>
      <trkpt lat="43.77936" lon="7.01204">
        <ele>1051.7</ele>
        <time>2017-10-23T07:37:22Z</time>
      </trkpt>
      <trkpt lat="43.77929" lon="7.01194">
        <ele>1050.9</ele>
        <time>2017-10-23T07:37:23Z</time>
      </trkpt>
      <trkpt lat="43.77923" lon="7.01191">
        <ele>1050</ele>
        <time>2017-10-23T07:37:27Z</time>
      </trkpt>
      <trkpt lat="43.77919" lon="7.01186">
        <ele>1049.9</ele>
        <time>2017-10-23T07:37:31Z</time>
      </trkpt>
      <trkpt lat="43.77916" lon="7.01182">
        <ele>1049.9</ele>
        <time>2017-10-23T07:37:34Z</time>
      </trkpt>
      <trkpt lat="43.77912" lon="7.01177">
        <ele>1049.9</ele>
        <time>2017-10-23T07:37:38Z</time>
      </trkpt>
      <trkpt lat="43.77909" lon="7.01172">
        <ele>1049.9</ele>
        <time>2017-10-23T07:37:42Z</time>
      </trkpt>
      <trkpt lat="43.77909" lon="7.01172">
        <ele>1048.7</ele>
        <time>2017-10-23T07:37:52Z</time>
      </trkpt>
      <trkpt lat="43.77902" lon="7.01154">
        <ele>1049.9</ele>
        <time>2017-10-23T07:37:53Z</time>
      </trkpt>
      <trkpt lat="43.77897" lon="7.01143">
        <ele>1050</ele>
        <time>2017-10-23T07:38:00Z</time>
      </trkpt>
      <trkpt lat="43.77897" lon="7.01143">
        <ele>1046.8</ele>
        <time>2017-10-23T07:38:10Z</time>
      </trkpt>
      <trkpt lat="43.77897" lon="7.01143">
        <ele>1046.8</ele>
        <time>2017-10-23T07:38:20Z</time>
      </trkpt>
      <trkpt lat="43.77887" lon="7.01107">
        <ele>1050</ele>
        <time>2017-10-23T07:38:22Z</time>
      </trkpt>
      <trkpt lat="43.77887" lon="7.01107">
        <ele>1044.6</ele>
        <time>2017-10-23T07:38:32Z</time>
      </trkpt>
      <trkpt lat="43.77882" lon="7.01088">
        <ele>1049.2</ele>
        <time>2017-10-23T07:38:36Z</time>
      </trkpt>
      <trkpt lat="43.77882" lon="7.01088">
        <ele>1043.4</ele>
        <time>2017-10-23T07:38:45Z</time>
      </trkpt>
      <trkpt lat="43.77873" lon="7.01073">
        <ele>1048</ele>
        <time>2017-10-23T07:38:46Z</time>
      </trkpt>
      <trkpt lat="43.77873" lon="7.01073">
        <ele>1041.9</ele>
        <time>2017-10-23T07:38:56Z</time>
      </trkpt>
      <trkpt lat="43.77864" lon="7.01051">
        <ele>1045.2</ele>
        <time>2017-10-23T07:38:59Z</time>
      </trkpt>
      <trkpt lat="43.77857" lon="7.01033">
        <ele>1043.8</ele>
        <time>2017-10-23T07:39:08Z</time>
      </trkpt>
      <trkpt lat="43.77857" lon="7.01033">
        <ele>1038.6</ele>
        <time>2017-10-23T07:39:17Z</time>
      </trkpt>
      <trkpt lat="43.77857" lon="7.01033">
        <ele>1038.6</ele>
        <time>2017-10-23T07:39:26Z</time>
      </trkpt>
      <trkpt lat="43.77845" lon="7.00998">
        <ele>1042.9</ele>
        <time>2017-10-23T07:39:28Z</time>
      </trkpt>
      <trkpt lat="43.77845" lon="7.00998">
        <ele>1035.7</ele>
        <time>2017-10-23T07:39:37Z</time>
      </trkpt>
      <trkpt lat="43.77835" lon="7.00983">
        <ele>1042.3</ele>
        <time>2017-10-23T07:39:40Z</time>
      </trkpt>
      <trkpt lat="43.77835" lon="7.00983">
        <ele>1034.8</ele>
        <time>2017-10-23T07:39:49Z</time>
      </trkpt>
      <trkpt lat="43.77826" lon="7.00968">
        <ele>1042.1</ele>
        <time>2017-10-23T07:39:50Z</time>
      </trkpt>
      <trkpt lat="43.77821" lon="7.00955">
        <ele>1042.1</ele>
        <time>2017-10-23T07:39:56Z</time>
      </trkpt>
      <trkpt lat="43.7782" lon="7.00949">
        <ele>1042.1</ele>
        <time>2017-10-23T07:40:00Z</time>
      </trkpt>
      <trkpt lat="43.7782" lon="7.00949">
        <ele>1035.3</ele>
        <time>2017-10-23T07:40:12Z</time>
      </trkpt>
      <trkpt lat="43.77813" lon="7.00937">
        <ele>1039.5</ele>
        <time>2017-10-23T07:40:13Z</time>
      </trkpt>
      <trkpt lat="43.77811" lon="7.00931">
        <ele>1038</ele>
        <time>2017-10-23T07:40:18Z</time>
      </trkpt>
      <trkpt lat="43.77811" lon="7.00931">
        <ele>1035.7</ele>
        <time>2017-10-23T07:40:28Z</time>
      </trkpt>
      <trkpt lat="43.77801" lon="7.00917">
        <ele>1037.5</ele>
        <time>2017-10-23T07:40:30Z</time>
      </trkpt>
      <trkpt lat="43.77801" lon="7.00917">
        <ele>1036.1</ele>
        <time>2017-10-23T07:40:39Z</time>
      </trkpt>
      <trkpt lat="43.77791" lon="7.00903">
        <ele>1036.8</ele>
        <time>2017-10-23T07:40:44Z</time>
      </trkpt>
      <trkpt lat="43.77787" lon="7.00899">
        <ele>1036.7</ele>
        <time>2017-10-23T07:40:48Z</time>
      </trkpt>
      <trkpt lat="43.77782" lon="7.00896">
        <ele>1036.8</ele>
        <time>2017-10-23T07:40:52Z</time>
      </trkpt>
      <trkpt lat="43.77776" lon="7.00895">
        <ele>1036.8</ele>
        <time>2017-10-23T07:40:55Z</time>
      </trkpt>
      <trkpt lat="43.77767" lon="7.00892">
        <ele>1036.8</ele>
        <time>2017-10-23T07:41:03Z</time>
      </trkpt>
      <trkpt lat="43.77758" lon="7.00888">
        <ele>1036.8</ele>
        <time>2017-10-23T07:41:10Z</time>
      </trkpt>
      <trkpt lat="43.77758" lon="7.00888">
        <ele>1039</ele>
        <time>2017-10-23T07:41:19Z</time>
      </trkpt>
      <trkpt lat="43.7775" lon="7.00882">
        <ele>1042.8</ele>
        <time>2017-10-23T07:41:20Z</time>
      </trkpt>
      <trkpt lat="43.77743" lon="7.0088">
        <ele>1043.2</ele>
        <time>2017-10-23T07:41:27Z</time>
      </trkpt>
      <trkpt lat="43.77738" lon="7.00878">
        <ele>1043.2</ele>
        <time>2017-10-23T07:41:30Z</time>
      </trkpt>
      <trkpt lat="43.7773" lon="7.00873">
        <ele>1043.2</ele>
        <time>2017-10-23T07:41:36Z</time>
      </trkpt>
      <trkpt lat="43.77721" lon="7.00865">
        <ele>1043.2</ele>
        <time>2017-10-23T07:41:43Z</time>
      </trkpt>
      <trkpt lat="43.77713" lon="7.00858">
        <ele>1043.2</ele>
        <time>2017-10-23T07:41:50Z</time>
      </trkpt>
      <trkpt lat="43.77709" lon="7.00852">
        <ele>1042.9</ele>
        <time>2017-10-23T07:41:54Z</time>
      </trkpt>
      <trkpt lat="43.77706" lon="7.00845">
        <ele>1042.9</ele>
        <time>2017-10-23T07:41:57Z</time>
      </trkpt>
      <trkpt lat="43.77706" lon="7.00845">
        <ele>1036.6</ele>
        <time>2017-10-23T07:42:06Z</time>
      </trkpt>
      <trkpt lat="43.77702" lon="7.00826">
        <ele>1042.1</ele>
        <time>2017-10-23T07:42:10Z</time>
      </trkpt>
      <trkpt lat="43.77699" lon="7.00821">
        <ele>1042.1</ele>
        <time>2017-10-23T07:42:14Z</time>
      </trkpt>
      <trkpt lat="43.77699" lon="7.00821">
        <ele>1035.8</ele>
        <time>2017-10-23T07:42:23Z</time>
      </trkpt>
      <trkpt lat="43.77688" lon="7.00808">
        <ele>1038.7</ele>
        <time>2017-10-23T07:42:28Z</time>
      </trkpt>
      <trkpt lat="43.77688" lon="7.00808">
        <ele>1034.8</ele>
        <time>2017-10-23T07:42:37Z</time>
      </trkpt>
      <trkpt lat="43.77676" lon="7.00785">
        <ele>1035.6</ele>
        <time>2017-10-23T07:42:40Z</time>
      </trkpt>
      <trkpt lat="43.77671" lon="7.00782">
        <ele>1035.6</ele>
        <time>2017-10-23T07:42:43Z</time>
      </trkpt>
      <trkpt lat="43.77664" lon="7.00773">
        <ele>1035.4</ele>
        <time>2017-10-23T07:42:50Z</time>
      </trkpt>
      <trkpt lat="43.7766" lon="7.00766">
        <ele>1035.2</ele>
        <time>2017-10-23T07:42:55Z</time>
      </trkpt>
      <trkpt lat="43.77659" lon="7.0076">
        <ele>1035.2</ele>
        <time>2017-10-23T07:42:59Z</time>
      </trkpt>
      <trkpt lat="43.77659" lon="7.0076">
        <ele>1032.8</ele>
        <time>2017-10-23T07:43:09Z</time>
      </trkpt>
      <trkpt lat="43.77656" lon="7.00741">
        <ele>1032.3</ele>
        <time>2017-10-23T07:43:10Z</time>
      </trkpt>
      <trkpt lat="43.77656" lon="7.00741">
        <ele>1032</ele>
        <time>2017-10-23T07:43:19Z</time>
      </trkpt>
      <trkpt lat="43.7765" lon="7.00722">
        <ele>1028.9</ele>
        <time>2017-10-23T07:43:20Z</time>
      </trkpt>
      <trkpt lat="43.7765" lon="7.00715">
        <ele>1028.5</ele>
        <time>2017-10-23T07:43:24Z</time>
      </trkpt>
      <trkpt lat="43.77645" lon="7.00697">
        <ele>1028.4</ele>
        <time>2017-10-23T07:43:35Z</time>
      </trkpt>
      <trkpt lat="43.77641" lon="7.00683">
        <ele>1028.1</ele>
        <time>2017-10-23T07:43:43Z</time>
      </trkpt>
      <trkpt lat="43.77636" lon="7.00674">
        <ele>1028</ele>
        <time>2017-10-23T07:43:50Z</time>
      </trkpt>
      <trkpt lat="43.77634" lon="7.00672">
        <ele>1028.2</ele>
        <time>2017-10-23T07:43:52Z</time>
      </trkpt>
      <trkpt lat="43.77634" lon="7.00671">
        <ele>1029.2</ele>
        <time>2017-10-23T07:43:57Z</time>
      </trkpt>
      <trkpt lat="43.77634" lon="7.00671">
        <ele>1028.9</ele>
        <time>2017-10-23T07:43:57Z</time>
      </trkpt>
      <trkpt lat="43.77634" lon="7.00671">
        <ele>1028.9</ele>
        <time>2017-10-23T07:49:32Z</time>
      </trkpt>
      <trkpt lat="43.77621" lon="7.00647">
        <ele>1028.9</ele>
        <time>2017-10-23T07:49:33Z</time>
      </trkpt>
      <trkpt lat="43.77621" lon="7.00647">
        <ele>1028.4</ele>
        <time>2017-10-23T07:49:42Z</time>
      </trkpt>
      <trkpt lat="43.77614" lon="7.00631">
        <ele>1026.5</ele>
        <time>2017-10-23T07:49:49Z</time>
      </trkpt>
      <trkpt lat="43.7761" lon="7.00619">
        <ele>1025.7</ele>
        <time>2017-10-23T07:49:57Z</time>
      </trkpt>
      <trkpt lat="43.77606" lon="7.00613">
        <ele>1025.1</ele>
        <time>2017-10-23T07:50:02Z</time>
      </trkpt>
      <trkpt lat="43.77603" lon="7.00608">
        <ele>1024.6</ele>
        <time>2017-10-23T07:50:05Z</time>
      </trkpt>
      <trkpt lat="43.77601" lon="7.00602">
        <ele>1024.5</ele>
        <time>2017-10-23T07:50:08Z</time>
      </trkpt>
      <trkpt lat="43.77602" lon="7.00589">
        <ele>1024.5</ele>
        <time>2017-10-23T07:50:15Z</time>
      </trkpt>
      <trkpt lat="43.77602" lon="7.00589">
        <ele>1025.9</ele>
        <time>2017-10-23T07:50:24Z</time>
      </trkpt>
      <trkpt lat="43.77606" lon="7.00564">
        <ele>1025.6</ele>
        <time>2017-10-23T07:50:29Z</time>
      </trkpt>
      <trkpt lat="43.77608" lon="7.00551">
        <ele>1026.3</ele>
        <time>2017-10-23T07:50:37Z</time>
      </trkpt>
      <trkpt lat="43.77608" lon="7.00551">
        <ele>1025.8</ele>
        <time>2017-10-23T07:50:47Z</time>
      </trkpt>
      <trkpt lat="43.77614" lon="7.00526">
        <ele>1026.6</ele>
        <time>2017-10-23T07:50:53Z</time>
      </trkpt>
      <trkpt lat="43.77614" lon="7.00526">
        <ele>1026.1</ele>
        <time>2017-10-23T07:51:02Z</time>
      </trkpt>
      <trkpt lat="43.77615" lon="7.00492">
        <ele>1026.6</ele>
        <time>2017-10-23T07:51:09Z</time>
      </trkpt>
      <trkpt lat="43.77615" lon="7.00492">
        <ele>1026.1</ele>
        <time>2017-10-23T07:51:18Z</time>
      </trkpt>
      <trkpt lat="43.77615" lon="7.00492">
        <ele>1026.1</ele>
        <time>2017-10-23T07:51:27Z</time>
      </trkpt>
      <trkpt lat="43.77615" lon="7.00492">
        <ele>1026.1</ele>
        <time>2017-10-23T07:51:36Z</time>
      </trkpt>
      <trkpt lat="43.77635" lon="7.00432">
        <ele>1023.6</ele>
        <time>2017-10-23T07:51:43Z</time>
      </trkpt>
      <trkpt lat="43.77641" lon="7.00421">
        <ele>1023.5</ele>
        <time>2017-10-23T07:51:51Z</time>
      </trkpt>
      <trkpt lat="43.77641" lon="7.00421">
        <ele>1025.2</ele>
        <time>2017-10-23T07:52:00Z</time>
      </trkpt>
      <trkpt lat="43.77641" lon="7.00421">
        <ele>1025.2</ele>
        <time>2017-10-23T07:52:10Z</time>
      </trkpt>
      <trkpt lat="43.77643" lon="7.0038">
        <ele>1022.6</ele>
        <time>2017-10-23T07:52:16Z</time>
      </trkpt>
      <trkpt lat="43.77643" lon="7.00373">
        <ele>1022.3</ele>
        <time>2017-10-23T07:52:20Z</time>
      </trkpt>
      <trkpt lat="43.77642" lon="7.00354">
        <ele>1021.7</ele>
        <time>2017-10-23T07:52:30Z</time>
      </trkpt>
      <trkpt lat="43.77641" lon="7.00347">
        <ele>1019</ele>
        <time>2017-10-23T07:52:34Z</time>
      </trkpt>
      <trkpt lat="43.77639" lon="7.0034">
        <ele>1018.7</ele>
        <time>2017-10-23T07:52:38Z</time>
      </trkpt>
      <trkpt lat="43.77639" lon="7.0034">
        <ele>1026</ele>
        <time>2017-10-23T07:52:48Z</time>
      </trkpt>
      <trkpt lat="43.77637" lon="7.00311">
        <ele>1018.1</ele>
        <time>2017-10-23T07:52:54Z</time>
      </trkpt>
      <trkpt lat="43.77637" lon="7.00311">
        <ele>1026.8</ele>
        <time>2017-10-23T07:53:04Z</time>
      </trkpt>
      <trkpt lat="43.77642" lon="7.00283">
        <ele>1017.2</ele>
        <time>2017-10-23T07:53:10Z</time>
      </trkpt>
      <trkpt lat="43.77643" lon="7.00277">
        <ele>1016.7</ele>
        <time>2017-10-23T07:53:13Z</time>
      </trkpt>
      <trkpt lat="43.77641" lon="7.00265">
        <ele>1016.5</ele>
        <time>2017-10-23T07:53:19Z</time>
      </trkpt>
      <trkpt lat="43.77637" lon="7.00253">
        <ele>1015.4</ele>
        <time>2017-10-23T07:53:25Z</time>
      </trkpt>
      <trkpt lat="43.77635" lon="7.0024">
        <ele>1013.4</ele>
        <time>2017-10-23T07:53:32Z</time>
      </trkpt>
      <trkpt lat="43.77635" lon="7.0024">
        <ele>1025.7</ele>
        <time>2017-10-23T07:53:41Z</time>
      </trkpt>
      <trkpt lat="43.77635" lon="7.00219">
        <ele>1012.9</ele>
        <time>2017-10-23T07:53:44Z</time>
      </trkpt>
      <trkpt lat="43.77633" lon="7.00211">
        <ele>1012.9</ele>
        <time>2017-10-23T07:53:47Z</time>
      </trkpt>
      <trkpt lat="43.77629" lon="7.002">
        <ele>1012.9</ele>
        <time>2017-10-23T07:53:56Z</time>
      </trkpt>
      <trkpt lat="43.77629" lon="7.00193">
        <ele>1013</ele>
        <time>2017-10-23T07:53:59Z</time>
      </trkpt>
      <trkpt lat="43.77627" lon="7.00187">
        <ele>1013</ele>
        <time>2017-10-23T07:54:03Z</time>
      </trkpt>
      <trkpt lat="43.77627" lon="7.00187">
        <ele>1019.5</ele>
        <time>2017-10-23T07:54:13Z</time>
      </trkpt>
      <trkpt lat="43.77612" lon="7.00187">
        <ele>1014.2</ele>
        <time>2017-10-23T07:54:20Z</time>
      </trkpt>
      <trkpt lat="43.77614" lon="7.00174">
        <ele>1014.2</ele>
        <time>2017-10-23T07:54:29Z</time>
      </trkpt>
      <trkpt lat="43.77614" lon="7.00174">
        <ele>1013.6</ele>
        <time>2017-10-23T07:54:39Z</time>
      </trkpt>
      <trkpt lat="43.77623" lon="7.00161">
        <ele>1014.2</ele>
        <time>2017-10-23T07:54:43Z</time>
      </trkpt>
      <trkpt lat="43.77624" lon="7.00161">
        <ele>1014.1</ele>
        <time>2017-10-23T07:54:44Z</time>
      </trkpt>
      <trkpt lat="43.77624" lon="7.00162">
        <ele>1007.8</ele>
        <time>2017-10-23T07:54:49Z</time>
      </trkpt>
      <trkpt lat="43.77624" lon="7.00162">
        <ele>1013.9</ele>
        <time>2017-10-23T07:54:49Z</time>
      </trkpt>
      <trkpt lat="43.77624" lon="7.00162">
        <ele>1013.9</ele>
        <time>2017-10-23T07:55:05Z</time>
      </trkpt>
      <trkpt lat="43.77632" lon="7.0015">
        <ele>1011.4</ele>
        <time>2017-10-23T07:55:05Z</time>
      </trkpt>
      <trkpt lat="43.77635" lon="7.00137">
        <ele>1010</ele>
        <time>2017-10-23T07:55:12Z</time>
      </trkpt>
      <trkpt lat="43.77635" lon="7.00137">
        <ele>1012.5</ele>
        <time>2017-10-23T07:55:21Z</time>
      </trkpt>
      <trkpt lat="43.77645" lon="7.00123">
        <ele>1007.8</ele>
        <time>2017-10-23T07:55:23Z</time>
      </trkpt>
      <trkpt lat="43.77645" lon="7.00123">
        <ele>1012.7</ele>
        <time>2017-10-23T07:55:32Z</time>
      </trkpt>
      <trkpt lat="43.77649" lon="7.00097">
        <ele>1003.8</ele>
        <time>2017-10-23T07:55:37Z</time>
      </trkpt>
      <trkpt lat="43.7765" lon="7.00083">
        <ele>1001.3</ele>
        <time>2017-10-23T07:55:42Z</time>
      </trkpt>
      <trkpt lat="43.7765" lon="7.00083">
        <ele>1007.9</ele>
        <time>2017-10-23T07:55:51Z</time>
      </trkpt>
      <trkpt lat="43.77662" lon="7.00056">
        <ele>999.6</ele>
        <time>2017-10-23T07:55:58Z</time>
      </trkpt>
      <trkpt lat="43.77666" lon="7.00053">
        <ele>999.6</ele>
        <time>2017-10-23T07:56:04Z</time>
      </trkpt>
      <trkpt lat="43.77668" lon="7.00047">
        <ele>999.6</ele>
        <time>2017-10-23T07:56:07Z</time>
      </trkpt>
      <trkpt lat="43.77674" lon="7.00034">
        <ele>999.3</ele>
        <time>2017-10-23T07:56:14Z</time>
      </trkpt>
      <trkpt lat="43.77677" lon="7.00029">
        <ele>999.1</ele>
        <time>2017-10-23T07:56:18Z</time>
      </trkpt>
      <trkpt lat="43.77679" lon="7.00021">
        <ele>999</ele>
        <time>2017-10-23T07:56:22Z</time>
      </trkpt>
      <trkpt lat="43.77684" lon="7.0001">
        <ele>998.6</ele>
        <time>2017-10-23T07:56:30Z</time>
      </trkpt>
      <trkpt lat="43.77684" lon="7.0001">
        <ele>1006.6</ele>
        <time>2017-10-23T07:56:39Z</time>
      </trkpt>
      <trkpt lat="43.77694" lon="6.99996">
        <ele>997.8</ele>
        <time>2017-10-23T07:56:41Z</time>
      </trkpt>
      <trkpt lat="43.77694" lon="6.99996">
        <ele>1006.4</ele>
        <time>2017-10-23T07:56:50Z</time>
      </trkpt>
      <trkpt lat="43.77707" lon="6.99984">
        <ele>994.3</ele>
        <time>2017-10-23T07:56:53Z</time>
      </trkpt>
      <trkpt lat="43.7771" lon="6.9998">
        <ele>994.3</ele>
        <time>2017-10-23T07:56:57Z</time>
      </trkpt>
      <trkpt lat="43.77717" lon="6.99971">
        <ele>994.3</ele>
        <time>2017-10-23T07:57:04Z</time>
      </trkpt>
      <trkpt lat="43.77722" lon="6.99967">
        <ele>994.3</ele>
        <time>2017-10-23T07:57:08Z</time>
      </trkpt>
      <trkpt lat="43.77727" lon="6.99961">
        <ele>994.3</ele>
        <time>2017-10-23T07:57:13Z</time>
      </trkpt>
      <trkpt lat="43.77731" lon="6.99955">
        <ele>994.3</ele>
        <time>2017-10-23T07:57:17Z</time>
      </trkpt>
      <trkpt lat="43.77735" lon="6.99947">
        <ele>994.4</ele>
        <time>2017-10-23T07:57:22Z</time>
      </trkpt>
      <trkpt lat="43.77739" lon="6.99943">
        <ele>994.4</ele>
        <time>2017-10-23T07:57:26Z</time>
      </trkpt>
      <trkpt lat="43.77739" lon="6.99943">
        <ele>1007.4</ele>
        <time>2017-10-23T07:57:36Z</time>
      </trkpt>
      <trkpt lat="43.77753" lon="6.99915">
        <ele>994.4</ele>
        <time>2017-10-23T07:57:44Z</time>
      </trkpt>
      <trkpt lat="43.77754" lon="6.99908">
        <ele>994.4</ele>
        <time>2017-10-23T07:57:49Z</time>
      </trkpt>
      <trkpt lat="43.77762" lon="6.99892">
        <ele>993.7</ele>
        <time>2017-10-23T07:57:57Z</time>
      </trkpt>
      <trkpt lat="43.77762" lon="6.99892">
        <ele>1003.3</ele>
        <time>2017-10-23T07:58:06Z</time>
      </trkpt>
      <trkpt lat="43.77769" lon="6.99876">
        <ele>991.7</ele>
        <time>2017-10-23T07:58:07Z</time>
      </trkpt>
      <trkpt lat="43.77775" lon="6.99866">
        <ele>991.1</ele>
        <time>2017-10-23T07:58:13Z</time>
      </trkpt>
      <trkpt lat="43.77775" lon="6.99866">
        <ele>1001.4</ele>
        <time>2017-10-23T07:58:22Z</time>
      </trkpt>
      <trkpt lat="43.77786" lon="6.9985">
        <ele>988.1</ele>
        <time>2017-10-23T07:58:26Z</time>
      </trkpt>
      <trkpt lat="43.77792" lon="6.99836">
        <ele>987.8</ele>
        <time>2017-10-23T07:58:34Z</time>
      </trkpt>
      <trkpt lat="43.77792" lon="6.99836">
        <ele>1001.6</ele>
        <time>2017-10-23T07:58:45Z</time>
      </trkpt>
      <trkpt lat="43.778" lon="6.99819">
        <ele>986.4</ele>
        <time>2017-10-23T07:58:46Z</time>
      </trkpt>
      <trkpt lat="43.778" lon="6.99817">
        <ele>987.8</ele>
        <time>2017-10-23T07:58:51Z</time>
      </trkpt>
      <trkpt lat="43.778" lon="6.99817">
        <ele>1000.7</ele>
        <time>2017-10-23T07:58:51Z</time>
      </trkpt>
      <trkpt lat="43.778" lon="6.99817">
        <ele>1000.7</ele>
        <time>2017-10-23T08:01:17Z</time>
      </trkpt>
      <trkpt lat="43.77782" lon="6.99812">
        <ele>1005.1</ele>
        <time>2017-10-23T08:01:17Z</time>
      </trkpt>
      <trkpt lat="43.77781" lon="6.99813">
        <ele>1003.5</ele>
        <time>2017-10-23T08:01:22Z</time>
      </trkpt>
      <trkpt lat="43.77781" lon="6.99813">
        <ele>1000.3</ele>
        <time>2017-10-23T08:01:22Z</time>
      </trkpt>
      <trkpt lat="43.77781" lon="6.99813">
        <ele>1000.3</ele>
        <time>2017-10-23T08:06:17Z</time>
      </trkpt>
      <trkpt lat="43.77784" lon="6.99838">
        <ele>998.8</ele>
        <time>2017-10-23T08:06:17Z</time>
      </trkpt>
      <trkpt lat="43.77779" lon="6.99843">
        <ele>998.8</ele>
        <time>2017-10-23T08:06:21Z</time>
      </trkpt>
      <trkpt lat="43.77773" lon="6.99853">
        <ele>1000.1</ele>
        <time>2017-10-23T08:06:28Z</time>
      </trkpt>
      <trkpt lat="43.7777" lon="6.99859">
        <ele>1005.1</ele>
        <time>2017-10-23T08:06:32Z</time>
      </trkpt>
      <trkpt lat="43.77765" lon="6.9987">
        <ele>1005.3</ele>
        <time>2017-10-23T08:06:41Z</time>
      </trkpt>
      <trkpt lat="43.77762" lon="6.99875">
        <ele>1005.3</ele>
        <time>2017-10-23T08:06:44Z</time>
      </trkpt>
      <trkpt lat="43.77759" lon="6.99881">
        <ele>1005.3</ele>
        <time>2017-10-23T08:06:47Z</time>
      </trkpt>
      <trkpt lat="43.77756" lon="6.99888">
        <ele>1005.3</ele>
        <time>2017-10-23T08:06:51Z</time>
      </trkpt>
      <trkpt lat="43.77746" lon="6.99902">
        <ele>1005.3</ele>
        <time>2017-10-23T08:07:01Z</time>
      </trkpt>
      <trkpt lat="43.77746" lon="6.99902">
        <ele>1002.6</ele>
        <time>2017-10-23T08:07:10Z</time>
      </trkpt>
      <trkpt lat="43.77741" lon="6.99919">
        <ele>1004.9</ele>
        <time>2017-10-23T08:07:11Z</time>
      </trkpt>
      <trkpt lat="43.77741" lon="6.99919">
        <ele>1003.7</ele>
        <time>2017-10-23T08:07:20Z</time>
      </trkpt>
      <trkpt lat="43.77741" lon="6.99919">
        <ele>1003.7</ele>
        <time>2017-10-23T08:07:30Z</time>
      </trkpt>
      <trkpt lat="43.77723" lon="6.99945">
        <ele>1004</ele>
        <time>2017-10-23T08:07:31Z</time>
      </trkpt>
      <trkpt lat="43.77723" lon="6.99945">
        <ele>1004.1</ele>
        <time>2017-10-23T08:07:40Z</time>
      </trkpt>
      <trkpt lat="43.77723" lon="6.99945">
        <ele>1004.1</ele>
        <time>2017-10-23T08:07:49Z</time>
      </trkpt>
      <trkpt lat="43.77706" lon="6.99969">
        <ele>1003.4</ele>
        <time>2017-10-23T08:07:51Z</time>
      </trkpt>
      <trkpt lat="43.77706" lon="6.99969">
        <ele>1005</ele>
        <time>2017-10-23T08:08:01Z</time>
      </trkpt>
      <trkpt lat="43.77696" lon="6.99976">
        <ele>1002.1</ele>
        <time>2017-10-23T08:08:03Z</time>
      </trkpt>
      <trkpt lat="43.77692" lon="6.99981">
        <ele>1001.8</ele>
        <time>2017-10-23T08:08:09Z</time>
      </trkpt>
      <trkpt lat="43.7769" lon="6.99985">
        <ele>994</ele>
        <time>2017-10-23T08:08:14Z</time>
      </trkpt>
      <trkpt lat="43.7769" lon="6.99985">
        <ele>1004.5</ele>
        <time>2017-10-23T08:08:14Z</time>
      </trkpt>
      <trkpt lat="43.7769" lon="6.99985">
        <ele>1004.5</ele>
        <time>2017-10-23T08:08:26Z</time>
      </trkpt>
      <trkpt lat="43.77679" lon="7.00003">
        <ele>997.1</ele>
        <time>2017-10-23T08:08:26Z</time>
      </trkpt>
      <trkpt lat="43.77679" lon="7.00003">
        <ele>1005.1</ele>
        <time>2017-10-23T08:08:35Z</time>
      </trkpt>
      <trkpt lat="43.77679" lon="7.00003">
        <ele>1005.1</ele>
        <time>2017-10-23T08:08:44Z</time>
      </trkpt>
      <trkpt lat="43.7767" lon="7.00033">
        <ele>993.9</ele>
        <time>2017-10-23T08:08:45Z</time>
      </trkpt>
      <trkpt lat="43.77669" lon="7.00039">
        <ele>993.8</ele>
        <time>2017-10-23T08:08:48Z</time>
      </trkpt>
      <trkpt lat="43.77664" lon="7.00058">
        <ele>993.5</ele>
        <time>2017-10-23T08:08:57Z</time>
      </trkpt>
      <trkpt lat="43.77664" lon="7.00058">
        <ele>1008</ele>
        <time>2017-10-23T08:09:06Z</time>
      </trkpt>
      <trkpt lat="43.77664" lon="7.00058">
        <ele>1008</ele>
        <time>2017-10-23T08:09:15Z</time>
      </trkpt>
      <trkpt lat="43.7765" lon="7.00099">
        <ele>993</ele>
        <time>2017-10-23T08:09:20Z</time>
      </trkpt>
      <trkpt lat="43.7765" lon="7.00099">
        <ele>1010.3</ele>
        <time>2017-10-23T08:09:29Z</time>
      </trkpt>
      <trkpt lat="43.77644" lon="7.00124">
        <ele>995.9</ele>
        <time>2017-10-23T08:09:37Z</time>
      </trkpt>
      <trkpt lat="43.77644" lon="7.00124">
        <ele>1012.7</ele>
        <time>2017-10-23T08:09:46Z</time>
      </trkpt>
      <trkpt lat="43.77634" lon="7.0014">
        <ele>999.9</ele>
        <time>2017-10-23T08:09:50Z</time>
      </trkpt>
      <trkpt lat="43.7763" lon="7.00145">
        <ele>999.9</ele>
        <time>2017-10-23T08:09:54Z</time>
      </trkpt>
      <trkpt lat="43.77623" lon="7.00154">
        <ele>1001</ele>
        <time>2017-10-23T08:10:01Z</time>
      </trkpt>
      <trkpt lat="43.77623" lon="7.00154">
        <ele>1012.3</ele>
        <time>2017-10-23T08:10:10Z</time>
      </trkpt>
      <trkpt lat="43.77619" lon="7.00166">
        <ele>1002.2</ele>
        <time>2017-10-23T08:10:14Z</time>
      </trkpt>
      <trkpt lat="43.77619" lon="7.00166">
        <ele>1013.3</ele>
        <time>2017-10-23T08:10:23Z</time>
      </trkpt>
      <trkpt lat="43.77612" lon="7.00184">
        <ele>1003.5</ele>
        <time>2017-10-23T08:10:30Z</time>
      </trkpt>
      <trkpt lat="43.77612" lon="7.00186">
        <ele>1003.9</ele>
        <time>2017-10-23T08:10:31Z</time>
      </trkpt>
      <trkpt lat="43.77612" lon="7.00191">
        <ele>1014.5</ele>
        <time>2017-10-23T08:10:36Z</time>
      </trkpt>
      <trkpt lat="43.77612" lon="7.00191">
        <ele>1017.2</ele>
        <time>2017-10-23T08:10:36Z</time>
      </trkpt>
      <trkpt lat="43.77612" lon="7.00191">
        <ele>1017.2</ele>
        <time>2017-10-23T08:11:00Z</time>
      </trkpt>
      <trkpt lat="43.7763" lon="7.00195">
        <ele>1012.4</ele>
        <time>2017-10-23T08:11:00Z</time>
      </trkpt>
      <trkpt lat="43.77634" lon="7.00208">
        <ele>1015</ele>
        <time>2017-10-23T08:11:08Z</time>
      </trkpt>
      <trkpt lat="43.77634" lon="7.00208">
        <ele>1023.4</ele>
        <time>2017-10-23T08:11:17Z</time>
      </trkpt>
      <trkpt lat="43.77634" lon="7.00208">
        <ele>1023.4</ele>
        <time>2017-10-23T08:11:26Z</time>
      </trkpt>
      <trkpt lat="43.77634" lon="7.00208">
        <ele>1023.4</ele>
        <time>2017-10-23T08:11:35Z</time>
      </trkpt>
      <trkpt lat="43.77634" lon="7.00241">
        <ele>1018.4</ele>
        <time>2017-10-23T08:11:41Z</time>
      </trkpt>
      <trkpt lat="43.77634" lon="7.00248">
        <ele>1018.7</ele>
        <time>2017-10-23T08:11:46Z</time>
      </trkpt>
      <trkpt lat="43.77635" lon="7.00255">
        <ele>1019</ele>
        <time>2017-10-23T08:11:49Z</time>
      </trkpt>
      <trkpt lat="43.77637" lon="7.00261">
        <ele>1019</ele>
        <time>2017-10-23T08:11:53Z</time>
      </trkpt>
      <trkpt lat="43.77641" lon="7.00268">
        <ele>1019.6</ele>
        <time>2017-10-23T08:11:57Z</time>
      </trkpt>
      <trkpt lat="43.77641" lon="7.00268">
        <ele>1026.5</ele>
        <time>2017-10-23T08:12:07Z</time>
      </trkpt>
      <trkpt lat="43.77633" lon="7.00297">
        <ele>1024.9</ele>
        <time>2017-10-23T08:12:19Z</time>
      </trkpt>
      <trkpt lat="43.77632" lon="7.00306">
        <ele>1024.9</ele>
        <time>2017-10-23T08:12:23Z</time>
      </trkpt>
      <trkpt lat="43.77633" lon="7.00321">
        <ele>1024.9</ele>
        <time>2017-10-23T08:12:30Z</time>
      </trkpt>
      <trkpt lat="43.77633" lon="7.00321">
        <ele>1026.6</ele>
        <time>2017-10-23T08:12:39Z</time>
      </trkpt>
      <trkpt lat="43.77634" lon="7.0033">
        <ele>1023.7</ele>
        <time>2017-10-23T08:12:40Z</time>
      </trkpt>
      <trkpt lat="43.77634" lon="7.0033">
        <ele>1026.3</ele>
        <time>2017-10-23T08:12:40Z</time>
      </trkpt>
      <trkpt lat="43.77634" lon="7.0033">
        <ele>1026.3</ele>
        <time>2017-10-23T08:17:22Z</time>
      </trkpt>
      <trkpt lat="43.77637" lon="7.00302">
        <ele>1028.3</ele>
        <time>2017-10-23T08:17:22Z</time>
      </trkpt>
      <trkpt lat="43.77637" lon="7.00295">
        <ele>1028.3</ele>
        <time>2017-10-23T08:17:27Z</time>
      </trkpt>
      <trkpt lat="43.77637" lon="7.00295">
        <ele>1027</ele>
        <time>2017-10-23T08:17:38Z</time>
      </trkpt>
      <trkpt lat="43.77637" lon="7.00295">
        <ele>1027</ele>
        <time>2017-10-23T08:17:48Z</time>
      </trkpt>
      <trkpt lat="43.77619" lon="7.00278">
        <ele>1028.3</ele>
        <time>2017-10-23T08:17:51Z</time>
      </trkpt>
      <trkpt lat="43.77619" lon="7.00278">
        <ele>1027</ele>
        <time>2017-10-23T08:17:51Z</time>
      </trkpt>
      <trkpt lat="43.77619" lon="7.00278">
        <ele>1027</ele>
        <time>2017-10-23T08:18:46Z</time>
      </trkpt>
      <trkpt lat="43.77625" lon="7.00306">
        <ele>1028.3</ele>
        <time>2017-10-23T08:18:46Z</time>
      </trkpt>
      <trkpt lat="43.77625" lon="7.00306">
        <ele>1027</ele>
        <time>2017-10-23T08:18:55Z</time>
      </trkpt>
      <trkpt lat="43.77625" lon="7.00306">
        <ele>1027</ele>
        <time>2017-10-23T08:19:04Z</time>
      </trkpt>
      <trkpt lat="43.77628" lon="7.00328">
        <ele>1028.3</ele>
        <time>2017-10-23T08:19:05Z</time>
      </trkpt>
      <trkpt lat="43.77628" lon="7.00328">
        <ele>1026.5</ele>
        <time>2017-10-23T08:19:05Z</time>
      </trkpt>
      <trkpt lat="43.77628" lon="7.00328">
        <ele>1026.5</ele>
        <time>2017-10-23T08:22:45Z</time>
      </trkpt>
      <trkpt lat="43.77637" lon="7.00305">
        <ele>1028.3</ele>
        <time>2017-10-23T08:22:45Z</time>
      </trkpt>
      <trkpt lat="43.77636" lon="7.00297">
        <ele>1028.3</ele>
        <time>2017-10-23T08:22:49Z</time>
      </trkpt>
      <trkpt lat="43.77636" lon="7.00289">
        <ele>1028.3</ele>
        <time>2017-10-23T08:22:54Z</time>
      </trkpt>
      <trkpt lat="43.77639" lon="7.00282">
        <ele>1028.3</ele>
        <time>2017-10-23T08:23:00Z</time>
      </trkpt>
      <trkpt lat="43.77641" lon="7.00276">
        <ele>1028.3</ele>
        <time>2017-10-23T08:23:04Z</time>
      </trkpt>
      <trkpt lat="43.77644" lon="7.00264">
        <ele>1028.3</ele>
        <time>2017-10-23T08:23:11Z</time>
      </trkpt>
      <trkpt lat="43.77644" lon="7.00264">
        <ele>1026.2</ele>
        <time>2017-10-23T08:23:20Z</time>
      </trkpt>
      <trkpt lat="43.77643" lon="7.0025">
        <ele>1028.3</ele>
        <time>2017-10-23T08:23:24Z</time>
      </trkpt>
      <trkpt lat="43.77644" lon="7.00236">
        <ele>1028.3</ele>
        <time>2017-10-23T08:23:33Z</time>
      </trkpt>
      <trkpt lat="43.77644" lon="7.00236">
        <ele>1025.4</ele>
        <time>2017-10-23T08:23:42Z</time>
      </trkpt>
      <trkpt lat="43.77644" lon="7.00236">
        <ele>1025.4</ele>
        <time>2017-10-23T08:23:51Z</time>
      </trkpt>
      <trkpt lat="43.77641" lon="7.00205">
        <ele>1028.3</ele>
        <time>2017-10-23T08:23:55Z</time>
      </trkpt>
      <trkpt lat="43.77634" lon="7.00196">
        <ele>1028.3</ele>
        <time>2017-10-23T08:24:00Z</time>
      </trkpt>
      <trkpt lat="43.77628" lon="7.00194">
        <ele>1028.3</ele>
        <time>2017-10-23T08:24:04Z</time>
      </trkpt>
      <trkpt lat="43.77619" lon="7.00193">
        <ele>1028.3</ele>
        <time>2017-10-23T08:24:10Z</time>
      </trkpt>
      <trkpt lat="43.77619" lon="7.00193">
        <ele>1019.1</ele>
        <time>2017-10-23T08:24:19Z</time>
      </trkpt>
      <trkpt lat="43.77616" lon="7.00183">
        <ele>1027.2</ele>
        <time>2017-10-23T08:24:22Z</time>
      </trkpt>
      <trkpt lat="43.77618" lon="7.00171">
        <ele>1023.7</ele>
        <time>2017-10-23T08:24:29Z</time>
      </trkpt>
      <trkpt lat="43.77624" lon="7.00159">
        <ele>1020.4</ele>
        <time>2017-10-23T08:24:38Z</time>
      </trkpt>
      <trkpt lat="43.77624" lon="7.00159">
        <ele>1013.4</ele>
        <time>2017-10-23T08:24:48Z</time>
      </trkpt>
      <trkpt lat="43.77634" lon="7.00136">
        <ele>1016.7</ele>
        <time>2017-10-23T08:24:53Z</time>
      </trkpt>
      <trkpt lat="43.77635" lon="7.00128">
        <ele>1016.3</ele>
        <time>2017-10-23T08:24:57Z</time>
      </trkpt>
      <trkpt lat="43.77638" lon="7.00122">
        <ele>1016.3</ele>
        <time>2017-10-23T08:25:01Z</time>
      </trkpt>
      <trkpt lat="43.7764" lon="7.0011">
        <ele>1016</ele>
        <time>2017-10-23T08:25:10Z</time>
      </trkpt>
      <trkpt lat="43.77643" lon="7.00103">
        <ele>1016</ele>
        <time>2017-10-23T08:25:14Z</time>
      </trkpt>
      <trkpt lat="43.77651" lon="7.00087">
        <ele>1015.5</ele>
        <time>2017-10-23T08:25:25Z</time>
      </trkpt>
      <trkpt lat="43.77653" lon="7.00081">
        <ele>1014.7</ele>
        <time>2017-10-23T08:25:28Z</time>
      </trkpt>
      <trkpt lat="43.77655" lon="7.00074">
        <ele>1014.4</ele>
        <time>2017-10-23T08:25:31Z</time>
      </trkpt>
      <trkpt lat="43.77656" lon="7.00065">
        <ele>1014.4</ele>
        <time>2017-10-23T08:25:34Z</time>
      </trkpt>
      <trkpt lat="43.77658" lon="7.00051">
        <ele>1013.2</ele>
        <time>2017-10-23T08:25:40Z</time>
      </trkpt>
      <trkpt lat="43.77658" lon="7.00051">
        <ele>1006.6</ele>
        <time>2017-10-23T08:25:49Z</time>
      </trkpt>
      <trkpt lat="43.77664" lon="7.00032">
        <ele>1011.3</ele>
        <time>2017-10-23T08:25:51Z</time>
      </trkpt>
      <trkpt lat="43.77667" lon="7.00027">
        <ele>1010.9</ele>
        <time>2017-10-23T08:25:55Z</time>
      </trkpt>
      <trkpt lat="43.77671" lon="7.00023">
        <ele>1010</ele>
        <time>2017-10-23T08:25:59Z</time>
      </trkpt>
      <trkpt lat="43.77674" lon="7.00017">
        <ele>1008.7</ele>
        <time>2017-10-23T08:26:03Z</time>
      </trkpt>
      <trkpt lat="43.77678" lon="7.00013">
        <ele>1008.7</ele>
        <time>2017-10-23T08:26:07Z</time>
      </trkpt>
      <trkpt lat="43.77683" lon="7.00011">
        <ele>1007.6</ele>
        <time>2017-10-23T08:26:11Z</time>
      </trkpt>
      <trkpt lat="43.77687" lon="7.00007">
        <ele>1007.6</ele>
        <time>2017-10-23T08:26:14Z</time>
      </trkpt>
      <trkpt lat="43.77693" lon="6.99996">
        <ele>1007.6</ele>
        <time>2017-10-23T08:26:20Z</time>
      </trkpt>
      <trkpt lat="43.77693" lon="6.99996">
        <ele>1006.3</ele>
        <time>2017-10-23T08:26:29Z</time>
      </trkpt>
      <trkpt lat="43.77704" lon="6.99982">
        <ele>1007.6</ele>
        <time>2017-10-23T08:26:30Z</time>
      </trkpt>
      <trkpt lat="43.77704" lon="6.99982">
        <ele>1006.8</ele>
        <time>2017-10-23T08:26:40Z</time>
      </trkpt>
      <trkpt lat="43.77704" lon="6.99982">
        <ele>1006.8</ele>
        <time>2017-10-23T08:26:49Z</time>
      </trkpt>
      <trkpt lat="43.77729" lon="6.9995">
        <ele>1008</ele>
        <time>2017-10-23T08:26:53Z</time>
      </trkpt>
      <trkpt lat="43.77733" lon="6.99946">
        <ele>1009.5</ele>
        <time>2017-10-23T08:26:57Z</time>
      </trkpt>
      <trkpt lat="43.77736" lon="6.9994">
        <ele>1009.7</ele>
        <time>2017-10-23T08:27:01Z</time>
      </trkpt>
      <trkpt lat="43.77744" lon="6.99927">
        <ele>1009.7</ele>
        <time>2017-10-23T08:27:08Z</time>
      </trkpt>
      <trkpt lat="43.77749" lon="6.99916">
        <ele>1009.7</ele>
        <time>2017-10-23T08:27:13Z</time>
      </trkpt>
      <trkpt lat="43.77752" lon="6.99911">
        <ele>1009.7</ele>
        <time>2017-10-23T08:27:17Z</time>
      </trkpt>
      <trkpt lat="43.77758" lon="6.999">
        <ele>1009.7</ele>
        <time>2017-10-23T08:27:26Z</time>
      </trkpt>
      <trkpt lat="43.77765" lon="6.99891">
        <ele>1009.4</ele>
        <time>2017-10-23T08:27:32Z</time>
      </trkpt>
      <trkpt lat="43.7777" lon="6.99881">
        <ele>1008.9</ele>
        <time>2017-10-23T08:27:38Z</time>
      </trkpt>
      <trkpt lat="43.77771" lon="6.99871">
        <ele>1007.2</ele>
        <time>2017-10-23T08:27:43Z</time>
      </trkpt>
      <trkpt lat="43.77774" lon="6.99865">
        <ele>1007.2</ele>
        <time>2017-10-23T08:27:46Z</time>
      </trkpt>
      <trkpt lat="43.77781" lon="6.99853">
        <ele>1006.8</ele>
        <time>2017-10-23T08:27:52Z</time>
      </trkpt>
      <trkpt lat="43.77783" lon="6.99848">
        <ele>1006.1</ele>
        <time>2017-10-23T08:27:56Z</time>
      </trkpt>
      <trkpt lat="43.77789" lon="6.99838">
        <ele>1005.6</ele>
        <time>2017-10-23T08:28:04Z</time>
      </trkpt>
      <trkpt lat="43.77796" lon="6.99825">
        <ele>1004.8</ele>
        <time>2017-10-23T08:28:12Z</time>
      </trkpt>
      <trkpt lat="43.77801" lon="6.99813">
        <ele>1003</ele>
        <time>2017-10-23T08:28:20Z</time>
      </trkpt>
      <trkpt lat="43.77801" lon="6.99813">
        <ele>1000.5</ele>
        <time>2017-10-23T08:28:29Z</time>
      </trkpt>
      <trkpt lat="43.77801" lon="6.99813">
        <ele>1000.5</ele>
        <time>2017-10-23T08:28:38Z</time>
      </trkpt>
      <trkpt lat="43.77819" lon="6.99791">
        <ele>996.1</ele>
        <time>2017-10-23T08:28:40Z</time>
      </trkpt>
      <trkpt lat="43.77826" lon="6.99782">
        <ele>995.5</ele>
        <time>2017-10-23T08:28:46Z</time>
      </trkpt>
      <trkpt lat="43.77832" lon="6.99773">
        <ele>995.4</ele>
        <time>2017-10-23T08:28:52Z</time>
      </trkpt>
      <trkpt lat="43.77832" lon="6.99773">
        <ele>996.9</ele>
        <time>2017-10-23T08:29:01Z</time>
      </trkpt>
      <trkpt lat="43.77845" lon="6.99765">
        <ele>995.4</ele>
        <time>2017-10-23T08:29:02Z</time>
      </trkpt>
      <trkpt lat="43.77845" lon="6.99765">
        <ele>996.5</ele>
        <time>2017-10-23T08:29:11Z</time>
      </trkpt>
      <trkpt lat="43.77858" lon="6.99755">
        <ele>995.7</ele>
        <time>2017-10-23T08:29:12Z</time>
      </trkpt>
      <trkpt lat="43.77858" lon="6.99755">
        <ele>996.2</ele>
        <time>2017-10-23T08:29:21Z</time>
      </trkpt>
      <trkpt lat="43.7788" lon="6.99732">
        <ele>996.3</ele>
        <time>2017-10-23T08:29:29Z</time>
      </trkpt>
      <trkpt lat="43.77887" lon="6.99722">
        <ele>996.2</ele>
        <time>2017-10-23T08:29:35Z</time>
      </trkpt>
      <trkpt lat="43.77887" lon="6.99722">
        <ele>995</ele>
        <time>2017-10-23T08:29:44Z</time>
      </trkpt>
      <trkpt lat="43.77904" lon="6.99701">
        <ele>996.1</ele>
        <time>2017-10-23T08:29:49Z</time>
      </trkpt>
      <trkpt lat="43.77904" lon="6.99701">
        <ele>994.8</ele>
        <time>2017-10-23T08:29:58Z</time>
      </trkpt>
      <trkpt lat="43.77913" lon="6.99697">
        <ele>994.6</ele>
        <time>2017-10-23T08:29:59Z</time>
      </trkpt>
      <trkpt lat="43.77917" lon="6.99693">
        <ele>994.6</ele>
        <time>2017-10-23T08:30:03Z</time>
      </trkpt>
      <trkpt lat="43.77922" lon="6.99691">
        <ele>993.4</ele>
        <time>2017-10-23T08:30:07Z</time>
      </trkpt>
      <trkpt lat="43.7793" lon="6.99685">
        <ele>992</ele>
        <time>2017-10-23T08:30:14Z</time>
      </trkpt>
      <trkpt lat="43.77933" lon="6.9968">
        <ele>992</ele>
        <time>2017-10-23T08:30:18Z</time>
      </trkpt>
      <trkpt lat="43.77938" lon="6.99675">
        <ele>991.8</ele>
        <time>2017-10-23T08:30:22Z</time>
      </trkpt>
      <trkpt lat="43.77941" lon="6.99669">
        <ele>991</ele>
        <time>2017-10-23T08:30:26Z</time>
      </trkpt>
      <trkpt lat="43.77943" lon="6.99662">
        <ele>991</ele>
        <time>2017-10-23T08:30:30Z</time>
      </trkpt>
      <trkpt lat="43.77946" lon="6.99656">
        <ele>989.7</ele>
        <time>2017-10-23T08:30:35Z</time>
      </trkpt>
      <trkpt lat="43.77954" lon="6.99657">
        <ele>989.1</ele>
        <time>2017-10-23T08:30:42Z</time>
      </trkpt>
      <trkpt lat="43.77959" lon="6.99661">
        <ele>989.1</ele>
        <time>2017-10-23T08:30:46Z</time>
      </trkpt>
      <trkpt lat="43.77959" lon="6.99661">
        <ele>992.6</ele>
        <time>2017-10-23T08:30:56Z</time>
      </trkpt>
      <trkpt lat="43.77977" lon="6.99663">
        <ele>988</ele>
        <time>2017-10-23T08:31:03Z</time>
      </trkpt>
      <trkpt lat="43.77977" lon="6.99663">
        <ele>994.1</ele>
        <time>2017-10-23T08:31:13Z</time>
      </trkpt>
      <trkpt lat="43.77989" lon="6.99651">
        <ele>987.9</ele>
        <time>2017-10-23T08:31:14Z</time>
      </trkpt>
      <trkpt lat="43.77998" lon="6.99646">
        <ele>987.9</ele>
        <time>2017-10-23T08:31:21Z</time>
      </trkpt>
      <trkpt lat="43.77998" lon="6.99646">
        <ele>993.3</ele>
        <time>2017-10-23T08:31:30Z</time>
      </trkpt>
      <trkpt lat="43.78012" lon="6.99635">
        <ele>987.9</ele>
        <time>2017-10-23T08:31:34Z</time>
      </trkpt>
      <trkpt lat="43.78023" lon="6.99623">
        <ele>988</ele>
        <time>2017-10-23T08:31:43Z</time>
      </trkpt>
      <trkpt lat="43.78036" lon="6.99614">
        <ele>988</ele>
        <time>2017-10-23T08:31:51Z</time>
      </trkpt>
      <trkpt lat="43.78046" lon="6.99606">
        <ele>988</ele>
        <time>2017-10-23T08:31:58Z</time>
      </trkpt>
      <trkpt lat="43.78054" lon="6.99598">
        <ele>987.9</ele>
        <time>2017-10-23T08:32:03Z</time>
      </trkpt>
      <trkpt lat="43.78061" lon="6.99589">
        <ele>987.8</ele>
        <time>2017-10-23T08:32:10Z</time>
      </trkpt>
      <trkpt lat="43.78072" lon="6.99576">
        <ele>985.6</ele>
        <time>2017-10-23T08:32:20Z</time>
      </trkpt>
      <trkpt lat="43.78072" lon="6.99576">
        <ele>985.1</ele>
        <time>2017-10-23T08:32:29Z</time>
      </trkpt>
      <trkpt lat="43.78081" lon="6.99561">
        <ele>984.8</ele>
        <time>2017-10-23T08:32:32Z</time>
      </trkpt>
      <trkpt lat="43.78086" lon="6.99558">
        <ele>984.5</ele>
        <time>2017-10-23T08:32:36Z</time>
      </trkpt>
      <trkpt lat="43.7809" lon="6.99554">
        <ele>984.5</ele>
        <time>2017-10-23T08:32:40Z</time>
      </trkpt>
      <trkpt lat="43.78095" lon="6.99549">
        <ele>983.8</ele>
        <time>2017-10-23T08:32:45Z</time>
      </trkpt>
      <trkpt lat="43.78098" lon="6.99544">
        <ele>983.8</ele>
        <time>2017-10-23T08:32:48Z</time>
      </trkpt>
      <trkpt lat="43.78102" lon="6.99539">
        <ele>983.2</ele>
        <time>2017-10-23T08:32:53Z</time>
      </trkpt>
      <trkpt lat="43.78102" lon="6.99539">
        <ele>980.8</ele>
        <time>2017-10-23T08:33:02Z</time>
      </trkpt>
      <trkpt lat="43.78113" lon="6.99526">
        <ele>978.6</ele>
        <time>2017-10-23T08:33:03Z</time>
      </trkpt>
      <trkpt lat="43.78113" lon="6.99526">
        <ele>979.1</ele>
        <time>2017-10-23T08:33:12Z</time>
      </trkpt>
      <trkpt lat="43.78124" lon="6.99513">
        <ele>974.8</ele>
        <time>2017-10-23T08:33:13Z</time>
      </trkpt>
      <trkpt lat="43.78128" lon="6.99508">
        <ele>974.6</ele>
        <time>2017-10-23T08:33:16Z</time>
      </trkpt>
      <trkpt lat="43.78128" lon="6.99508">
        <ele>978.6</ele>
        <time>2017-10-23T08:33:27Z</time>
      </trkpt>
      <trkpt lat="43.78144" lon="6.99494">
        <ele>974.6</ele>
        <time>2017-10-23T08:33:34Z</time>
      </trkpt>
      <trkpt lat="43.78154" lon="6.99486">
        <ele>974.8</ele>
        <time>2017-10-23T08:33:41Z</time>
      </trkpt>
      <trkpt lat="43.78154" lon="6.99486">
        <ele>977.7</ele>
        <time>2017-10-23T08:33:50Z</time>
      </trkpt>
      <trkpt lat="43.78167" lon="6.99477">
        <ele>975.6</ele>
        <time>2017-10-23T08:33:52Z</time>
      </trkpt>
      <trkpt lat="43.7818" lon="6.9947">
        <ele>976.3</ele>
        <time>2017-10-23T08:34:00Z</time>
      </trkpt>
      <trkpt lat="43.78188" lon="6.99463">
        <ele>976.5</ele>
        <time>2017-10-23T08:34:06Z</time>
      </trkpt>
      <trkpt lat="43.78193" lon="6.99458">
        <ele>976.7</ele>
        <time>2017-10-23T08:34:10Z</time>
      </trkpt>
      <trkpt lat="43.78197" lon="6.99455">
        <ele>976.8</ele>
        <time>2017-10-23T08:34:14Z</time>
      </trkpt>
      <trkpt lat="43.78206" lon="6.99438">
        <ele>976.9</ele>
        <time>2017-10-23T08:34:24Z</time>
      </trkpt>
      <trkpt lat="43.78208" lon="6.99424">
        <ele>976.9</ele>
        <time>2017-10-23T08:34:30Z</time>
      </trkpt>
      <trkpt lat="43.7821" lon="6.99411">
        <ele>976.6</ele>
        <time>2017-10-23T08:34:35Z</time>
      </trkpt>
      <trkpt lat="43.78209" lon="6.99393">
        <ele>976.1</ele>
        <time>2017-10-23T08:34:44Z</time>
      </trkpt>
      <trkpt lat="43.78209" lon="6.99393">
        <ele>973.4</ele>
        <time>2017-10-23T08:34:54Z</time>
      </trkpt>
      <trkpt lat="43.78213" lon="6.99369">
        <ele>974.2</ele>
        <time>2017-10-23T08:35:00Z</time>
      </trkpt>
      <trkpt lat="43.78211" lon="6.99362">
        <ele>973.7</ele>
        <time>2017-10-23T08:35:05Z</time>
      </trkpt>
      <trkpt lat="43.78212" lon="6.99355">
        <ele>973.3</ele>
        <time>2017-10-23T08:35:09Z</time>
      </trkpt>
      <trkpt lat="43.78212" lon="6.99355">
        <ele>974.8</ele>
        <time>2017-10-23T08:35:20Z</time>
      </trkpt>
      <trkpt lat="43.78215" lon="6.99336">
        <ele>971.7</ele>
        <time>2017-10-23T08:35:23Z</time>
      </trkpt>
      <trkpt lat="43.78217" lon="6.9933">
        <ele>970.9</ele>
        <time>2017-10-23T08:35:27Z</time>
      </trkpt>
      <trkpt lat="43.78217" lon="6.9933">
        <ele>975.6</ele>
        <time>2017-10-23T08:35:38Z</time>
      </trkpt>
      <trkpt lat="43.78217" lon="6.9933">
        <ele>975.6</ele>
        <time>2017-10-23T08:35:47Z</time>
      </trkpt>
      <trkpt lat="43.78231" lon="6.99297">
        <ele>968.8</ele>
        <time>2017-10-23T08:35:49Z</time>
      </trkpt>
      <trkpt lat="43.78235" lon="6.99285">
        <ele>968</ele>
        <time>2017-10-23T08:35:55Z</time>
      </trkpt>
      <trkpt lat="43.78241" lon="6.99268">
        <ele>967.1</ele>
        <time>2017-10-23T08:36:06Z</time>
      </trkpt>
      <trkpt lat="43.78243" lon="6.99262">
        <ele>966.9</ele>
        <time>2017-10-23T08:36:10Z</time>
      </trkpt>
      <trkpt lat="43.78246" lon="6.99257">
        <ele>966.6</ele>
        <time>2017-10-23T08:36:14Z</time>
      </trkpt>
      <trkpt lat="43.78247" lon="6.99249">
        <ele>966.4</ele>
        <time>2017-10-23T08:36:18Z</time>
      </trkpt>
      <trkpt lat="43.7825" lon="6.99229">
        <ele>965.7</ele>
        <time>2017-10-23T08:36:27Z</time>
      </trkpt>
      <trkpt lat="43.7825" lon="6.99229">
        <ele>973.7</ele>
        <time>2017-10-23T08:36:36Z</time>
      </trkpt>
      <trkpt lat="43.78255" lon="6.99211">
        <ele>963.3</ele>
        <time>2017-10-23T08:36:38Z</time>
      </trkpt>
      <trkpt lat="43.78259" lon="6.99199">
        <ele>962.2</ele>
        <time>2017-10-23T08:36:44Z</time>
      </trkpt>
      <trkpt lat="43.78264" lon="6.99188">
        <ele>960.6</ele>
        <time>2017-10-23T08:36:51Z</time>
      </trkpt>
      <trkpt lat="43.78269" lon="6.99177">
        <ele>960.1</ele>
        <time>2017-10-23T08:36:57Z</time>
      </trkpt>
      <trkpt lat="43.78275" lon="6.99168">
        <ele>958.4</ele>
        <time>2017-10-23T08:37:05Z</time>
      </trkpt>
      <trkpt lat="43.78275" lon="6.99168">
        <ele>968</ele>
        <time>2017-10-23T08:37:14Z</time>
      </trkpt>
      <trkpt lat="43.78275" lon="6.99168">
        <ele>968</ele>
        <time>2017-10-23T08:37:25Z</time>
      </trkpt>
      <trkpt lat="43.78291" lon="6.99158">
        <ele>957.5</ele>
        <time>2017-10-23T08:37:28Z</time>
      </trkpt>
      <trkpt lat="43.78291" lon="6.99158">
        <ele>968.6</ele>
        <time>2017-10-23T08:37:28Z</time>
      </trkpt>
      <trkpt lat="43.78291" lon="6.99158">
        <ele>968.6</ele>
        <time>2017-10-23T08:37:44Z</time>
      </trkpt>
      <trkpt lat="43.78273" lon="6.99167">
        <ele>957.5</ele>
        <time>2017-10-23T08:37:44Z</time>
      </trkpt>
      <trkpt lat="43.78273" lon="6.99167">
        <ele>967.4</ele>
        <time>2017-10-23T08:37:53Z</time>
      </trkpt>
      <trkpt lat="43.78261" lon="6.99179">
        <ele>957.5</ele>
        <time>2017-10-23T08:37:58Z</time>
      </trkpt>
      <trkpt lat="43.7826" lon="6.99182">
        <ele>958.4</ele>
        <time>2017-10-23T08:38:03Z</time>
      </trkpt>
      <trkpt lat="43.7826" lon="6.99182">
        <ele>968.5</ele>
        <time>2017-10-23T08:38:03Z</time>
      </trkpt>
      <trkpt lat="43.7826" lon="6.99182">
        <ele>968.5</ele>
        <time>2017-10-23T08:39:30Z</time>
      </trkpt>
      <trkpt lat="43.78245" lon="6.99183">
        <ele>964.5</ele>
        <time>2017-10-23T08:39:30Z</time>
      </trkpt>
      <trkpt lat="43.78239" lon="6.99182">
        <ele>964.5</ele>
        <time>2017-10-23T08:39:34Z</time>
      </trkpt>
      <trkpt lat="43.78233" lon="6.99181">
        <ele>964.5</ele>
        <time>2017-10-23T08:39:37Z</time>
      </trkpt>
      <trkpt lat="43.78227" lon="6.99183">
        <ele>964.5</ele>
        <time>2017-10-23T08:39:41Z</time>
      </trkpt>
      <trkpt lat="43.78217" lon="6.99185">
        <ele>963.9</ele>
        <time>2017-10-23T08:39:49Z</time>
      </trkpt>
      <trkpt lat="43.78217" lon="6.99185">
        <ele>963.8</ele>
        <time>2017-10-23T08:39:59Z</time>
      </trkpt>
      <trkpt lat="43.78205" lon="6.99184">
        <ele>963.4</ele>
        <time>2017-10-23T08:40:00Z</time>
      </trkpt>
      <trkpt lat="43.78205" lon="6.99184">
        <ele>962.9</ele>
        <time>2017-10-23T08:40:09Z</time>
      </trkpt>
      <trkpt lat="43.78205" lon="6.99184">
        <ele>962.9</ele>
        <time>2017-10-23T08:40:18Z</time>
      </trkpt>
      <trkpt lat="43.78188" lon="6.99173">
        <ele>962.1</ele>
        <time>2017-10-23T08:40:20Z</time>
      </trkpt>
      <trkpt lat="43.78188" lon="6.99173">
        <ele>958.7</ele>
        <time>2017-10-23T08:40:29Z</time>
      </trkpt>
      <trkpt lat="43.78187" lon="6.99163">
        <ele>949.7</ele>
        <time>2017-10-23T08:40:30Z</time>
      </trkpt>
      <trkpt lat="43.78187" lon="6.99163">
        <ele>956.2</ele>
        <time>2017-10-23T08:40:30Z</time>
      </trkpt>
      <trkpt lat="43.78187" lon="6.99163">
        <ele>956.2</ele>
        <time>2017-10-23T08:40:49Z</time>
      </trkpt>
      <trkpt lat="43.78182" lon="6.99142">
        <ele>951.5</ele>
        <time>2017-10-23T08:40:49Z</time>
      </trkpt>
      <trkpt lat="43.78182" lon="6.99142">
        <ele>952</ele>
        <time>2017-10-23T08:40:58Z</time>
      </trkpt>
      <trkpt lat="43.78182" lon="6.99142">
        <ele>952</ele>
        <time>2017-10-23T08:41:08Z</time>
      </trkpt>
      <trkpt lat="43.7818" lon="6.99108">
        <ele>947.1</ele>
        <time>2017-10-23T08:41:09Z</time>
      </trkpt>
      <trkpt lat="43.7818" lon="6.99108">
        <ele>950.5</ele>
        <time>2017-10-23T08:41:18Z</time>
      </trkpt>
      <trkpt lat="43.78179" lon="6.99086">
        <ele>939</ele>
        <time>2017-10-23T08:41:20Z</time>
      </trkpt>
      <trkpt lat="43.78179" lon="6.99086">
        <ele>950.1</ele>
        <time>2017-10-23T08:41:29Z</time>
      </trkpt>
      <trkpt lat="43.78179" lon="6.99086">
        <ele>950.1</ele>
        <time>2017-10-23T08:41:40Z</time>
      </trkpt>
      <trkpt lat="43.78168" lon="6.9907">
        <ele>941.4</ele>
        <time>2017-10-23T08:41:43Z</time>
      </trkpt>
      <trkpt lat="43.78168" lon="6.9907">
        <ele>948.6</ele>
        <time>2017-10-23T08:41:43Z</time>
      </trkpt>
      <trkpt lat="43.78168" lon="6.9907">
        <ele>948.6</ele>
        <time>2017-10-23T08:42:16Z</time>
      </trkpt>
      <trkpt lat="43.78159" lon="6.99033">
        <ele>940.8</ele>
        <time>2017-10-23T08:42:17Z</time>
      </trkpt>
      <trkpt lat="43.78174" lon="6.99067">
        <ele>941.7</ele>
        <time>2017-10-23T08:42:21Z</time>
      </trkpt>
      <trkpt lat="43.78172" lon="6.9907">
        <ele>942.5</ele>
        <time>2017-10-23T08:42:22Z</time>
      </trkpt>
      <trkpt lat="43.7817" lon="6.99068">
        <ele>940.3</ele>
        <time>2017-10-23T08:42:25Z</time>
      </trkpt>
      <trkpt lat="43.7817" lon="6.99068">
        <ele>948.7</ele>
        <time>2017-10-23T08:42:25Z</time>
      </trkpt>
      <trkpt lat="43.7817" lon="6.99068">
        <ele>948.7</ele>
        <time>2017-10-23T08:43:04Z</time>
      </trkpt>
      <trkpt lat="43.78181" lon="6.99044">
        <ele>943.7</ele>
        <time>2017-10-23T08:43:04Z</time>
      </trkpt>
      <trkpt lat="43.78179" lon="6.9903">
        <ele>943.2</ele>
        <time>2017-10-23T08:43:10Z</time>
      </trkpt>
      <trkpt lat="43.7818" lon="6.99023">
        <ele>942.9</ele>
        <time>2017-10-23T08:43:14Z</time>
      </trkpt>
      <trkpt lat="43.7818" lon="6.99023">
        <ele>948.1</ele>
        <time>2017-10-23T08:43:25Z</time>
      </trkpt>
      <trkpt lat="43.78186" lon="6.99006">
        <ele>941.8</ele>
        <time>2017-10-23T08:43:28Z</time>
      </trkpt>
      <trkpt lat="43.78186" lon="6.99006">
        <ele>948.3</ele>
        <time>2017-10-23T08:43:37Z</time>
      </trkpt>
      <trkpt lat="43.78186" lon="6.99006">
        <ele>948.3</ele>
        <time>2017-10-23T08:43:46Z</time>
      </trkpt>
      <trkpt lat="43.78196" lon="6.98977">
        <ele>934.9</ele>
        <time>2017-10-23T08:43:47Z</time>
      </trkpt>
      <trkpt lat="43.78196" lon="6.98977">
        <ele>944.9</ele>
        <time>2017-10-23T08:43:56Z</time>
      </trkpt>
      <trkpt lat="43.78203" lon="6.98966">
        <ele>932.8</ele>
        <time>2017-10-23T08:43:57Z</time>
      </trkpt>
      <trkpt lat="43.78205" lon="6.9896">
        <ele>932.8</ele>
        <time>2017-10-23T08:44:02Z</time>
      </trkpt>
      <trkpt lat="43.78205" lon="6.9896">
        <ele>942.3</ele>
        <time>2017-10-23T08:44:11Z</time>
      </trkpt>
      <trkpt lat="43.78219" lon="6.98941">
        <ele>932.7</ele>
        <time>2017-10-23T08:44:17Z</time>
      </trkpt>
      <trkpt lat="43.78219" lon="6.98941">
        <ele>941.1</ele>
        <time>2017-10-23T08:44:27Z</time>
      </trkpt>
      <trkpt lat="43.78229" lon="6.98926">
        <ele>932.5</ele>
        <time>2017-10-23T08:44:31Z</time>
      </trkpt>
      <trkpt lat="43.78229" lon="6.98926">
        <ele>940.9</ele>
        <time>2017-10-23T08:44:40Z</time>
      </trkpt>
      <trkpt lat="43.78237" lon="6.98908">
        <ele>930.8</ele>
        <time>2017-10-23T08:44:43Z</time>
      </trkpt>
      <trkpt lat="43.78238" lon="6.98897">
        <ele>928.2</ele>
        <time>2017-10-23T08:44:49Z</time>
      </trkpt>
      <trkpt lat="43.78238" lon="6.98889">
        <ele>928.2</ele>
        <time>2017-10-23T08:44:53Z</time>
      </trkpt>
      <trkpt lat="43.78239" lon="6.98881">
        <ele>927.4</ele>
        <time>2017-10-23T08:44:57Z</time>
      </trkpt>
      <trkpt lat="43.78237" lon="6.98874">
        <ele>925.5</ele>
        <time>2017-10-23T08:45:00Z</time>
      </trkpt>
      <trkpt lat="43.78237" lon="6.98867">
        <ele>925.5</ele>
        <time>2017-10-23T08:45:03Z</time>
      </trkpt>
      <trkpt lat="43.78238" lon="6.98861">
        <ele>923.1</ele>
        <time>2017-10-23T08:45:07Z</time>
      </trkpt>
      <trkpt lat="43.78238" lon="6.98861">
        <ele>931.7</ele>
        <time>2017-10-23T08:45:17Z</time>
      </trkpt>
      <trkpt lat="43.78244" lon="6.98837">
        <ele>919.3</ele>
        <time>2017-10-23T08:45:21Z</time>
      </trkpt>
      <trkpt lat="43.78246" lon="6.9883">
        <ele>918.7</ele>
        <time>2017-10-23T08:45:27Z</time>
      </trkpt>
      <trkpt lat="43.78246" lon="6.9883">
        <ele>931</ele>
        <time>2017-10-23T08:45:36Z</time>
      </trkpt>
      <trkpt lat="43.78251" lon="6.98806">
        <ele>917.5</ele>
        <time>2017-10-23T08:45:44Z</time>
      </trkpt>
      <trkpt lat="43.78252" lon="6.98805">
        <ele>917.3</ele>
        <time>2017-10-23T08:45:45Z</time>
      </trkpt>
      <trkpt lat="43.78252" lon="6.98805">
        <ele>929.6</ele>
        <time>2017-10-23T08:45:47Z</time>
      </trkpt>
      <trkpt lat="43.78252" lon="6.98805">
        <ele>929.6</ele>
        <time>2017-10-23T08:46:13Z</time>
      </trkpt>
      <trkpt lat="43.78259" lon="6.98781">
        <ele>914.5</ele>
        <time>2017-10-23T08:46:13Z</time>
      </trkpt>
      <trkpt lat="43.78261" lon="6.98774">
        <ele>912.6</ele>
        <time>2017-10-23T08:46:18Z</time>
      </trkpt>
      <trkpt lat="43.78268" lon="6.98758">
        <ele>911.9</ele>
        <time>2017-10-23T08:46:29Z</time>
      </trkpt>
      <trkpt lat="43.78268" lon="6.98758">
        <ele>929.5</ele>
        <time>2017-10-23T08:46:38Z</time>
      </trkpt>
      <trkpt lat="43.78271" lon="6.98736">
        <ele>909.1</ele>
        <time>2017-10-23T08:46:43Z</time>
      </trkpt>
      <trkpt lat="43.78274" lon="6.98724">
        <ele>908.8</ele>
        <time>2017-10-23T08:46:50Z</time>
      </trkpt>
      <trkpt lat="43.78275" lon="6.98717">
        <ele>908.4</ele>
        <time>2017-10-23T08:46:54Z</time>
      </trkpt>
      <trkpt lat="43.78275" lon="6.9871">
        <ele>907.7</ele>
        <time>2017-10-23T08:46:57Z</time>
      </trkpt>
      <trkpt lat="43.78278" lon="6.9869">
        <ele>903.7</ele>
        <time>2017-10-23T08:47:07Z</time>
      </trkpt>
      <trkpt lat="43.7828" lon="6.98677">
        <ele>899.2</ele>
        <time>2017-10-23T08:47:15Z</time>
      </trkpt>
      <trkpt lat="43.78281" lon="6.98671">
        <ele>896.2</ele>
        <time>2017-10-23T08:47:19Z</time>
      </trkpt>
      <trkpt lat="43.78286" lon="6.98658">
        <ele>894.2</ele>
        <time>2017-10-23T08:47:27Z</time>
      </trkpt>
      <trkpt lat="43.78286" lon="6.98658">
        <ele>921.4</ele>
        <time>2017-10-23T08:47:36Z</time>
      </trkpt>
      <trkpt lat="43.78288" lon="6.98639">
        <ele>891.9</ele>
        <time>2017-10-23T08:47:38Z</time>
      </trkpt>
      <trkpt lat="43.78288" lon="6.98639">
        <ele>918.5</ele>
        <time>2017-10-23T08:47:47Z</time>
      </trkpt>
      <trkpt lat="43.78294" lon="6.98621">
        <ele>890.1</ele>
        <time>2017-10-23T08:47:52Z</time>
      </trkpt>
      <trkpt lat="43.78294" lon="6.9862">
        <ele>889.4</ele>
        <time>2017-10-23T08:47:53Z</time>
      </trkpt>
      <trkpt lat="43.78293" lon="6.98618">
        <ele>885</ele>
        <time>2017-10-23T08:47:56Z</time>
      </trkpt>
      <trkpt lat="43.78293" lon="6.98618">
        <ele>917.1</ele>
        <time>2017-10-23T08:47:56Z</time>
      </trkpt>
      <trkpt lat="43.78293" lon="6.98618">
        <ele>917.1</ele>
        <time>2017-10-23T08:48:59Z</time>
      </trkpt>
      <trkpt lat="43.78276" lon="6.98609">
        <ele>890.4</ele>
        <time>2017-10-23T08:48:59Z</time>
      </trkpt>
      <trkpt lat="43.78276" lon="6.98609">
        <ele>912.3</ele>
        <time>2017-10-23T08:49:08Z</time>
      </trkpt>
      <trkpt lat="43.78261" lon="6.98614">
        <ele>890.1</ele>
        <time>2017-10-23T08:49:10Z</time>
      </trkpt>
      <trkpt lat="43.78248" lon="6.98619">
        <ele>889.8</ele>
        <time>2017-10-23T08:49:18Z</time>
      </trkpt>
      <trkpt lat="43.78241" lon="6.98621">
        <ele>889.6</ele>
        <time>2017-10-23T08:49:21Z</time>
      </trkpt>
      <trkpt lat="43.78236" lon="6.98623">
        <ele>889.6</ele>
        <time>2017-10-23T08:49:23Z</time>
      </trkpt>
      <trkpt lat="43.78232" lon="6.98626">
        <ele>889.6</ele>
        <time>2017-10-23T08:49:25Z</time>
      </trkpt>
      <trkpt lat="43.78227" lon="6.98627">
        <ele>889.6</ele>
        <time>2017-10-23T08:49:29Z</time>
      </trkpt>
      <trkpt lat="43.78222" lon="6.98628">
        <ele>889.6</ele>
        <time>2017-10-23T08:49:33Z</time>
      </trkpt>
      <trkpt lat="43.78217" lon="6.98627">
        <ele>889.6</ele>
        <time>2017-10-23T08:49:37Z</time>
      </trkpt>
      <trkpt lat="43.78212" lon="6.98624">
        <ele>889.8</ele>
        <time>2017-10-23T08:49:40Z</time>
      </trkpt>
      <trkpt lat="43.78208" lon="6.98621">
        <ele>890</ele>
        <time>2017-10-23T08:49:44Z</time>
      </trkpt>
      <trkpt lat="43.78208" lon="6.98621">
        <ele>896.3</ele>
        <time>2017-10-23T08:49:55Z</time>
      </trkpt>
      <trkpt lat="43.78193" lon="6.98624">
        <ele>892.3</ele>
        <time>2017-10-23T08:49:59Z</time>
      </trkpt>
      <trkpt lat="43.78188" lon="6.98626">
        <ele>892.3</ele>
        <time>2017-10-23T08:50:02Z</time>
      </trkpt>
      <trkpt lat="43.78188" lon="6.98626">
        <ele>895.5</ele>
        <time>2017-10-23T08:50:11Z</time>
      </trkpt>
      <trkpt lat="43.78175" lon="6.98635">
        <ele>892.7</ele>
        <time>2017-10-23T08:50:13Z</time>
      </trkpt>
      <trkpt lat="43.78175" lon="6.98635">
        <ele>896.4</ele>
        <time>2017-10-23T08:50:22Z</time>
      </trkpt>
      <trkpt lat="43.7816" lon="6.98655">
        <ele>892.7</ele>
        <time>2017-10-23T08:50:28Z</time>
      </trkpt>
      <trkpt lat="43.78155" lon="6.98667">
        <ele>892.5</ele>
        <time>2017-10-23T08:50:35Z</time>
      </trkpt>
      <trkpt lat="43.78155" lon="6.98667">
        <ele>897.2</ele>
        <time>2017-10-23T08:50:44Z</time>
      </trkpt>
      <trkpt lat="43.78155" lon="6.98667">
        <ele>897.2</ele>
        <time>2017-10-23T08:50:53Z</time>
      </trkpt>
      <trkpt lat="43.78141" lon="6.98708">
        <ele>892.1</ele>
        <time>2017-10-23T08:51:00Z</time>
      </trkpt>
      <trkpt lat="43.78132" lon="6.98723">
        <ele>891.4</ele>
        <time>2017-10-23T08:51:08Z</time>
      </trkpt>
      <trkpt lat="43.78124" lon="6.98729">
        <ele>891.4</ele>
        <time>2017-10-23T08:51:14Z</time>
      </trkpt>
      <trkpt lat="43.78119" lon="6.98728">
        <ele>891.4</ele>
        <time>2017-10-23T08:51:18Z</time>
      </trkpt>
      <trkpt lat="43.78114" lon="6.98725">
        <ele>891.7</ele>
        <time>2017-10-23T08:51:22Z</time>
      </trkpt>
      <trkpt lat="43.78109" lon="6.98722">
        <ele>892.1</ele>
        <time>2017-10-23T08:51:27Z</time>
      </trkpt>
      <trkpt lat="43.78099" lon="6.98721">
        <ele>892</ele>
        <time>2017-10-23T08:51:34Z</time>
      </trkpt>
      <trkpt lat="43.78094" lon="6.98726">
        <ele>891.2</ele>
        <time>2017-10-23T08:51:38Z</time>
      </trkpt>
      <trkpt lat="43.78092" lon="6.98739">
        <ele>891</ele>
        <time>2017-10-23T08:51:46Z</time>
      </trkpt>
      <trkpt lat="43.78087" lon="6.98752">
        <ele>890.5</ele>
        <time>2017-10-23T08:51:54Z</time>
      </trkpt>
      <trkpt lat="43.78083" lon="6.98755">
        <ele>890.4</ele>
        <time>2017-10-23T08:51:58Z</time>
      </trkpt>
      <trkpt lat="43.78078" lon="6.98757">
        <ele>890.4</ele>
        <time>2017-10-23T08:52:02Z</time>
      </trkpt>
      <trkpt lat="43.78074" lon="6.9876">
        <ele>890.4</ele>
        <time>2017-10-23T08:52:05Z</time>
      </trkpt>
      <trkpt lat="43.78069" lon="6.98764">
        <ele>890.4</ele>
        <time>2017-10-23T08:52:10Z</time>
      </trkpt>
      <trkpt lat="43.78064" lon="6.98766">
        <ele>890.1</ele>
        <time>2017-10-23T08:52:14Z</time>
      </trkpt>
      <trkpt lat="43.78052" lon="6.98775">
        <ele>889.1</ele>
        <time>2017-10-23T08:52:25Z</time>
      </trkpt>
      <trkpt lat="43.78052" lon="6.98775">
        <ele>888.1</ele>
        <time>2017-10-23T08:52:34Z</time>
      </trkpt>
      <trkpt lat="43.78032" lon="6.98787">
        <ele>887.7</ele>
        <time>2017-10-23T08:52:41Z</time>
      </trkpt>
      <trkpt lat="43.78029" lon="6.98792">
        <ele>887.3</ele>
        <time>2017-10-23T08:52:45Z</time>
      </trkpt>
      <trkpt lat="43.78023" lon="6.98803">
        <ele>887.2</ele>
        <time>2017-10-23T08:52:52Z</time>
      </trkpt>
      <trkpt lat="43.78023" lon="6.98803">
        <ele>885.8</ele>
        <time>2017-10-23T08:53:01Z</time>
      </trkpt>
      <trkpt lat="43.78014" lon="6.98831">
        <ele>885.7</ele>
        <time>2017-10-23T08:53:06Z</time>
      </trkpt>
      <trkpt lat="43.78011" lon="6.98837">
        <ele>882.5</ele>
        <time>2017-10-23T08:53:09Z</time>
      </trkpt>
      <trkpt lat="43.78007" lon="6.98855">
        <ele>880.1</ele>
        <time>2017-10-23T08:53:19Z</time>
      </trkpt>
      <trkpt lat="43.78002" lon="6.98867">
        <ele>877.8</ele>
        <time>2017-10-23T08:53:25Z</time>
      </trkpt>
      <trkpt lat="43.78002" lon="6.98867">
        <ele>879.3</ele>
        <time>2017-10-23T08:53:35Z</time>
      </trkpt>
      <trkpt lat="43.77995" lon="6.98883">
        <ele>877.6</ele>
        <time>2017-10-23T08:53:37Z</time>
      </trkpt>
      <trkpt lat="43.7799" lon="6.98888">
        <ele>877.6</ele>
        <time>2017-10-23T08:53:42Z</time>
      </trkpt>
      <trkpt lat="43.7799" lon="6.98888">
        <ele>877.8</ele>
        <time>2017-10-23T08:53:51Z</time>
      </trkpt>
      <trkpt lat="43.77979" lon="6.98901">
        <ele>877.6</ele>
        <time>2017-10-23T08:53:53Z</time>
      </trkpt>
      <trkpt lat="43.77979" lon="6.98901">
        <ele>877.2</ele>
        <time>2017-10-23T08:54:02Z</time>
      </trkpt>
      <trkpt lat="43.77966" lon="6.98913">
        <ele>878.1</ele>
        <time>2017-10-23T08:54:07Z</time>
      </trkpt>
      <trkpt lat="43.77957" lon="6.98919">
        <ele>878.2</ele>
        <time>2017-10-23T08:54:14Z</time>
      </trkpt>
      <trkpt lat="43.77952" lon="6.98923">
        <ele>878.2</ele>
        <time>2017-10-23T08:54:19Z</time>
      </trkpt>
      <trkpt lat="43.77942" lon="6.98925">
        <ele>878.2</ele>
        <time>2017-10-23T08:54:27Z</time>
      </trkpt>
      <trkpt lat="43.77936" lon="6.98927">
        <ele>878</ele>
        <time>2017-10-23T08:54:31Z</time>
      </trkpt>
      <trkpt lat="43.77931" lon="6.9893">
        <ele>878</ele>
        <time>2017-10-23T08:54:34Z</time>
      </trkpt>
      <trkpt lat="43.77927" lon="6.98934">
        <ele>877.3</ele>
        <time>2017-10-23T08:54:38Z</time>
      </trkpt>
      <trkpt lat="43.77923" lon="6.98936">
        <ele>877.3</ele>
        <time>2017-10-23T08:54:42Z</time>
      </trkpt>
      <trkpt lat="43.77917" lon="6.98937">
        <ele>876.2</ele>
        <time>2017-10-23T08:54:47Z</time>
      </trkpt>
      <trkpt lat="43.77917" lon="6.98937">
        <ele>879.7</ele>
        <time>2017-10-23T08:54:56Z</time>
      </trkpt>
      <trkpt lat="43.77904" lon="6.98944">
        <ele>876.1</ele>
        <time>2017-10-23T08:54:59Z</time>
      </trkpt>
      <trkpt lat="43.77895" lon="6.98945">
        <ele>876.1</ele>
        <time>2017-10-23T08:55:04Z</time>
      </trkpt>
      <trkpt lat="43.77886" lon="6.98949">
        <ele>876</ele>
        <time>2017-10-23T08:55:12Z</time>
      </trkpt>
      <trkpt lat="43.77886" lon="6.98949">
        <ele>880.8</ele>
        <time>2017-10-23T08:55:21Z</time>
      </trkpt>
      <trkpt lat="43.77877" lon="6.98963">
        <ele>875.8</ele>
        <time>2017-10-23T08:55:22Z</time>
      </trkpt>
      <trkpt lat="43.77872" lon="6.98968">
        <ele>875.8</ele>
        <time>2017-10-23T08:55:27Z</time>
      </trkpt>
      <trkpt lat="43.77868" lon="6.98971">
        <ele>875.8</ele>
        <time>2017-10-23T08:55:30Z</time>
      </trkpt>
      <trkpt lat="43.77868" lon="6.98971">
        <ele>879.9</ele>
        <time>2017-10-23T08:55:40Z</time>
      </trkpt>
      <trkpt lat="43.77855" lon="6.98981">
        <ele>874.9</ele>
        <time>2017-10-23T08:55:41Z</time>
      </trkpt>
      <trkpt lat="43.77847" lon="6.98987">
        <ele>871.4</ele>
        <time>2017-10-23T08:55:48Z</time>
      </trkpt>
      <trkpt lat="43.77842" lon="6.98989">
        <ele>869.1</ele>
        <time>2017-10-23T08:55:52Z</time>
      </trkpt>
      <trkpt lat="43.77836" lon="6.99">
        <ele>868.4</ele>
        <time>2017-10-23T08:56:00Z</time>
      </trkpt>
      <trkpt lat="43.77834" lon="6.99005">
        <ele>868.1</ele>
        <time>2017-10-23T08:56:04Z</time>
      </trkpt>
      <trkpt lat="43.7783" lon="6.9901">
        <ele>868.1</ele>
        <time>2017-10-23T08:56:08Z</time>
      </trkpt>
      <trkpt lat="43.77823" lon="6.99021">
        <ele>868</ele>
        <time>2017-10-23T08:56:16Z</time>
      </trkpt>
      <trkpt lat="43.7782" lon="6.99034">
        <ele>867.5</ele>
        <time>2017-10-23T08:56:22Z</time>
      </trkpt>
      <trkpt lat="43.7782" lon="6.99034">
        <ele>878.2</ele>
        <time>2017-10-23T08:56:32Z</time>
      </trkpt>
      <trkpt lat="43.77811" lon="6.99051">
        <ele>866.5</ele>
        <time>2017-10-23T08:56:33Z</time>
      </trkpt>
      <trkpt lat="43.77801" lon="6.99055">
        <ele>866.5</ele>
        <time>2017-10-23T08:56:41Z</time>
      </trkpt>
      <trkpt lat="43.77796" lon="6.99055">
        <ele>866.6</ele>
        <time>2017-10-23T08:56:45Z</time>
      </trkpt>
      <trkpt lat="43.77791" lon="6.99054">
        <ele>866.6</ele>
        <time>2017-10-23T08:56:49Z</time>
      </trkpt>
      <trkpt lat="43.77791" lon="6.99054">
        <ele>878.7</ele>
        <time>2017-10-23T08:56:59Z</time>
      </trkpt>
      <trkpt lat="43.77778" lon="6.99062">
        <ele>866.6</ele>
        <time>2017-10-23T08:57:00Z</time>
      </trkpt>
      <trkpt lat="43.77774" lon="6.99067">
        <ele>866.6</ele>
        <time>2017-10-23T08:57:03Z</time>
      </trkpt>
      <trkpt lat="43.77774" lon="6.99067">
        <ele>879.4</ele>
        <time>2017-10-23T08:57:12Z</time>
      </trkpt>
      <trkpt lat="43.77765" lon="6.99075">
        <ele>868.8</ele>
        <time>2017-10-23T08:57:13Z</time>
      </trkpt>
      <trkpt lat="43.77762" lon="6.99082">
        <ele>868.8</ele>
        <time>2017-10-23T08:57:17Z</time>
      </trkpt>
      <trkpt lat="43.7776" lon="6.99095">
        <ele>868.9</ele>
        <time>2017-10-23T08:57:25Z</time>
      </trkpt>
      <trkpt lat="43.7776" lon="6.99095">
        <ele>878.7</ele>
        <time>2017-10-23T08:57:34Z</time>
      </trkpt>
      <trkpt lat="43.77751" lon="6.99114">
        <ele>868.9</ele>
        <time>2017-10-23T08:57:38Z</time>
      </trkpt>
      <trkpt lat="43.77751" lon="6.99114">
        <ele>878.6</ele>
        <time>2017-10-23T08:57:49Z</time>
      </trkpt>
      <trkpt lat="43.77737" lon="6.99126">
        <ele>866.8</ele>
        <time>2017-10-23T08:57:53Z</time>
      </trkpt>
      <trkpt lat="43.77738" lon="6.9914">
        <ele>866</ele>
        <time>2017-10-23T08:58:04Z</time>
      </trkpt>
      <trkpt lat="43.77739" lon="6.99147">
        <ele>865.3</ele>
        <time>2017-10-23T08:58:08Z</time>
      </trkpt>
      <trkpt lat="43.77738" lon="6.99154">
        <ele>864.7</ele>
        <time>2017-10-23T08:58:13Z</time>
      </trkpt>
      <trkpt lat="43.77737" lon="6.99162">
        <ele>864.4</ele>
        <time>2017-10-23T08:58:17Z</time>
      </trkpt>
      <trkpt lat="43.77728" lon="6.9917">
        <ele>863.6</ele>
        <time>2017-10-23T08:58:25Z</time>
      </trkpt>
      <trkpt lat="43.77728" lon="6.9917">
        <ele>874.5</ele>
        <time>2017-10-23T08:58:36Z</time>
      </trkpt>
      <trkpt lat="43.77717" lon="6.99183">
        <ele>861.9</ele>
        <time>2017-10-23T08:58:38Z</time>
      </trkpt>
      <trkpt lat="43.77717" lon="6.99183">
        <ele>872.6</ele>
        <time>2017-10-23T08:58:47Z</time>
      </trkpt>
      <trkpt lat="43.77711" lon="6.99201">
        <ele>854.3</ele>
        <time>2017-10-23T08:58:53Z</time>
      </trkpt>
      <trkpt lat="43.77709" lon="6.99208">
        <ele>852.6</ele>
        <time>2017-10-23T08:58:58Z</time>
      </trkpt>
      <trkpt lat="43.77707" lon="6.99213">
        <ele>851.6</ele>
        <time>2017-10-23T08:59:02Z</time>
      </trkpt>
      <trkpt lat="43.77706" lon="6.9922">
        <ele>851.6</ele>
        <time>2017-10-23T08:59:06Z</time>
      </trkpt>
      <trkpt lat="43.77707" lon="6.99235">
        <ele>850.7</ele>
        <time>2017-10-23T08:59:13Z</time>
      </trkpt>
      <trkpt lat="43.77705" lon="6.99247">
        <ele>850.6</ele>
        <time>2017-10-23T08:59:19Z</time>
      </trkpt>
      <trkpt lat="43.77704" lon="6.9926">
        <ele>850.4</ele>
        <time>2017-10-23T08:59:27Z</time>
      </trkpt>
      <trkpt lat="43.77704" lon="6.99268">
        <ele>850.2</ele>
        <time>2017-10-23T08:59:31Z</time>
      </trkpt>
      <trkpt lat="43.77705" lon="6.99275">
        <ele>850.2</ele>
        <time>2017-10-23T08:59:34Z</time>
      </trkpt>
      <trkpt lat="43.77702" lon="6.9929">
        <ele>850.1</ele>
        <time>2017-10-23T08:59:43Z</time>
      </trkpt>
      <trkpt lat="43.77701" lon="6.99297">
        <ele>847.1</ele>
        <time>2017-10-23T08:59:47Z</time>
      </trkpt>
      <trkpt lat="43.77698" lon="6.99302">
        <ele>847.1</ele>
        <time>2017-10-23T08:59:51Z</time>
      </trkpt>
      <trkpt lat="43.7769" lon="6.99319">
        <ele>846.4</ele>
        <time>2017-10-23T08:59:59Z</time>
      </trkpt>
      <trkpt lat="43.77684" lon="6.99329">
        <ele>846.3</ele>
        <time>2017-10-23T09:00:04Z</time>
      </trkpt>
      <trkpt lat="43.77678" lon="6.99339">
        <ele>846.1</ele>
        <time>2017-10-23T09:00:12Z</time>
      </trkpt>
      <trkpt lat="43.77678" lon="6.99339">
        <ele>862.8</ele>
        <time>2017-10-23T09:00:21Z</time>
      </trkpt>
      <trkpt lat="43.77674" lon="6.99354">
        <ele>845.8</ele>
        <time>2017-10-23T09:00:22Z</time>
      </trkpt>
      <trkpt lat="43.77674" lon="6.99362">
        <ele>845.8</ele>
        <time>2017-10-23T09:00:26Z</time>
      </trkpt>
      <trkpt lat="43.77674" lon="6.99363">
        <ele>845.8</ele>
        <time>2017-10-23T09:00:27Z</time>
      </trkpt>
      <trkpt lat="43.77673" lon="6.99366">
        <ele>849.1</ele>
        <time>2017-10-23T09:00:32Z</time>
      </trkpt>
      <trkpt lat="43.77673" lon="6.99366">
        <ele>863.2</ele>
        <time>2017-10-23T09:00:32Z</time>
      </trkpt>
      <trkpt lat="43.77673" lon="6.99366">
        <ele>863.2</ele>
        <time>2017-10-23T09:01:10Z</time>
      </trkpt>
      <trkpt lat="43.77657" lon="6.99376">
        <ele>850.7</ele>
        <time>2017-10-23T09:01:10Z</time>
      </trkpt>
      <trkpt lat="43.77657" lon="6.99376">
        <ele>860.4</ele>
        <time>2017-10-23T09:01:19Z</time>
      </trkpt>
      <trkpt lat="43.77657" lon="6.99376">
        <ele>860.4</ele>
        <time>2017-10-23T09:01:28Z</time>
      </trkpt>
      <trkpt lat="43.77642" lon="6.99359">
        <ele>854.3</ele>
        <time>2017-10-23T09:01:34Z</time>
      </trkpt>
      <trkpt lat="43.77642" lon="6.99359">
        <ele>857.5</ele>
        <time>2017-10-23T09:01:45Z</time>
      </trkpt>
      <trkpt lat="43.77632" lon="6.99355">
        <ele>855</ele>
        <time>2017-10-23T09:01:46Z</time>
      </trkpt>
      <trkpt lat="43.77627" lon="6.99356">
        <ele>855</ele>
        <time>2017-10-23T09:01:51Z</time>
      </trkpt>
      <trkpt lat="43.77627" lon="6.99356">
        <ele>856.8</ele>
        <time>2017-10-23T09:02:03Z</time>
      </trkpt>
      <trkpt lat="43.77613" lon="6.99355">
        <ele>855</ele>
        <time>2017-10-23T09:02:05Z</time>
      </trkpt>
      <trkpt lat="43.77613" lon="6.99355">
        <ele>856.7</ele>
        <time>2017-10-23T09:02:14Z</time>
      </trkpt>
      <trkpt lat="43.776" lon="6.99355">
        <ele>854.9</ele>
        <time>2017-10-23T09:02:16Z</time>
      </trkpt>
      <trkpt lat="43.776" lon="6.99355">
        <ele>858.6</ele>
        <time>2017-10-23T09:02:25Z</time>
      </trkpt>
      <trkpt lat="43.77587" lon="6.99361">
        <ele>854.1</ele>
        <time>2017-10-23T09:02:27Z</time>
      </trkpt>
      <trkpt lat="43.77587" lon="6.99361">
        <ele>859.6</ele>
        <time>2017-10-23T09:02:36Z</time>
      </trkpt>
      <trkpt lat="43.77568" lon="6.99365">
        <ele>853.4</ele>
        <time>2017-10-23T09:02:43Z</time>
      </trkpt>
      <trkpt lat="43.77568" lon="6.99365">
        <ele>863.5</ele>
        <time>2017-10-23T09:02:52Z</time>
      </trkpt>
      <trkpt lat="43.77568" lon="6.99365">
        <ele>863.5</ele>
        <time>2017-10-23T09:03:01Z</time>
      </trkpt>
      <trkpt lat="43.77548" lon="6.99373">
        <ele>848.2</ele>
        <time>2017-10-23T09:03:05Z</time>
      </trkpt>
      <trkpt lat="43.77548" lon="6.99373">
        <ele>866.2</ele>
        <time>2017-10-23T09:03:14Z</time>
      </trkpt>
      <trkpt lat="43.77539" lon="6.99382">
        <ele>847.5</ele>
        <time>2017-10-23T09:03:18Z</time>
      </trkpt>
      <trkpt lat="43.77539" lon="6.99382">
        <ele>865.7</ele>
        <time>2017-10-23T09:03:27Z</time>
      </trkpt>
      <trkpt lat="43.77531" lon="6.99386">
        <ele>847.1</ele>
        <time>2017-10-23T09:03:29Z</time>
      </trkpt>
      <trkpt lat="43.77526" lon="6.99399">
        <ele>846.8</ele>
        <time>2017-10-23T09:03:39Z</time>
      </trkpt>
      <trkpt lat="43.77526" lon="6.99399">
        <ele>864.2</ele>
        <time>2017-10-23T09:03:49Z</time>
      </trkpt>
      <trkpt lat="43.77518" lon="6.99416">
        <ele>846.2</ele>
        <time>2017-10-23T09:03:50Z</time>
      </trkpt>
      <trkpt lat="43.77516" lon="6.9942">
        <ele>846.2</ele>
        <time>2017-10-23T09:03:53Z</time>
      </trkpt>
      <trkpt lat="43.77516" lon="6.99425">
        <ele>841.9</ele>
        <time>2017-10-23T09:03:58Z</time>
      </trkpt>
      <trkpt lat="43.77516" lon="6.99425">
        <ele>861</ele>
        <time>2017-10-23T09:03:58Z</time>
      </trkpt>
      <trkpt lat="43.77516" lon="6.99425">
        <ele>861</ele>
        <time>2017-10-23T09:04:09Z</time>
      </trkpt>
      <trkpt lat="43.77522" lon="6.99447">
        <ele>844.1</ele>
        <time>2017-10-23T09:04:09Z</time>
      </trkpt>
      <trkpt lat="43.77527" lon="6.99464">
        <ele>844</ele>
        <time>2017-10-23T09:04:17Z</time>
      </trkpt>
      <trkpt lat="43.77525" lon="6.99477">
        <ele>843.8</ele>
        <time>2017-10-23T09:04:25Z</time>
      </trkpt>
      <trkpt lat="43.77525" lon="6.99477">
        <ele>855.1</ele>
        <time>2017-10-23T09:04:34Z</time>
      </trkpt>
      <trkpt lat="43.77514" lon="6.99492">
        <ele>843.4</ele>
        <time>2017-10-23T09:04:37Z</time>
      </trkpt>
      <trkpt lat="43.77509" lon="6.99496">
        <ele>843</ele>
        <time>2017-10-23T09:04:42Z</time>
      </trkpt>
      <trkpt lat="43.77506" lon="6.99501">
        <ele>843</ele>
        <time>2017-10-23T09:04:46Z</time>
      </trkpt>
      <trkpt lat="43.77502" lon="6.99506">
        <ele>843.3</ele>
        <time>2017-10-23T09:04:49Z</time>
      </trkpt>
      <trkpt lat="43.77498" lon="6.99509">
        <ele>843.3</ele>
        <time>2017-10-23T09:04:53Z</time>
      </trkpt>
      <trkpt lat="43.77498" lon="6.99509">
        <ele>854</ele>
        <time>2017-10-23T09:05:02Z</time>
      </trkpt>
      <trkpt lat="43.77483" lon="6.99526">
        <ele>844</ele>
        <time>2017-10-23T09:05:05Z</time>
      </trkpt>
      <trkpt lat="43.77478" lon="6.99531">
        <ele>844</ele>
        <time>2017-10-23T09:05:09Z</time>
      </trkpt>
      <trkpt lat="43.77478" lon="6.99531">
        <ele>852.5</ele>
        <time>2017-10-23T09:05:18Z</time>
      </trkpt>
      <trkpt lat="43.77466" lon="6.99541">
        <ele>844.7</ele>
        <time>2017-10-23T09:05:19Z</time>
      </trkpt>
      <trkpt lat="43.77459" lon="6.99549">
        <ele>847.6</ele>
        <time>2017-10-23T09:05:26Z</time>
      </trkpt>
      <trkpt lat="43.77456" lon="6.99556">
        <ele>847.6</ele>
        <time>2017-10-23T09:05:30Z</time>
      </trkpt>
      <trkpt lat="43.77456" lon="6.99556">
        <ele>851.4</ele>
        <time>2017-10-23T09:05:39Z</time>
      </trkpt>
      <trkpt lat="43.77446" lon="6.9957">
        <ele>849.3</ele>
        <time>2017-10-23T09:05:40Z</time>
      </trkpt>
      <trkpt lat="43.77446" lon="6.9957">
        <ele>851.7</ele>
        <time>2017-10-23T09:05:49Z</time>
      </trkpt>
      <trkpt lat="43.77429" lon="6.9959">
        <ele>850.2</ele>
        <time>2017-10-23T09:05:57Z</time>
      </trkpt>
      <trkpt lat="43.7742" lon="6.99597">
        <ele>850.7</ele>
        <time>2017-10-23T09:06:05Z</time>
      </trkpt>
      <trkpt lat="43.77415" lon="6.996">
        <ele>851.6</ele>
        <time>2017-10-23T09:06:09Z</time>
      </trkpt>
      <trkpt lat="43.7741" lon="6.99602">
        <ele>851.6</ele>
        <time>2017-10-23T09:06:12Z</time>
      </trkpt>
      <trkpt lat="43.7741" lon="6.99602">
        <ele>853.4</ele>
        <time>2017-10-23T09:06:21Z</time>
      </trkpt>
      <trkpt lat="43.77397" lon="6.99608">
        <ele>854.4</ele>
        <time>2017-10-23T09:06:22Z</time>
      </trkpt>
      <trkpt lat="43.77397" lon="6.99608">
        <ele>853.7</ele>
        <time>2017-10-23T09:06:31Z</time>
      </trkpt>
      <trkpt lat="43.77388" lon="6.99614">
        <ele>856.4</ele>
        <time>2017-10-23T09:06:33Z</time>
      </trkpt>
      <trkpt lat="43.77382" lon="6.99616">
        <ele>856.8</ele>
        <time>2017-10-23T09:06:38Z</time>
      </trkpt>
      <trkpt lat="43.77382" lon="6.99616">
        <ele>854.5</ele>
        <time>2017-10-23T09:06:47Z</time>
      </trkpt>
      <trkpt lat="43.77373" lon="6.99616">
        <ele>858.3</ele>
        <time>2017-10-23T09:06:48Z</time>
      </trkpt>
      <trkpt lat="43.77373" lon="6.99616">
        <ele>854.4</ele>
        <time>2017-10-23T09:07:00Z</time>
      </trkpt>
      <trkpt lat="43.77354" lon="6.99615">
        <ele>858.5</ele>
        <time>2017-10-23T09:07:07Z</time>
      </trkpt>
      <trkpt lat="43.77354" lon="6.99615">
        <ele>854.3</ele>
        <time>2017-10-23T09:07:16Z</time>
      </trkpt>
      <trkpt lat="43.77341" lon="6.99618">
        <ele>858.3</ele>
        <time>2017-10-23T09:07:18Z</time>
      </trkpt>
      <trkpt lat="43.77331" lon="6.9962">
        <ele>856.7</ele>
        <time>2017-10-23T09:07:25Z</time>
      </trkpt>
      <trkpt lat="43.77331" lon="6.9962">
        <ele>854.6</ele>
        <time>2017-10-23T09:07:34Z</time>
      </trkpt>
      <trkpt lat="43.77313" lon="6.99621">
        <ele>855.5</ele>
        <time>2017-10-23T09:07:37Z</time>
      </trkpt>
      <trkpt lat="43.77308" lon="6.99622">
        <ele>855.5</ele>
        <time>2017-10-23T09:07:41Z</time>
      </trkpt>
      <trkpt lat="43.77302" lon="6.99626">
        <ele>855.5</ele>
        <time>2017-10-23T09:07:46Z</time>
      </trkpt>
      <trkpt lat="43.77296" lon="6.99628">
        <ele>855.5</ele>
        <time>2017-10-23T09:07:50Z</time>
      </trkpt>
      <trkpt lat="43.77296" lon="6.99628">
        <ele>855.3</ele>
        <time>2017-10-23T09:07:59Z</time>
      </trkpt>
      <trkpt lat="43.77277" lon="6.99632">
        <ele>856.8</ele>
        <time>2017-10-23T09:08:05Z</time>
      </trkpt>
      <trkpt lat="43.77271" lon="6.99633">
        <ele>857.1</ele>
        <time>2017-10-23T09:08:09Z</time>
      </trkpt>
      <trkpt lat="43.77257" lon="6.9964">
        <ele>857.9</ele>
        <time>2017-10-23T09:08:19Z</time>
      </trkpt>
      <trkpt lat="43.77252" lon="6.99643">
        <ele>858.3</ele>
        <time>2017-10-23T09:08:23Z</time>
      </trkpt>
      <trkpt lat="43.77248" lon="6.99645">
        <ele>858.3</ele>
        <time>2017-10-23T09:08:27Z</time>
      </trkpt>
      <trkpt lat="43.77248" lon="6.99645">
        <ele>856.7</ele>
        <time>2017-10-23T09:08:36Z</time>
      </trkpt>
      <trkpt lat="43.77234" lon="6.9965">
        <ele>859.5</ele>
        <time>2017-10-23T09:08:42Z</time>
      </trkpt>
      <trkpt lat="43.77234" lon="6.9965">
        <ele>857.5</ele>
        <time>2017-10-23T09:08:55Z</time>
      </trkpt>
      <trkpt lat="43.7722" lon="6.99652">
        <ele>859.5</ele>
        <time>2017-10-23T09:08:59Z</time>
      </trkpt>
      <trkpt lat="43.77214" lon="6.99652">
        <ele>859.5</ele>
        <time>2017-10-23T09:09:05Z</time>
      </trkpt>
      <trkpt lat="43.77214" lon="6.99652">
        <ele>858</ele>
        <time>2017-10-23T09:09:15Z</time>
      </trkpt>
      <trkpt lat="43.772" lon="6.9965">
        <ele>855.9</ele>
        <time>2017-10-23T09:09:17Z</time>
      </trkpt>
      <trkpt lat="43.77191" lon="6.99648">
        <ele>855</ele>
        <time>2017-10-23T09:09:26Z</time>
      </trkpt>
      <trkpt lat="43.77186" lon="6.99648">
        <ele>855</ele>
        <time>2017-10-23T09:09:32Z</time>
      </trkpt>
      <trkpt lat="43.77186" lon="6.99648">
        <ele>858.5</ele>
        <time>2017-10-23T09:09:42Z</time>
      </trkpt>
      <trkpt lat="43.77173" lon="6.99644">
        <ele>854.9</ele>
        <time>2017-10-23T09:09:44Z</time>
      </trkpt>
      <trkpt lat="43.77173" lon="6.99644">
        <ele>859.5</ele>
        <time>2017-10-23T09:09:55Z</time>
      </trkpt>
      <trkpt lat="43.77173" lon="6.99644">
        <ele>859.5</ele>
        <time>2017-10-23T09:10:05Z</time>
      </trkpt>
      <trkpt lat="43.77173" lon="6.99644">
        <ele>859.5</ele>
        <time>2017-10-23T09:10:14Z</time>
      </trkpt>
      <trkpt lat="43.77142" lon="6.99647">
        <ele>855.6</ele>
        <time>2017-10-23T09:10:15Z</time>
      </trkpt>
      <trkpt lat="43.77142" lon="6.99647">
        <ele>862</ele>
        <time>2017-10-23T09:10:24Z</time>
      </trkpt>
      <trkpt lat="43.77123" lon="6.99648">
        <ele>856.8</ele>
        <time>2017-10-23T09:10:30Z</time>
      </trkpt>
      <trkpt lat="43.77119" lon="6.9965">
        <ele>856.9</ele>
        <time>2017-10-23T09:10:34Z</time>
      </trkpt>
      <trkpt lat="43.77109" lon="6.99653">
        <ele>857.2</ele>
        <time>2017-10-23T09:10:42Z</time>
      </trkpt>
      <trkpt lat="43.77104" lon="6.99653">
        <ele>857.9</ele>
        <time>2017-10-23T09:10:47Z</time>
      </trkpt>
      <trkpt lat="43.77099" lon="6.99656">
        <ele>858.1</ele>
        <time>2017-10-23T09:10:52Z</time>
      </trkpt>
      <trkpt lat="43.77094" lon="6.99659">
        <ele>859.7</ele>
        <time>2017-10-23T09:10:57Z</time>
      </trkpt>
      <trkpt lat="43.7709" lon="6.99663">
        <ele>860.4</ele>
        <time>2017-10-23T09:11:02Z</time>
      </trkpt>
      <trkpt lat="43.77088" lon="6.9967">
        <ele>860.4</ele>
        <time>2017-10-23T09:11:06Z</time>
      </trkpt>
      <trkpt lat="43.77088" lon="6.9967">
        <ele>862.2</ele>
        <time>2017-10-23T09:11:15Z</time>
      </trkpt>
      <trkpt lat="43.77084" lon="6.99688">
        <ele>857.5</ele>
        <time>2017-10-23T09:11:19Z</time>
      </trkpt>
      <trkpt lat="43.77084" lon="6.99688">
        <ele>862.1</ele>
        <time>2017-10-23T09:11:19Z</time>
      </trkpt>
      <trkpt lat="43.77084" lon="6.99688">
        <ele>862.1</ele>
        <time>2017-10-23T09:20:47Z</time>
      </trkpt>
      <trkpt lat="43.77095" lon="6.9971">
        <ele>857.4</ele>
        <time>2017-10-23T09:20:47Z</time>
      </trkpt>
      <trkpt lat="43.77095" lon="6.9971">
        <ele>863</ele>
        <time>2017-10-23T09:20:57Z</time>
      </trkpt>
      <trkpt lat="43.77098" lon="6.99729">
        <ele>857.1</ele>
        <time>2017-10-23T09:20:59Z</time>
      </trkpt>
      <trkpt lat="43.77098" lon="6.9973">
        <ele>857.3</ele>
        <time>2017-10-23T09:21:00Z</time>
      </trkpt>
      <trkpt lat="43.77098" lon="6.99731">
        <ele>858.1</ele>
        <time>2017-10-23T09:21:03Z</time>
      </trkpt>
      <trkpt lat="43.77098" lon="6.99731">
        <ele>864</ele>
        <time>2017-10-23T09:21:03Z</time>
      </trkpt>
      <trkpt lat="43.77098" lon="6.99731">
        <ele>864</ele>
        <time>2017-10-23T09:21:26Z</time>
      </trkpt>
      <trkpt lat="43.77116" lon="6.99742">
        <ele>859.2</ele>
        <time>2017-10-23T09:21:26Z</time>
      </trkpt>
      <trkpt lat="43.77116" lon="6.99742">
        <ele>865.9</ele>
        <time>2017-10-23T09:21:35Z</time>
      </trkpt>
      <trkpt lat="43.77119" lon="6.99745">
        <ele>859.3</ele>
        <time>2017-10-23T09:21:36Z</time>
      </trkpt>
      <trkpt lat="43.77119" lon="6.99745">
        <ele>866.1</ele>
        <time>2017-10-23T09:21:36Z</time>
      </trkpt>
      <trkpt lat="43.77119" lon="6.99745">
        <ele>866.1</ele>
        <time>2017-10-23T09:22:28Z</time>
      </trkpt>
      <trkpt lat="43.77107" lon="6.99724">
        <ele>860.5</ele>
        <time>2017-10-23T09:22:28Z</time>
      </trkpt>
      <trkpt lat="43.77102" lon="6.99724">
        <ele>861</ele>
        <time>2017-10-23T09:22:34Z</time>
      </trkpt>
      <trkpt lat="43.77102" lon="6.99724">
        <ele>864.1</ele>
        <time>2017-10-23T09:22:44Z</time>
      </trkpt>
      <trkpt lat="43.77094" lon="6.99717">
        <ele>861</ele>
        <time>2017-10-23T09:22:48Z</time>
      </trkpt>
      <trkpt lat="43.77092" lon="6.9971">
        <ele>861</ele>
        <time>2017-10-23T09:22:53Z</time>
      </trkpt>
      <trkpt lat="43.77089" lon="6.99701">
        <ele>861</ele>
        <time>2017-10-23T09:22:59Z</time>
      </trkpt>
      <trkpt lat="43.77089" lon="6.997">
        <ele>861.9</ele>
        <time>2017-10-23T09:23:04Z</time>
      </trkpt>
      <trkpt lat="43.77089" lon="6.997">
        <ele>862.5</ele>
        <time>2017-10-23T09:23:04Z</time>
      </trkpt>
      <trkpt lat="43.77089" lon="6.997">
        <ele>862.5</ele>
        <time>2017-10-23T09:25:53Z</time>
      </trkpt>
      <trkpt lat="43.77077" lon="6.99722">
        <ele>859.5</ele>
        <time>2017-10-23T09:25:53Z</time>
      </trkpt>
      <trkpt lat="43.77076" lon="6.99728">
        <ele>859.9</ele>
        <time>2017-10-23T09:25:57Z</time>
      </trkpt>
      <trkpt lat="43.77073" lon="6.99741">
        <ele>860.2</ele>
        <time>2017-10-23T09:26:06Z</time>
      </trkpt>
      <trkpt lat="43.7707" lon="6.99747">
        <ele>860.5</ele>
        <time>2017-10-23T09:26:10Z</time>
      </trkpt>
      <trkpt lat="43.77064" lon="6.99757">
        <ele>860.5</ele>
        <time>2017-10-23T09:26:17Z</time>
      </trkpt>
      <trkpt lat="43.77059" lon="6.9976">
        <ele>860.5</ele>
        <time>2017-10-23T09:26:23Z</time>
      </trkpt>
      <trkpt lat="43.77059" lon="6.9976">
        <ele>864.6</ele>
        <time>2017-10-23T09:26:34Z</time>
      </trkpt>
      <trkpt lat="43.77059" lon="6.9976">
        <ele>864.6</ele>
        <time>2017-10-23T09:26:45Z</time>
      </trkpt>
      <trkpt lat="43.77042" lon="6.99777">
        <ele>859.5</ele>
        <time>2017-10-23T09:26:46Z</time>
      </trkpt>
      <trkpt lat="43.77035" lon="6.99787">
        <ele>859.5</ele>
        <time>2017-10-23T09:26:55Z</time>
      </trkpt>
      <trkpt lat="43.77032" lon="6.99791">
        <ele>859.5</ele>
        <time>2017-10-23T09:27:02Z</time>
      </trkpt>
      <trkpt lat="43.77032" lon="6.99791">
        <ele>869.1</ele>
        <time>2017-10-23T09:27:11Z</time>
      </trkpt>
      <trkpt lat="43.77032" lon="6.99791">
        <ele>869.1</ele>
        <time>2017-10-23T09:27:20Z</time>
      </trkpt>
      <trkpt lat="43.77019" lon="6.9982">
        <ele>860.3</ele>
        <time>2017-10-23T09:27:25Z</time>
      </trkpt>
      <trkpt lat="43.77022" lon="6.99828">
        <ele>861.9</ele>
        <time>2017-10-23T09:27:32Z</time>
      </trkpt>
      <trkpt lat="43.77022" lon="6.99828">
        <ele>872.1</ele>
        <time>2017-10-23T09:27:41Z</time>
      </trkpt>
      <trkpt lat="43.77023" lon="6.99842">
        <ele>863.5</ele>
        <time>2017-10-23T09:27:43Z</time>
      </trkpt>
      <trkpt lat="43.77025" lon="6.99848">
        <ele>863.5</ele>
        <time>2017-10-23T09:27:48Z</time>
      </trkpt>
      <trkpt lat="43.77026" lon="6.99855">
        <ele>863.5</ele>
        <time>2017-10-23T09:27:53Z</time>
      </trkpt>
      <trkpt lat="43.77026" lon="6.99855">
        <ele>873.6</ele>
        <time>2017-10-23T09:28:03Z</time>
      </trkpt>
      <trkpt lat="43.77026" lon="6.99855">
        <ele>873.6</ele>
        <time>2017-10-23T09:28:12Z</time>
      </trkpt>
      <trkpt lat="43.77026" lon="6.99855">
        <ele>873.6</ele>
        <time>2017-10-23T09:28:23Z</time>
      </trkpt>
      <trkpt lat="43.77026" lon="6.99855">
        <ele>873.6</ele>
        <time>2017-10-23T09:28:33Z</time>
      </trkpt>
      <trkpt lat="43.77016" lon="6.99905">
        <ele>867.9</ele>
        <time>2017-10-23T09:28:38Z</time>
      </trkpt>
      <trkpt lat="43.77016" lon="6.99905">
        <ele>876.3</ele>
        <time>2017-10-23T09:28:48Z</time>
      </trkpt>
      <trkpt lat="43.7702" lon="6.99918">
        <ele>868.5</ele>
        <time>2017-10-23T09:28:49Z</time>
      </trkpt>
      <trkpt lat="43.7702" lon="6.99924">
        <ele>868.8</ele>
        <time>2017-10-23T09:28:54Z</time>
      </trkpt>
      <trkpt lat="43.77023" lon="6.99929">
        <ele>870.5</ele>
        <time>2017-10-23T09:28:59Z</time>
      </trkpt>
      <trkpt lat="43.77025" lon="6.99936">
        <ele>870.8</ele>
        <time>2017-10-23T09:29:04Z</time>
      </trkpt>
      <trkpt lat="43.77028" lon="6.99942">
        <ele>871.2</ele>
        <time>2017-10-23T09:29:10Z</time>
      </trkpt>
      <trkpt lat="43.77028" lon="6.99943">
        <ele>871.5</ele>
        <time>2017-10-23T09:29:11Z</time>
      </trkpt>
      <trkpt lat="43.77028" lon="6.99944">
        <ele>874.1</ele>
        <time>2017-10-23T09:29:16Z</time>
      </trkpt>
      <trkpt lat="43.77028" lon="6.99944">
        <ele>880</ele>
        <time>2017-10-23T09:29:16Z</time>
      </trkpt>
      <trkpt lat="43.77028" lon="6.99944">
        <ele>880</ele>
        <time>2017-10-23T09:30:42Z</time>
      </trkpt>
      <trkpt lat="43.77032" lon="6.9996">
        <ele>880.4</ele>
        <time>2017-10-23T09:30:42Z</time>
      </trkpt>
      <trkpt lat="43.77032" lon="6.9996">
        <ele>881.8</ele>
        <time>2017-10-23T09:30:51Z</time>
      </trkpt>
      <trkpt lat="43.77036" lon="6.99984">
        <ele>880</ele>
        <time>2017-10-23T09:30:58Z</time>
      </trkpt>
      <trkpt lat="43.77035" lon="6.99998">
        <ele>879.7</ele>
        <time>2017-10-23T09:31:06Z</time>
      </trkpt>
      <trkpt lat="43.77035" lon="6.99998">
        <ele>886.6</ele>
        <time>2017-10-23T09:31:16Z</time>
      </trkpt>
      <trkpt lat="43.77028" lon="7.00023">
        <ele>880.5</ele>
        <time>2017-10-23T09:31:23Z</time>
      </trkpt>
      <trkpt lat="43.7702" lon="7.00029">
        <ele>880.5</ele>
        <time>2017-10-23T09:31:30Z</time>
      </trkpt>
      <trkpt lat="43.77011" lon="7.00037">
        <ele>881.9</ele>
        <time>2017-10-23T09:31:40Z</time>
      </trkpt>
      <trkpt lat="43.77011" lon="7.00037">
        <ele>888.9</ele>
        <time>2017-10-23T09:31:49Z</time>
      </trkpt>
      <trkpt lat="43.77011" lon="7.00037">
        <ele>888.9</ele>
        <time>2017-10-23T09:31:58Z</time>
      </trkpt>
      <trkpt lat="43.76986" lon="7.00056">
        <ele>882.5</ele>
        <time>2017-10-23T09:32:03Z</time>
      </trkpt>
      <trkpt lat="43.76976" lon="7.0007">
        <ele>882.7</ele>
        <time>2017-10-23T09:32:14Z</time>
      </trkpt>
      <trkpt lat="43.76976" lon="7.0007">
        <ele>887.5</ele>
        <time>2017-10-23T09:32:23Z</time>
      </trkpt>
      <trkpt lat="43.76976" lon="7.0007">
        <ele>887.5</ele>
        <time>2017-10-23T09:32:32Z</time>
      </trkpt>
      <trkpt lat="43.76957" lon="7.00094">
        <ele>882.7</ele>
        <time>2017-10-23T09:32:36Z</time>
      </trkpt>
      <trkpt lat="43.76953" lon="7.00106">
        <ele>882.6</ele>
        <time>2017-10-23T09:32:43Z</time>
      </trkpt>
      <trkpt lat="43.76953" lon="7.00106">
        <ele>888.8</ele>
        <time>2017-10-23T09:32:53Z</time>
      </trkpt>
      <trkpt lat="43.76953" lon="7.00125">
        <ele>882.3</ele>
        <time>2017-10-23T09:32:54Z</time>
      </trkpt>
      <trkpt lat="43.76951" lon="7.00138">
        <ele>882.7</ele>
        <time>2017-10-23T09:33:02Z</time>
      </trkpt>
      <trkpt lat="43.76951" lon="7.00138">
        <ele>893.2</ele>
        <time>2017-10-23T09:33:11Z</time>
      </trkpt>
      <trkpt lat="43.76948" lon="7.00157">
        <ele>883.5</ele>
        <time>2017-10-23T09:33:18Z</time>
      </trkpt>
      <trkpt lat="43.76948" lon="7.00157">
        <ele>896.4</ele>
        <time>2017-10-23T09:33:27Z</time>
      </trkpt>
      <trkpt lat="43.76945" lon="7.00173">
        <ele>884.2</ele>
        <time>2017-10-23T09:33:30Z</time>
      </trkpt>
      <trkpt lat="43.76945" lon="7.00173">
        <ele>898.6</ele>
        <time>2017-10-23T09:33:39Z</time>
      </trkpt>
      <trkpt lat="43.76944" lon="7.00194">
        <ele>887.9</ele>
        <time>2017-10-23T09:33:45Z</time>
      </trkpt>
      <trkpt lat="43.76944" lon="7.00194">
        <ele>902.5</ele>
        <time>2017-10-23T09:33:58Z</time>
      </trkpt>
      <trkpt lat="43.76942" lon="7.00209">
        <ele>889.8</ele>
        <time>2017-10-23T09:33:59Z</time>
      </trkpt>
      <trkpt lat="43.76941" lon="7.00222">
        <ele>890.1</ele>
        <time>2017-10-23T09:34:08Z</time>
      </trkpt>
      <trkpt lat="43.76942" lon="7.00228">
        <ele>890.1</ele>
        <time>2017-10-23T09:34:13Z</time>
      </trkpt>
      <trkpt lat="43.76939" lon="7.00233">
        <ele>890.3</ele>
        <time>2017-10-23T09:34:18Z</time>
      </trkpt>
      <trkpt lat="43.76939" lon="7.00233">
        <ele>911.4</ele>
        <time>2017-10-23T09:34:27Z</time>
      </trkpt>
      <trkpt lat="43.76939" lon="7.00233">
        <ele>911.4</ele>
        <time>2017-10-23T09:34:36Z</time>
      </trkpt>
      <trkpt lat="43.76926" lon="7.00253">
        <ele>893.9</ele>
        <time>2017-10-23T09:34:37Z</time>
      </trkpt>
      <trkpt lat="43.76922" lon="7.00256">
        <ele>894.2</ele>
        <time>2017-10-23T09:34:42Z</time>
      </trkpt>
      <trkpt lat="43.76922" lon="7.00256">
        <ele>908.4</ele>
        <time>2017-10-23T09:34:51Z</time>
      </trkpt>
      <trkpt lat="43.76907" lon="7.00275">
        <ele>895.7</ele>
        <time>2017-10-23T09:34:59Z</time>
      </trkpt>
      <trkpt lat="43.76907" lon="7.00275">
        <ele>906.6</ele>
        <time>2017-10-23T09:35:08Z</time>
      </trkpt>
      <trkpt lat="43.76899" lon="7.00292">
        <ele>896.6</ele>
        <time>2017-10-23T09:35:12Z</time>
      </trkpt>
      <trkpt lat="43.76899" lon="7.00292">
        <ele>908.6</ele>
        <time>2017-10-23T09:35:21Z</time>
      </trkpt>
      <trkpt lat="43.76887" lon="7.00315">
        <ele>898.4</ele>
        <time>2017-10-23T09:35:31Z</time>
      </trkpt>
      <trkpt lat="43.76887" lon="7.00315">
        <ele>910.7</ele>
        <time>2017-10-23T09:35:41Z</time>
      </trkpt>
      <trkpt lat="43.76887" lon="7.00315">
        <ele>910.7</ele>
        <time>2017-10-23T09:35:50Z</time>
      </trkpt>
      <trkpt lat="43.76883" lon="7.00346">
        <ele>901.2</ele>
        <time>2017-10-23T09:35:57Z</time>
      </trkpt>
      <trkpt lat="43.76885" lon="7.00352">
        <ele>902.9</ele>
        <time>2017-10-23T09:36:03Z</time>
      </trkpt>
      <trkpt lat="43.76889" lon="7.00356">
        <ele>905.7</ele>
        <time>2017-10-23T09:36:09Z</time>
      </trkpt>
      <trkpt lat="43.76891" lon="7.00355">
        <ele>907</ele>
        <time>2017-10-23T09:36:10Z</time>
      </trkpt>
      <trkpt lat="43.76895" lon="7.00353">
        <ele>910.8</ele>
        <time>2017-10-23T09:36:15Z</time>
      </trkpt>
      <trkpt lat="43.76895" lon="7.00353">
        <ele>921.6</ele>
        <time>2017-10-23T09:36:15Z</time>
      </trkpt>
      <trkpt lat="43.76895" lon="7.00353">
        <ele>921.6</ele>
        <time>2017-10-23T09:36:33Z</time>
      </trkpt>
      <trkpt lat="43.76909" lon="7.00346">
        <ele>909.1</ele>
        <time>2017-10-23T09:36:33Z</time>
      </trkpt>
      <trkpt lat="43.7691" lon="7.00345">
        <ele>909.2</ele>
        <time>2017-10-23T09:36:34Z</time>
      </trkpt>
      <trkpt lat="43.76913" lon="7.00343">
        <ele>913.4</ele>
        <time>2017-10-23T09:36:38Z</time>
      </trkpt>
      <trkpt lat="43.76913" lon="7.00343">
        <ele>924.7</ele>
        <time>2017-10-23T09:36:38Z</time>
      </trkpt>
      <trkpt lat="43.76913" lon="7.00343">
        <ele>924.7</ele>
        <time>2017-10-23T09:37:04Z</time>
      </trkpt>
      <trkpt lat="43.7693" lon="7.00345">
        <ele>913.5</ele>
        <time>2017-10-23T09:37:05Z</time>
      </trkpt>
      <trkpt lat="43.7693" lon="7.00345">
        <ele>928.7</ele>
        <time>2017-10-23T09:37:14Z</time>
      </trkpt>
      <trkpt lat="43.7693" lon="7.00345">
        <ele>928.7</ele>
        <time>2017-10-23T09:37:23Z</time>
      </trkpt>
      <trkpt lat="43.7693" lon="7.00345">
        <ele>928.7</ele>
        <time>2017-10-23T09:37:32Z</time>
      </trkpt>
      <trkpt lat="43.76954" lon="7.00361">
        <ele>921</ele>
        <time>2017-10-23T09:37:37Z</time>
      </trkpt>
      <trkpt lat="43.76954" lon="7.00361">
        <ele>934.5</ele>
        <time>2017-10-23T09:37:50Z</time>
      </trkpt>
      <trkpt lat="43.76966" lon="7.00369">
        <ele>923</ele>
        <time>2017-10-23T09:37:53Z</time>
      </trkpt>
      <trkpt lat="43.76966" lon="7.00369">
        <ele>936.7</ele>
        <time>2017-10-23T09:38:04Z</time>
      </trkpt>
      <trkpt lat="43.76966" lon="7.00369">
        <ele>936.7</ele>
        <time>2017-10-23T09:38:14Z</time>
      </trkpt>
      <trkpt lat="43.7698" lon="7.00397">
        <ele>928.9</ele>
        <time>2017-10-23T09:38:17Z</time>
      </trkpt>
      <trkpt lat="43.76982" lon="7.00402">
        <ele>929</ele>
        <time>2017-10-23T09:38:23Z</time>
      </trkpt>
      <trkpt lat="43.76986" lon="7.00407">
        <ele>929.3</ele>
        <time>2017-10-23T09:38:28Z</time>
      </trkpt>
      <trkpt lat="43.76989" lon="7.00411">
        <ele>929.9</ele>
        <time>2017-10-23T09:38:32Z</time>
      </trkpt>
      <trkpt lat="43.7699" lon="7.00411">
        <ele>930.2</ele>
        <time>2017-10-23T09:38:33Z</time>
      </trkpt>
      <trkpt lat="43.76992" lon="7.00411">
        <ele>930.5</ele>
        <time>2017-10-23T09:38:37Z</time>
      </trkpt>
      <trkpt lat="43.76992" lon="7.00411">
        <ele>938.8</ele>
        <time>2017-10-23T09:38:37Z</time>
      </trkpt>
      <trkpt lat="43.76992" lon="7.00411">
        <ele>938.8</ele>
        <time>2017-10-23T09:38:54Z</time>
      </trkpt>
      <trkpt lat="43.77009" lon="7.00402">
        <ele>930.9</ele>
        <time>2017-10-23T09:38:54Z</time>
      </trkpt>
      <trkpt lat="43.77009" lon="7.00402">
        <ele>943</ele>
        <time>2017-10-23T09:39:03Z</time>
      </trkpt>
      <trkpt lat="43.77009" lon="7.00402">
        <ele>943</ele>
        <time>2017-10-23T09:39:13Z</time>
      </trkpt>
      <trkpt lat="43.77009" lon="7.00402">
        <ele>943</ele>
        <time>2017-10-23T09:39:23Z</time>
      </trkpt>
      <trkpt lat="43.77023" lon="7.00373">
        <ele>933.3</ele>
        <time>2017-10-23T09:39:25Z</time>
      </trkpt>
      <trkpt lat="43.77023" lon="7.00373">
        <ele>947.6</ele>
        <time>2017-10-23T09:39:38Z</time>
      </trkpt>
      <trkpt lat="43.77032" lon="7.00368">
        <ele>936.1</ele>
        <time>2017-10-23T09:39:41Z</time>
      </trkpt>
      <trkpt lat="43.77033" lon="7.00367">
        <ele>936.3</ele>
        <time>2017-10-23T09:39:42Z</time>
      </trkpt>
      <trkpt lat="43.77033" lon="7.00367">
        <ele>943.8</ele>
        <time>2017-10-23T09:39:45Z</time>
      </trkpt>
      <trkpt lat="43.77033" lon="7.00367">
        <ele>950</ele>
        <time>2017-10-23T09:39:45Z</time>
      </trkpt>
      <trkpt lat="43.77033" lon="7.00367">
        <ele>950</ele>
        <time>2017-10-23T09:40:14Z</time>
      </trkpt>
      <trkpt lat="43.77051" lon="7.00362">
        <ele>943.5</ele>
        <time>2017-10-23T09:40:14Z</time>
      </trkpt>
      <trkpt lat="43.77051" lon="7.00362">
        <ele>953.4</ele>
        <time>2017-10-23T09:40:23Z</time>
      </trkpt>
      <trkpt lat="43.77059" lon="7.00359">
        <ele>949.2</ele>
        <time>2017-10-23T09:40:28Z</time>
      </trkpt>
      <trkpt lat="43.77059" lon="7.00359">
        <ele>955.6</ele>
        <time>2017-10-23T09:40:28Z</time>
      </trkpt>
      <trkpt lat="43.77059" lon="7.00359">
        <ele>955.6</ele>
        <time>2017-10-23T09:40:47Z</time>
      </trkpt>
      <trkpt lat="43.77075" lon="7.00351">
        <ele>947.2</ele>
        <time>2017-10-23T09:40:47Z</time>
      </trkpt>
      <trkpt lat="43.77075" lon="7.00351">
        <ele>960.5</ele>
        <time>2017-10-23T09:40:56Z</time>
      </trkpt>
      <trkpt lat="43.77086" lon="7.00347">
        <ele>949.9</ele>
        <time>2017-10-23T09:41:00Z</time>
      </trkpt>
      <trkpt lat="43.77091" lon="7.00345">
        <ele>952.7</ele>
        <time>2017-10-23T09:41:05Z</time>
      </trkpt>
      <trkpt lat="43.77091" lon="7.00345">
        <ele>963.4</ele>
        <time>2017-10-23T09:41:17Z</time>
      </trkpt>
      <trkpt lat="43.77102" lon="7.00335">
        <ele>953.3</ele>
        <time>2017-10-23T09:41:20Z</time>
      </trkpt>
      <trkpt lat="43.77102" lon="7.00335">
        <ele>964.3</ele>
        <time>2017-10-23T09:41:29Z</time>
      </trkpt>
      <trkpt lat="43.77115" lon="7.00324">
        <ele>955.4</ele>
        <time>2017-10-23T09:41:33Z</time>
      </trkpt>
      <trkpt lat="43.77115" lon="7.00324">
        <ele>965</ele>
        <time>2017-10-23T09:41:43Z</time>
      </trkpt>
      <trkpt lat="43.77131" lon="7.00312">
        <ele>956.6</ele>
        <time>2017-10-23T09:41:51Z</time>
      </trkpt>
      <trkpt lat="43.77136" lon="7.00316">
        <ele>957.1</ele>
        <time>2017-10-23T09:41:55Z</time>
      </trkpt>
      <trkpt lat="43.77136" lon="7.00316">
        <ele>965.9</ele>
        <time>2017-10-23T09:42:05Z</time>
      </trkpt>
      <trkpt lat="43.77136" lon="7.00316">
        <ele>965.9</ele>
        <time>2017-10-23T09:42:17Z</time>
      </trkpt>
      <trkpt lat="43.77136" lon="7.00316">
        <ele>965.9</ele>
        <time>2017-10-23T09:42:26Z</time>
      </trkpt>
      <trkpt lat="43.7717" lon="7.00323">
        <ele>959.8</ele>
        <time>2017-10-23T09:42:30Z</time>
      </trkpt>
      <trkpt lat="43.77174" lon="7.0032">
        <ele>960</ele>
        <time>2017-10-23T09:42:35Z</time>
      </trkpt>
      <trkpt lat="43.77178" lon="7.00317">
        <ele>960.1</ele>
        <time>2017-10-23T09:42:39Z</time>
      </trkpt>
      <trkpt lat="43.77183" lon="7.00314">
        <ele>960.2</ele>
        <time>2017-10-23T09:42:44Z</time>
      </trkpt>
      <trkpt lat="43.77187" lon="7.00311">
        <ele>960.5</ele>
        <time>2017-10-23T09:42:48Z</time>
      </trkpt>
      <trkpt lat="43.77195" lon="7.00305">
        <ele>960.6</ele>
        <time>2017-10-23T09:42:56Z</time>
      </trkpt>
      <trkpt lat="43.77204" lon="7.00304">
        <ele>961.6</ele>
        <time>2017-10-23T09:43:03Z</time>
      </trkpt>
      <trkpt lat="43.77209" lon="7.00302">
        <ele>962.6</ele>
        <time>2017-10-23T09:43:09Z</time>
      </trkpt>
      <trkpt lat="43.77209" lon="7.00302">
        <ele>975.4</ele>
        <time>2017-10-23T09:43:18Z</time>
      </trkpt>
      <trkpt lat="43.77228" lon="7.00291">
        <ele>964.7</ele>
        <time>2017-10-23T09:43:27Z</time>
      </trkpt>
      <trkpt lat="43.77232" lon="7.00287">
        <ele>964.7</ele>
        <time>2017-10-23T09:43:32Z</time>
      </trkpt>
      <trkpt lat="43.77236" lon="7.00285">
        <ele>964.7</ele>
        <time>2017-10-23T09:43:37Z</time>
      </trkpt>
      <trkpt lat="43.77246" lon="7.00284">
        <ele>964.8</ele>
        <time>2017-10-23T09:43:45Z</time>
      </trkpt>
      <trkpt lat="43.77251" lon="7.00282">
        <ele>964.8</ele>
        <time>2017-10-23T09:43:52Z</time>
      </trkpt>
      <trkpt lat="43.77251" lon="7.00282">
        <ele>979.5</ele>
        <time>2017-10-23T09:44:03Z</time>
      </trkpt>
      <trkpt lat="43.77251" lon="7.00282">
        <ele>979.5</ele>
        <time>2017-10-23T09:44:12Z</time>
      </trkpt>
      <trkpt lat="43.77274" lon="7.00289">
        <ele>965.2</ele>
        <time>2017-10-23T09:44:15Z</time>
      </trkpt>
      <trkpt lat="43.77282" lon="7.00304">
        <ele>966.8</ele>
        <time>2017-10-23T09:44:23Z</time>
      </trkpt>
      <trkpt lat="43.77282" lon="7.00304">
        <ele>982.2</ele>
        <time>2017-10-23T09:44:32Z</time>
      </trkpt>
      <trkpt lat="43.77282" lon="7.00304">
        <ele>982.2</ele>
        <time>2017-10-23T09:44:41Z</time>
      </trkpt>
      <trkpt lat="43.77295" lon="7.00331">
        <ele>967.3</ele>
        <time>2017-10-23T09:44:47Z</time>
      </trkpt>
      <trkpt lat="43.77295" lon="7.00331">
        <ele>987.1</ele>
        <time>2017-10-23T09:44:59Z</time>
      </trkpt>
      <trkpt lat="43.77304" lon="7.00346">
        <ele>967.6</ele>
        <time>2017-10-23T09:45:02Z</time>
      </trkpt>
      <trkpt lat="43.77304" lon="7.00353">
        <ele>967.9</ele>
        <time>2017-10-23T09:45:11Z</time>
      </trkpt>
      <trkpt lat="43.77302" lon="7.00358">
        <ele>968.4</ele>
        <time>2017-10-23T09:45:17Z</time>
      </trkpt>
      <trkpt lat="43.77302" lon="7.00358">
        <ele>994</ele>
        <time>2017-10-23T09:45:26Z</time>
      </trkpt>
      <trkpt lat="43.77302" lon="7.00358">
        <ele>994</ele>
        <time>2017-10-23T09:45:37Z</time>
      </trkpt>
      <trkpt lat="43.77302" lon="7.00358">
        <ele>994</ele>
        <time>2017-10-23T09:45:46Z</time>
      </trkpt>
      <trkpt lat="43.77302" lon="7.00358">
        <ele>994</ele>
        <time>2017-10-23T09:45:56Z</time>
      </trkpt>
      <trkpt lat="43.77272" lon="7.00392">
        <ele>982.5</ele>
        <time>2017-10-23T09:45:57Z</time>
      </trkpt>
      <trkpt lat="43.77267" lon="7.00389">
        <ele>983.4</ele>
        <time>2017-10-23T09:46:02Z</time>
      </trkpt>
      <trkpt lat="43.7726" lon="7.00389">
        <ele>984</ele>
        <time>2017-10-23T09:46:09Z</time>
      </trkpt>
      <trkpt lat="43.77255" lon="7.00387">
        <ele>984</ele>
        <time>2017-10-23T09:46:12Z</time>
      </trkpt>
      <trkpt lat="43.77249" lon="7.00389">
        <ele>984.3</ele>
        <time>2017-10-23T09:46:20Z</time>
      </trkpt>
      <trkpt lat="43.77244" lon="7.0039">
        <ele>985.1</ele>
        <time>2017-10-23T09:46:23Z</time>
      </trkpt>
      <trkpt lat="43.77244" lon="7.0039">
        <ele>994.6</ele>
        <time>2017-10-23T09:46:34Z</time>
      </trkpt>
      <trkpt lat="43.77221" lon="7.00399">
        <ele>987.2</ele>
        <time>2017-10-23T09:46:43Z</time>
      </trkpt>
      <trkpt lat="43.77221" lon="7.00399">
        <ele>996.6</ele>
        <time>2017-10-23T09:46:52Z</time>
      </trkpt>
      <trkpt lat="43.77221" lon="7.00399">
        <ele>996.6</ele>
        <time>2017-10-23T09:47:01Z</time>
      </trkpt>
      <trkpt lat="43.77199" lon="7.0041">
        <ele>988.7</ele>
        <time>2017-10-23T09:47:03Z</time>
      </trkpt>
      <trkpt lat="43.77199" lon="7.0041">
        <ele>995.2</ele>
        <time>2017-10-23T09:47:12Z</time>
      </trkpt>
      <trkpt lat="43.77187" lon="7.00431">
        <ele>988.8</ele>
        <time>2017-10-23T09:47:16Z</time>
      </trkpt>
      <trkpt lat="43.77187" lon="7.00444">
        <ele>988.6</ele>
        <time>2017-10-23T09:47:25Z</time>
      </trkpt>
      <trkpt lat="43.77187" lon="7.00444">
        <ele>996.4</ele>
        <time>2017-10-23T09:47:34Z</time>
      </trkpt>
      <trkpt lat="43.77192" lon="7.00455">
        <ele>988.3</ele>
        <time>2017-10-23T09:47:38Z</time>
      </trkpt>
      <trkpt lat="43.77192" lon="7.00455">
        <ele>997.2</ele>
        <time>2017-10-23T09:47:47Z</time>
      </trkpt>
      <trkpt lat="43.77192" lon="7.00455">
        <ele>997.2</ele>
        <time>2017-10-23T09:47:56Z</time>
      </trkpt>
      <trkpt lat="43.77206" lon="7.00478">
        <ele>987.5</ele>
        <time>2017-10-23T09:48:01Z</time>
      </trkpt>
      <trkpt lat="43.77206" lon="7.00484">
        <ele>987.1</ele>
        <time>2017-10-23T09:48:06Z</time>
      </trkpt>
      <trkpt lat="43.77211" lon="7.0049">
        <ele>987.1</ele>
        <time>2017-10-23T09:48:12Z</time>
      </trkpt>
      <trkpt lat="43.77214" lon="7.00496">
        <ele>987.1</ele>
        <time>2017-10-23T09:48:16Z</time>
      </trkpt>
      <trkpt lat="43.77214" lon="7.00496">
        <ele>1002.6</ele>
        <time>2017-10-23T09:48:26Z</time>
      </trkpt>
      <trkpt lat="43.77214" lon="7.00496">
        <ele>1002.6</ele>
        <time>2017-10-23T09:48:35Z</time>
      </trkpt>
      <trkpt lat="43.77223" lon="7.00514">
        <ele>987.3</ele>
        <time>2017-10-23T09:48:36Z</time>
      </trkpt>
      <trkpt lat="43.77225" lon="7.00519">
        <ele>987.4</ele>
        <time>2017-10-23T09:48:44Z</time>
      </trkpt>
      <trkpt lat="43.77225" lon="7.00519">
        <ele>1008.7</ele>
        <time>2017-10-23T09:48:53Z</time>
      </trkpt>
      <trkpt lat="43.77225" lon="7.00519">
        <ele>1008.7</ele>
        <time>2017-10-23T09:49:01Z</time>
      </trkpt>
      <trkpt lat="43.77234" lon="7.00529">
        <ele>988.5</ele>
        <time>2017-10-23T09:49:04Z</time>
      </trkpt>
      <trkpt lat="43.77234" lon="7.00529">
        <ele>1011.3</ele>
        <time>2017-10-23T09:49:13Z</time>
      </trkpt>
      <trkpt lat="43.77238" lon="7.00533">
        <ele>988.9</ele>
        <time>2017-10-23T09:49:14Z</time>
      </trkpt>
      <trkpt lat="43.77238" lon="7.00533">
        <ele>1012.2</ele>
        <time>2017-10-23T09:49:23Z</time>
      </trkpt>
      <trkpt lat="43.77243" lon="7.00542">
        <ele>993.2</ele>
        <time>2017-10-23T09:49:28Z</time>
      </trkpt>
      <trkpt lat="43.77243" lon="7.00542">
        <ele>1013.5</ele>
        <time>2017-10-23T09:49:39Z</time>
      </trkpt>
      <trkpt lat="43.77247" lon="7.00556">
        <ele>1000.8</ele>
        <time>2017-10-23T09:49:46Z</time>
      </trkpt>
      <trkpt lat="43.77247" lon="7.00556">
        <ele>1014.9</ele>
        <time>2017-10-23T09:49:59Z</time>
      </trkpt>
      <trkpt lat="43.7725" lon="7.00564">
        <ele>1007.7</ele>
        <time>2017-10-23T09:50:00Z</time>
      </trkpt>
      <trkpt lat="43.7725" lon="7.00564">
        <ele>1015.3</ele>
        <time>2017-10-23T09:50:00Z</time>
      </trkpt>
      <trkpt lat="43.7725" lon="7.00564">
        <ele>1015.3</ele>
        <time>2017-10-23T09:53:15Z</time>
      </trkpt>
      <trkpt lat="43.77258" lon="7.00585">
        <ele>1017.7</ele>
        <time>2017-10-23T09:53:15Z</time>
      </trkpt>
      <trkpt lat="43.77261" lon="7.0059">
        <ele>1017.8</ele>
        <time>2017-10-23T09:53:18Z</time>
      </trkpt>
      <trkpt lat="43.77261" lon="7.0059">
        <ele>1016.1</ele>
        <time>2017-10-23T09:53:31Z</time>
      </trkpt>
      <trkpt lat="43.77266" lon="7.00609">
        <ele>1017.6</ele>
        <time>2017-10-23T09:53:32Z</time>
      </trkpt>
      <trkpt lat="43.7727" lon="7.00613">
        <ele>1017.1</ele>
        <time>2017-10-23T09:53:38Z</time>
      </trkpt>
      <trkpt lat="43.77276" lon="7.00623">
        <ele>1016.6</ele>
        <time>2017-10-23T09:53:45Z</time>
      </trkpt>
      <trkpt lat="43.77278" lon="7.00628">
        <ele>1016.5</ele>
        <time>2017-10-23T09:53:48Z</time>
      </trkpt>
      <trkpt lat="43.77279" lon="7.00636">
        <ele>1015.9</ele>
        <time>2017-10-23T09:53:52Z</time>
      </trkpt>
      <trkpt lat="43.77279" lon="7.00636">
        <ele>1016.1</ele>
        <time>2017-10-23T09:54:02Z</time>
      </trkpt>
      <trkpt lat="43.77279" lon="7.00651">
        <ele>1014.9</ele>
        <time>2017-10-23T09:54:06Z</time>
      </trkpt>
      <trkpt lat="43.77278" lon="7.00659">
        <ele>1014.7</ele>
        <time>2017-10-23T09:54:11Z</time>
      </trkpt>
      <trkpt lat="43.77279" lon="7.00665">
        <ele>1014.3</ele>
        <time>2017-10-23T09:54:16Z</time>
      </trkpt>
      <trkpt lat="43.77283" lon="7.0067">
        <ele>1014.1</ele>
        <time>2017-10-23T09:54:21Z</time>
      </trkpt>
      <trkpt lat="43.77283" lon="7.0067">
        <ele>1016.3</ele>
        <time>2017-10-23T09:54:33Z</time>
      </trkpt>
      <trkpt lat="43.7729" lon="7.00687">
        <ele>1013.4</ele>
        <time>2017-10-23T09:54:34Z</time>
      </trkpt>
      <trkpt lat="43.7729" lon="7.00687">
        <ele>1016.1</ele>
        <time>2017-10-23T09:54:43Z</time>
      </trkpt>
      <trkpt lat="43.77294" lon="7.00701">
        <ele>1012.5</ele>
        <time>2017-10-23T09:54:44Z</time>
      </trkpt>
      <trkpt lat="43.77301" lon="7.00719">
        <ele>1009.9</ele>
        <time>2017-10-23T09:54:54Z</time>
      </trkpt>
      <trkpt lat="43.77306" lon="7.00729">
        <ele>1006.6</ele>
        <time>2017-10-23T09:55:02Z</time>
      </trkpt>
      <trkpt lat="43.77306" lon="7.00729">
        <ele>1015.3</ele>
        <time>2017-10-23T09:55:11Z</time>
      </trkpt>
      <trkpt lat="43.77306" lon="7.00729">
        <ele>1015.3</ele>
        <time>2017-10-23T09:55:21Z</time>
      </trkpt>
      <trkpt lat="43.7732" lon="7.0076">
        <ele>1003.4</ele>
        <time>2017-10-23T09:55:22Z</time>
      </trkpt>
      <trkpt lat="43.77325" lon="7.00772">
        <ele>1002.6</ele>
        <time>2017-10-23T09:55:28Z</time>
      </trkpt>
      <trkpt lat="43.77325" lon="7.00772">
        <ele>1017.6</ele>
        <time>2017-10-23T09:55:38Z</time>
      </trkpt>
      <trkpt lat="43.77325" lon="7.00772">
        <ele>1017.6</ele>
        <time>2017-10-23T09:55:47Z</time>
      </trkpt>
      <trkpt lat="43.77344" lon="7.00794">
        <ele>1002</ele>
        <time>2017-10-23T09:55:48Z</time>
      </trkpt>
      <trkpt lat="43.77346" lon="7.008">
        <ele>1002.2</ele>
        <time>2017-10-23T09:55:52Z</time>
      </trkpt>
      <trkpt lat="43.77346" lon="7.00807">
        <ele>1002.3</ele>
        <time>2017-10-23T09:55:59Z</time>
      </trkpt>
      <trkpt lat="43.77348" lon="7.00814">
        <ele>1002.5</ele>
        <time>2017-10-23T09:56:03Z</time>
      </trkpt>
      <trkpt lat="43.7735" lon="7.00821">
        <ele>1002.6</ele>
        <time>2017-10-23T09:56:07Z</time>
      </trkpt>
      <trkpt lat="43.77354" lon="7.00825">
        <ele>1002.6</ele>
        <time>2017-10-23T09:56:11Z</time>
      </trkpt>
      <trkpt lat="43.77354" lon="7.00825">
        <ele>1019</ele>
        <time>2017-10-23T09:56:24Z</time>
      </trkpt>
      <trkpt lat="43.77361" lon="7.00842">
        <ele>1002.9</ele>
        <time>2017-10-23T09:56:25Z</time>
      </trkpt>
      <trkpt lat="43.77363" lon="7.00848">
        <ele>1003.7</ele>
        <time>2017-10-23T09:56:29Z</time>
      </trkpt>
      <trkpt lat="43.77366" lon="7.00854">
        <ele>1004</ele>
        <time>2017-10-23T09:56:33Z</time>
      </trkpt>
      <trkpt lat="43.77369" lon="7.0086">
        <ele>1004.1</ele>
        <time>2017-10-23T09:56:37Z</time>
      </trkpt>
      <trkpt lat="43.77374" lon="7.00873">
        <ele>1004.5</ele>
        <time>2017-10-23T09:56:45Z</time>
      </trkpt>
      <trkpt lat="43.77376" lon="7.00879">
        <ele>1005.8</ele>
        <time>2017-10-23T09:56:49Z</time>
      </trkpt>
      <trkpt lat="43.77378" lon="7.00885">
        <ele>1007.3</ele>
        <time>2017-10-23T09:56:53Z</time>
      </trkpt>
      <trkpt lat="43.77383" lon="7.00897">
        <ele>1008.6</ele>
        <time>2017-10-23T09:57:01Z</time>
      </trkpt>
      <trkpt lat="43.77383" lon="7.00897">
        <ele>1020</ele>
        <time>2017-10-23T09:57:10Z</time>
      </trkpt>
      <trkpt lat="43.77389" lon="7.00911">
        <ele>1009.2</ele>
        <time>2017-10-23T09:57:11Z</time>
      </trkpt>
      <trkpt lat="43.77389" lon="7.00911">
        <ele>1019.2</ele>
        <time>2017-10-23T09:57:20Z</time>
      </trkpt>
      <trkpt lat="43.77394" lon="7.0093">
        <ele>1009.4</ele>
        <time>2017-10-23T09:57:23Z</time>
      </trkpt>
      <trkpt lat="43.77394" lon="7.0093">
        <ele>1018.3</ele>
        <time>2017-10-23T09:57:32Z</time>
      </trkpt>
      <trkpt lat="43.77406" lon="7.00939">
        <ele>1009.6</ele>
        <time>2017-10-23T09:57:37Z</time>
      </trkpt>
      <trkpt lat="43.77406" lon="7.00939">
        <ele>1017.6</ele>
        <time>2017-10-23T09:57:46Z</time>
      </trkpt>
      <trkpt lat="43.7742" lon="7.00936">
        <ele>1009.6</ele>
        <time>2017-10-23T09:57:51Z</time>
      </trkpt>
      <trkpt lat="43.7742" lon="7.00936">
        <ele>1017.4</ele>
        <time>2017-10-23T09:58:00Z</time>
      </trkpt>
      <trkpt lat="43.77435" lon="7.00931">
        <ele>1009.8</ele>
        <time>2017-10-23T09:58:04Z</time>
      </trkpt>
      <trkpt lat="43.77435" lon="7.00931">
        <ele>1017.8</ele>
        <time>2017-10-23T09:58:13Z</time>
      </trkpt>
      <trkpt lat="43.77449" lon="7.00926">
        <ele>1012.4</ele>
        <time>2017-10-23T09:58:15Z</time>
      </trkpt>
      <trkpt lat="43.77449" lon="7.00926">
        <ele>1018.3</ele>
        <time>2017-10-23T09:58:24Z</time>
      </trkpt>
      <trkpt lat="43.77459" lon="7.00913">
        <ele>1014</ele>
        <time>2017-10-23T09:58:27Z</time>
      </trkpt>
      <trkpt lat="43.77464" lon="7.00903">
        <ele>1015</ele>
        <time>2017-10-23T09:58:35Z</time>
      </trkpt>
      <trkpt lat="43.77474" lon="7.00888">
        <ele>1015.6</ele>
        <time>2017-10-23T09:58:44Z</time>
      </trkpt>
      <trkpt lat="43.77474" lon="7.00888">
        <ele>1021.1</ele>
        <time>2017-10-23T09:58:53Z</time>
      </trkpt>
      <trkpt lat="43.7748" lon="7.0087">
        <ele>1016.1</ele>
        <time>2017-10-23T09:58:57Z</time>
      </trkpt>
      <trkpt lat="43.7748" lon="7.0087">
        <ele>1021.3</ele>
        <time>2017-10-23T09:59:06Z</time>
      </trkpt>
      <trkpt lat="43.77491" lon="7.00857">
        <ele>1016.6</ele>
        <time>2017-10-23T09:59:10Z</time>
      </trkpt>
      <trkpt lat="43.77491" lon="7.00857">
        <ele>1021.5</ele>
        <time>2017-10-23T09:59:19Z</time>
      </trkpt>
      <trkpt lat="43.77497" lon="7.00847">
        <ele>1017.3</ele>
        <time>2017-10-23T09:59:21Z</time>
      </trkpt>
      <trkpt lat="43.77497" lon="7.00847">
        <ele>1021.4</ele>
        <time>2017-10-23T09:59:32Z</time>
      </trkpt>
      <trkpt lat="43.77506" lon="7.00833">
        <ele>1018.2</ele>
        <time>2017-10-23T09:59:33Z</time>
      </trkpt>
      <trkpt lat="43.77506" lon="7.00833">
        <ele>1021.4</ele>
        <time>2017-10-23T09:59:42Z</time>
      </trkpt>
      <trkpt lat="43.77518" lon="7.00823">
        <ele>1018.8</ele>
        <time>2017-10-23T09:59:45Z</time>
      </trkpt>
      <trkpt lat="43.77522" lon="7.00818">
        <ele>1018.8</ele>
        <time>2017-10-23T09:59:50Z</time>
      </trkpt>
      <trkpt lat="43.77522" lon="7.00818">
        <ele>1022.1</ele>
        <time>2017-10-23T10:00:01Z</time>
      </trkpt>
      <trkpt lat="43.77522" lon="7.00818">
        <ele>1022.1</ele>
        <time>2017-10-23T10:00:10Z</time>
      </trkpt>
      <trkpt lat="43.77542" lon="7.00791">
        <ele>1019.3</ele>
        <time>2017-10-23T10:00:11Z</time>
      </trkpt>
      <trkpt lat="43.77546" lon="7.00788">
        <ele>1019.4</ele>
        <time>2017-10-23T10:00:19Z</time>
      </trkpt>
      <trkpt lat="43.77546" lon="7.00788">
        <ele>1024.6</ele>
        <time>2017-10-23T10:00:28Z</time>
      </trkpt>
      <trkpt lat="43.77554" lon="7.00778">
        <ele>1018.5</ele>
        <time>2017-10-23T10:00:31Z</time>
      </trkpt>
      <trkpt lat="43.77555" lon="7.00771">
        <ele>1018.3</ele>
        <time>2017-10-23T10:00:36Z</time>
      </trkpt>
      <trkpt lat="43.77558" lon="7.00759">
        <ele>1018.6</ele>
        <time>2017-10-23T10:00:44Z</time>
      </trkpt>
      <trkpt lat="43.77561" lon="7.00746">
        <ele>1019.2</ele>
        <time>2017-10-23T10:00:51Z</time>
      </trkpt>
      <trkpt lat="43.77561" lon="7.00746">
        <ele>1026.2</ele>
        <time>2017-10-23T10:01:01Z</time>
      </trkpt>
      <trkpt lat="43.77567" lon="7.00728">
        <ele>1019.6</ele>
        <time>2017-10-23T10:01:03Z</time>
      </trkpt>
      <trkpt lat="43.77568" lon="7.00722">
        <ele>1019.9</ele>
        <time>2017-10-23T10:01:07Z</time>
      </trkpt>
      <trkpt lat="43.77571" lon="7.00716">
        <ele>1019.9</ele>
        <time>2017-10-23T10:01:11Z</time>
      </trkpt>
      <trkpt lat="43.77572" lon="7.00707">
        <ele>1019.9</ele>
        <time>2017-10-23T10:01:16Z</time>
      </trkpt>
      <trkpt lat="43.77576" lon="7.00695">
        <ele>1020.1</ele>
        <time>2017-10-23T10:01:25Z</time>
      </trkpt>
      <trkpt lat="43.77581" lon="7.00682">
        <ele>1023.2</ele>
        <time>2017-10-23T10:01:33Z</time>
      </trkpt>
      <trkpt lat="43.77581" lon="7.00682">
        <ele>1027.4</ele>
        <time>2017-10-23T10:01:42Z</time>
      </trkpt>
      <trkpt lat="43.7759" lon="7.00674">
        <ele>1024.5</ele>
        <time>2017-10-23T10:01:43Z</time>
      </trkpt>
      <trkpt lat="43.77594" lon="7.00672">
        <ele>1025.7</ele>
        <time>2017-10-23T10:01:48Z</time>
      </trkpt>
      <trkpt lat="43.77608" lon="7.00672">
        <ele>1027.4</ele>
        <time>2017-10-23T10:01:58Z</time>
      </trkpt>
      <trkpt lat="43.77608" lon="7.00672">
        <ele>1027.9</ele>
        <time>2017-10-23T10:02:07Z</time>
      </trkpt>
      <trkpt lat="43.77624" lon="7.00689">
        <ele>1027.4</ele>
        <time>2017-10-23T10:02:12Z</time>
      </trkpt>
      <trkpt lat="43.77624" lon="7.00689">
        <ele>1028.8</ele>
        <time>2017-10-23T10:02:21Z</time>
      </trkpt>
      <trkpt lat="43.77634" lon="7.00703">
        <ele>1027.1</ele>
        <time>2017-10-23T10:02:26Z</time>
      </trkpt>
      <trkpt lat="43.77634" lon="7.00703">
        <ele>1029.9</ele>
        <time>2017-10-23T10:02:35Z</time>
      </trkpt>
      <trkpt lat="43.77642" lon="7.0071">
        <ele>1023.2</ele>
        <time>2017-10-23T10:02:37Z</time>
      </trkpt>
      <trkpt lat="43.77645" lon="7.00716">
        <ele>1023.2</ele>
        <time>2017-10-23T10:02:44Z</time>
      </trkpt>
      <trkpt lat="43.77645" lon="7.00716">
        <ele>1031.1</ele>
        <time>2017-10-23T10:02:53Z</time>
      </trkpt>
      <trkpt lat="43.77654" lon="7.00733">
        <ele>1023.2</ele>
        <time>2017-10-23T10:02:58Z</time>
      </trkpt>
      <trkpt lat="43.77655" lon="7.00735">
        <ele>1023.3</ele>
        <time>2017-10-23T10:03:03Z</time>
      </trkpt>
      <trkpt lat="43.77655" lon="7.00735">
        <ele>1031.9</ele>
        <time>2017-10-23T10:03:03Z</time>
      </trkpt>
      <trkpt lat="43.77655" lon="7.00735">
        <ele>1031.9</ele>
        <time>2017-10-23T10:05:00Z</time>
      </trkpt>
      <trkpt lat="43.77657" lon="7.00754">
        <ele>1033.5</ele>
        <time>2017-10-23T10:05:00Z</time>
      </trkpt>
      <trkpt lat="43.77657" lon="7.00754">
        <ele>1032.5</ele>
        <time>2017-10-23T10:05:09Z</time>
      </trkpt>
      <trkpt lat="43.7766" lon="7.00772">
        <ele>1033.5</ele>
        <time>2017-10-23T10:05:10Z</time>
      </trkpt>
      <trkpt lat="43.7766" lon="7.00772">
        <ele>1033.3</ele>
        <time>2017-10-23T10:05:20Z</time>
      </trkpt>
      <trkpt lat="43.77673" lon="7.0079">
        <ele>1033.5</ele>
        <time>2017-10-23T10:05:26Z</time>
      </trkpt>
      <trkpt lat="43.77679" lon="7.008">
        <ele>1033.5</ele>
        <time>2017-10-23T10:05:34Z</time>
      </trkpt>
      <trkpt lat="43.77679" lon="7.008">
        <ele>1034.5</ele>
        <time>2017-10-23T10:05:44Z</time>
      </trkpt>
      <trkpt lat="43.77685" lon="7.00812">
        <ele>1034.5</ele>
        <time>2017-10-23T10:05:46Z</time>
      </trkpt>
      <trkpt lat="43.77688" lon="7.00817">
        <ele>1034.5</ele>
        <time>2017-10-23T10:05:50Z</time>
      </trkpt>
      <trkpt lat="43.77693" lon="7.0083">
        <ele>1036.6</ele>
        <time>2017-10-23T10:05:59Z</time>
      </trkpt>
      <trkpt lat="43.77697" lon="7.00841">
        <ele>1037.9</ele>
        <time>2017-10-23T10:06:05Z</time>
      </trkpt>
      <trkpt lat="43.77697" lon="7.00841">
        <ele>1036.1</ele>
        <time>2017-10-23T10:06:14Z</time>
      </trkpt>
      <trkpt lat="43.77704" lon="7.00854">
        <ele>1038.6</ele>
        <time>2017-10-23T10:06:15Z</time>
      </trkpt>
      <trkpt lat="43.77704" lon="7.00854">
        <ele>1036.6</ele>
        <time>2017-10-23T10:06:24Z</time>
      </trkpt>
      <trkpt lat="43.77713" lon="7.00868">
        <ele>1038.6</ele>
        <time>2017-10-23T10:06:27Z</time>
      </trkpt>
      <trkpt lat="43.77718" lon="7.00872">
        <ele>1038.6</ele>
        <time>2017-10-23T10:06:32Z</time>
      </trkpt>
      <trkpt lat="43.77718" lon="7.00872">
        <ele>1037.7</ele>
        <time>2017-10-23T10:06:49Z</time>
      </trkpt>
      <trkpt lat="43.77732" lon="7.00889">
        <ele>1038.6</ele>
        <time>2017-10-23T10:06:51Z</time>
      </trkpt>
      <trkpt lat="43.77732" lon="7.00889">
        <ele>1038.3</ele>
        <time>2017-10-23T10:07:00Z</time>
      </trkpt>
      <trkpt lat="43.7774" lon="7.00896">
        <ele>1038.6</ele>
        <time>2017-10-23T10:07:02Z</time>
      </trkpt>
      <trkpt lat="43.7774" lon="7.00896">
        <ele>1038.7</ele>
        <time>2017-10-23T10:07:11Z</time>
      </trkpt>
      <trkpt lat="43.77754" lon="7.00895">
        <ele>1039.2</ele>
        <time>2017-10-23T10:07:14Z</time>
      </trkpt>
      <trkpt lat="43.77763" lon="7.00896">
        <ele>1040.3</ele>
        <time>2017-10-23T10:07:21Z</time>
      </trkpt>
      <trkpt lat="43.77763" lon="7.00896">
        <ele>1038.8</ele>
        <time>2017-10-23T10:07:30Z</time>
      </trkpt>
      <trkpt lat="43.7778" lon="7.00903">
        <ele>1040.5</ele>
        <time>2017-10-23T10:07:33Z</time>
      </trkpt>
      <trkpt lat="43.77784" lon="7.00909">
        <ele>1040.5</ele>
        <time>2017-10-23T10:07:38Z</time>
      </trkpt>
      <trkpt lat="43.77788" lon="7.00913">
        <ele>1040.5</ele>
        <time>2017-10-23T10:07:42Z</time>
      </trkpt>
      <trkpt lat="43.77788" lon="7.00913">
        <ele>1036.8</ele>
        <time>2017-10-23T10:07:52Z</time>
      </trkpt>
      <trkpt lat="43.77803" lon="7.00929">
        <ele>1039.6</ele>
        <time>2017-10-23T10:07:57Z</time>
      </trkpt>
      <trkpt lat="43.77807" lon="7.00934">
        <ele>1039.1</ele>
        <time>2017-10-23T10:08:01Z</time>
      </trkpt>
      <trkpt lat="43.77809" lon="7.00941">
        <ele>1038.6</ele>
        <time>2017-10-23T10:08:06Z</time>
      </trkpt>
      <trkpt lat="43.7781" lon="7.00948">
        <ele>1038.6</ele>
        <time>2017-10-23T10:08:10Z</time>
      </trkpt>
      <trkpt lat="43.7781" lon="7.00948">
        <ele>1034.9</ele>
        <time>2017-10-23T10:08:20Z</time>
      </trkpt>
      <trkpt lat="43.77815" lon="7.00966">
        <ele>1038.6</ele>
        <time>2017-10-23T10:08:21Z</time>
      </trkpt>
      <trkpt lat="43.77821" lon="7.00976">
        <ele>1038.6</ele>
        <time>2017-10-23T10:08:27Z</time>
      </trkpt>
      <trkpt lat="43.77821" lon="7.00976">
        <ele>1034</ele>
        <time>2017-10-23T10:08:36Z</time>
      </trkpt>
      <trkpt lat="43.77836" lon="7.01">
        <ele>1038.2</ele>
        <time>2017-10-23T10:08:47Z</time>
      </trkpt>
      <trkpt lat="43.77836" lon="7.01">
        <ele>1034.4</ele>
        <time>2017-10-23T10:08:56Z</time>
      </trkpt>
      <trkpt lat="43.77844" lon="7.01009">
        <ele>1038.2</ele>
        <time>2017-10-23T10:08:58Z</time>
      </trkpt>
      <trkpt lat="43.77844" lon="7.01009">
        <ele>1035.8</ele>
        <time>2017-10-23T10:09:10Z</time>
      </trkpt>
      <trkpt lat="43.77852" lon="7.01033">
        <ele>1038.6</ele>
        <time>2017-10-23T10:09:16Z</time>
      </trkpt>
      <trkpt lat="43.77855" lon="7.01044">
        <ele>1038.6</ele>
        <time>2017-10-23T10:09:25Z</time>
      </trkpt>
      <trkpt lat="43.77855" lon="7.01044">
        <ele>1038.6</ele>
        <time>2017-10-23T10:09:34Z</time>
      </trkpt>
      <trkpt lat="43.77855" lon="7.01044">
        <ele>1038.6</ele>
        <time>2017-10-23T10:09:43Z</time>
      </trkpt>
      <trkpt lat="43.77855" lon="7.01044">
        <ele>1038.6</ele>
        <time>2017-10-23T10:09:54Z</time>
      </trkpt>
      <trkpt lat="43.77872" lon="7.01083">
        <ele>1040.8</ele>
        <time>2017-10-23T10:09:56Z</time>
      </trkpt>
      <trkpt lat="43.77872" lon="7.01083">
        <ele>1042.2</ele>
        <time>2017-10-23T10:10:05Z</time>
      </trkpt>
      <trkpt lat="43.77878" lon="7.01093">
        <ele>1043.4</ele>
        <time>2017-10-23T10:10:06Z</time>
      </trkpt>
      <trkpt lat="43.77881" lon="7.01098">
        <ele>1043.8</ele>
        <time>2017-10-23T10:10:10Z</time>
      </trkpt>
      <trkpt lat="43.77881" lon="7.01098">
        <ele>1043.6</ele>
        <time>2017-10-23T10:10:20Z</time>
      </trkpt>
      <trkpt lat="43.77881" lon="7.01098">
        <ele>1043.6</ele>
        <time>2017-10-23T10:10:29Z</time>
      </trkpt>
      <trkpt lat="43.77893" lon="7.01127">
        <ele>1044.1</ele>
        <time>2017-10-23T10:10:31Z</time>
      </trkpt>
      <trkpt lat="43.77893" lon="7.01127">
        <ele>1045.8</ele>
        <time>2017-10-23T10:10:41Z</time>
      </trkpt>
      <trkpt lat="43.77897" lon="7.01145">
        <ele>1046.5</ele>
        <time>2017-10-23T10:10:45Z</time>
      </trkpt>
      <trkpt lat="43.77899" lon="7.01154">
        <ele>1048</ele>
        <time>2017-10-23T10:10:51Z</time>
      </trkpt>
      <trkpt lat="43.77899" lon="7.01154">
        <ele>1047.3</ele>
        <time>2017-10-23T10:11:00Z</time>
      </trkpt>
      <trkpt lat="43.77904" lon="7.01172">
        <ele>1049</ele>
        <time>2017-10-23T10:11:05Z</time>
      </trkpt>
      <trkpt lat="43.77904" lon="7.01179">
        <ele>1049</ele>
        <time>2017-10-23T10:11:11Z</time>
      </trkpt>
      <trkpt lat="43.77904" lon="7.01179">
        <ele>1048.5</ele>
        <time>2017-10-23T10:11:20Z</time>
      </trkpt>
      <trkpt lat="43.77909" lon="7.01188">
        <ele>1052.6</ele>
        <time>2017-10-23T10:11:22Z</time>
      </trkpt>
      <trkpt lat="43.77909" lon="7.01188">
        <ele>1049.2</ele>
        <time>2017-10-23T10:11:22Z</time>
      </trkpt>
      <trkpt lat="43.77909" lon="7.01188">
        <ele>1049.2</ele>
        <time>2017-10-23T10:12:24Z</time>
      </trkpt>
      <trkpt lat="43.77924" lon="7.012">
        <ele>1053</ele>
        <time>2017-10-23T10:12:24Z</time>
      </trkpt>
      <trkpt lat="43.77932" lon="7.01208">
        <ele>1053.1</ele>
        <time>2017-10-23T10:12:31Z</time>
      </trkpt>
      <trkpt lat="43.77932" lon="7.01208">
        <ele>1051.6</ele>
        <time>2017-10-23T10:12:40Z</time>
      </trkpt>
      <trkpt lat="43.77932" lon="7.01208">
        <ele>1051.6</ele>
        <time>2017-10-23T10:12:49Z</time>
      </trkpt>
      <trkpt lat="43.77944" lon="7.01234">
        <ele>1054.1</ele>
        <time>2017-10-23T10:12:50Z</time>
      </trkpt>
      <trkpt lat="43.77949" lon="7.01238">
        <ele>1054.2</ele>
        <time>2017-10-23T10:12:55Z</time>
      </trkpt>
      <trkpt lat="43.77952" lon="7.01243">
        <ele>1054.2</ele>
        <time>2017-10-23T10:13:00Z</time>
      </trkpt>
      <trkpt lat="43.77959" lon="7.01252">
        <ele>1054.2</ele>
        <time>2017-10-23T10:13:08Z</time>
      </trkpt>
      <trkpt lat="43.77959" lon="7.01252">
        <ele>1054.6</ele>
        <time>2017-10-23T10:13:17Z</time>
      </trkpt>
      <trkpt lat="43.77967" lon="7.01268">
        <ele>1054.5</ele>
        <time>2017-10-23T10:13:22Z</time>
      </trkpt>
      <trkpt lat="43.77979" lon="7.01279">
        <ele>1055.6</ele>
        <time>2017-10-23T10:13:32Z</time>
      </trkpt>
      <trkpt lat="43.77979" lon="7.01279">
        <ele>1056.1</ele>
        <time>2017-10-23T10:13:41Z</time>
      </trkpt>
      <trkpt lat="43.77981" lon="7.01305">
        <ele>1057.5</ele>
        <time>2017-10-23T10:13:49Z</time>
      </trkpt>
      <trkpt lat="43.77981" lon="7.01305">
        <ele>1057.9</ele>
        <time>2017-10-23T10:13:58Z</time>
      </trkpt>
      <trkpt lat="43.77981" lon="7.01325">
        <ele>1057.6</ele>
        <time>2017-10-23T10:14:03Z</time>
      </trkpt>
      <trkpt lat="43.77981" lon="7.01325">
        <ele>1058.9</ele>
        <time>2017-10-23T10:14:12Z</time>
      </trkpt>
      <trkpt lat="43.77985" lon="7.01344">
        <ele>1056.1</ele>
        <time>2017-10-23T10:14:17Z</time>
      </trkpt>
      <trkpt lat="43.77985" lon="7.01344">
        <ele>1059.8</ele>
        <time>2017-10-23T10:14:29Z</time>
      </trkpt>
      <trkpt lat="43.77989" lon="7.01362">
        <ele>1053.8</ele>
        <time>2017-10-23T10:14:30Z</time>
      </trkpt>
      <trkpt lat="43.77991" lon="7.01369">
        <ele>1053.7</ele>
        <time>2017-10-23T10:14:34Z</time>
      </trkpt>
      <trkpt lat="43.77991" lon="7.01369">
        <ele>1060.9</ele>
        <time>2017-10-23T10:14:45Z</time>
      </trkpt>
      <trkpt lat="43.77991" lon="7.01369">
        <ele>1060.9</ele>
        <time>2017-10-23T10:14:55Z</time>
      </trkpt>
      <trkpt lat="43.78004" lon="7.01408">
        <ele>1053.4</ele>
        <time>2017-10-23T10:14:59Z</time>
      </trkpt>
      <trkpt lat="43.78005" lon="7.01414">
        <ele>1053.4</ele>
        <time>2017-10-23T10:15:04Z</time>
      </trkpt>
      <trkpt lat="43.78008" lon="7.01422">
        <ele>1053.1</ele>
        <time>2017-10-23T10:15:10Z</time>
      </trkpt>
      <trkpt lat="43.78009" lon="7.01428">
        <ele>1052.9</ele>
        <time>2017-10-23T10:15:14Z</time>
      </trkpt>
      <trkpt lat="43.78009" lon="7.01428">
        <ele>1061.9</ele>
        <time>2017-10-23T10:15:25Z</time>
      </trkpt>
      <trkpt lat="43.78009" lon="7.01428">
        <ele>1061.9</ele>
        <time>2017-10-23T10:15:34Z</time>
      </trkpt>
      <trkpt lat="43.78018" lon="7.01464">
        <ele>1052.5</ele>
        <time>2017-10-23T10:15:35Z</time>
      </trkpt>
      <trkpt lat="43.78018" lon="7.01471">
        <ele>1052.6</ele>
        <time>2017-10-23T10:15:39Z</time>
      </trkpt>
      <trkpt lat="43.78023" lon="7.01483">
        <ele>1052.8</ele>
        <time>2017-10-23T10:15:48Z</time>
      </trkpt>
      <trkpt lat="43.78028" lon="7.01487">
        <ele>1052.8</ele>
        <time>2017-10-23T10:15:52Z</time>
      </trkpt>
      <trkpt lat="43.78035" lon="7.01494">
        <ele>1053.4</ele>
        <time>2017-10-23T10:15:58Z</time>
      </trkpt>
      <trkpt lat="43.78035" lon="7.01494">
        <ele>1061.7</ele>
        <time>2017-10-23T10:16:07Z</time>
      </trkpt>
      <trkpt lat="43.78049" lon="7.0151">
        <ele>1056.8</ele>
        <time>2017-10-23T10:16:10Z</time>
      </trkpt>
      <trkpt lat="43.78054" lon="7.01521">
        <ele>1057.2</ele>
        <time>2017-10-23T10:16:18Z</time>
      </trkpt>
      <trkpt lat="43.78061" lon="7.01532">
        <ele>1057.5</ele>
        <time>2017-10-23T10:16:26Z</time>
      </trkpt>
      <trkpt lat="43.78068" lon="7.01541">
        <ele>1057.7</ele>
        <time>2017-10-23T10:16:33Z</time>
      </trkpt>
      <trkpt lat="43.78071" lon="7.01547">
        <ele>1057.9</ele>
        <time>2017-10-23T10:16:37Z</time>
      </trkpt>
      <trkpt lat="43.78075" lon="7.01562">
        <ele>1057.9</ele>
        <time>2017-10-23T10:16:46Z</time>
      </trkpt>
      <trkpt lat="43.7808" lon="7.01574">
        <ele>1057.9</ele>
        <time>2017-10-23T10:16:54Z</time>
      </trkpt>
      <trkpt lat="43.78083" lon="7.01579">
        <ele>1058.4</ele>
        <time>2017-10-23T10:16:57Z</time>
      </trkpt>
      <trkpt lat="43.78082" lon="7.01595">
        <ele>1059</ele>
        <time>2017-10-23T10:17:06Z</time>
      </trkpt>
      <trkpt lat="43.78082" lon="7.01595">
        <ele>1062.1</ele>
        <time>2017-10-23T10:17:16Z</time>
      </trkpt>
      <trkpt lat="43.78087" lon="7.01612">
        <ele>1059</ele>
        <time>2017-10-23T10:17:18Z</time>
      </trkpt>
      <trkpt lat="43.7809" lon="7.01625">
        <ele>1059</ele>
        <time>2017-10-23T10:17:24Z</time>
      </trkpt>
      <trkpt lat="43.78094" lon="7.01638">
        <ele>1058.9</ele>
        <time>2017-10-23T10:17:33Z</time>
      </trkpt>
      <trkpt lat="43.78094" lon="7.01638">
        <ele>1061.6</ele>
        <time>2017-10-23T10:17:42Z</time>
      </trkpt>
      <trkpt lat="43.78106" lon="7.01658">
        <ele>1057.1</ele>
        <time>2017-10-23T10:17:49Z</time>
      </trkpt>
      <trkpt lat="43.78106" lon="7.01658">
        <ele>1062.5</ele>
        <time>2017-10-23T10:17:58Z</time>
      </trkpt>
      <trkpt lat="43.78113" lon="7.01676">
        <ele>1057.1</ele>
        <time>2017-10-23T10:18:03Z</time>
      </trkpt>
      <trkpt lat="43.78115" lon="7.01682">
        <ele>1057.1</ele>
        <time>2017-10-23T10:18:08Z</time>
      </trkpt>
      <trkpt lat="43.78117" lon="7.01688">
        <ele>1057.1</ele>
        <time>2017-10-23T10:18:11Z</time>
      </trkpt>
      <trkpt lat="43.78117" lon="7.01688">
        <ele>1064.1</ele>
        <time>2017-10-23T10:18:21Z</time>
      </trkpt>
      <trkpt lat="43.78124" lon="7.01708">
        <ele>1056.7</ele>
        <time>2017-10-23T10:18:25Z</time>
      </trkpt>
      <trkpt lat="43.78127" lon="7.0172">
        <ele>1057.3</ele>
        <time>2017-10-23T10:18:33Z</time>
      </trkpt>
      <trkpt lat="43.78127" lon="7.0172">
        <ele>1065.2</ele>
        <time>2017-10-23T10:18:42Z</time>
      </trkpt>
      <trkpt lat="43.78128" lon="7.0174">
        <ele>1058.5</ele>
        <time>2017-10-23T10:18:46Z</time>
      </trkpt>
      <trkpt lat="43.78128" lon="7.0174">
        <ele>1066.1</ele>
        <time>2017-10-23T10:18:55Z</time>
      </trkpt>
      <trkpt lat="43.78133" lon="7.01765">
        <ele>1058.6</ele>
        <time>2017-10-23T10:19:03Z</time>
      </trkpt>
      <trkpt lat="43.78133" lon="7.01765">
        <ele>1066.7</ele>
        <time>2017-10-23T10:19:12Z</time>
      </trkpt>
      <trkpt lat="43.78142" lon="7.01787">
        <ele>1060.6</ele>
        <time>2017-10-23T10:19:18Z</time>
      </trkpt>
      <trkpt lat="43.78142" lon="7.01787">
        <ele>1067</ele>
        <time>2017-10-23T10:19:27Z</time>
      </trkpt>
      <trkpt lat="43.78149" lon="7.01805">
        <ele>1060.7</ele>
        <time>2017-10-23T10:19:29Z</time>
      </trkpt>
      <trkpt lat="43.78149" lon="7.01805">
        <ele>1067.2</ele>
        <time>2017-10-23T10:19:39Z</time>
      </trkpt>
      <trkpt lat="43.78161" lon="7.01831">
        <ele>1061.7</ele>
        <time>2017-10-23T10:19:47Z</time>
      </trkpt>
      <trkpt lat="43.78164" lon="7.01838">
        <ele>1061.3</ele>
        <time>2017-10-23T10:19:52Z</time>
      </trkpt>
      <trkpt lat="43.78164" lon="7.01838">
        <ele>1067.6</ele>
        <time>2017-10-23T10:20:01Z</time>
      </trkpt>
      <trkpt lat="43.78175" lon="7.0185">
        <ele>1060.3</ele>
        <time>2017-10-23T10:20:02Z</time>
      </trkpt>
      <trkpt lat="43.78179" lon="7.01855">
        <ele>1060.1</ele>
        <time>2017-10-23T10:20:07Z</time>
      </trkpt>
      <trkpt lat="43.78182" lon="7.01861">
        <ele>1060.1</ele>
        <time>2017-10-23T10:20:11Z</time>
      </trkpt>
      <trkpt lat="43.78184" lon="7.01868">
        <ele>1059.7</ele>
        <time>2017-10-23T10:20:16Z</time>
      </trkpt>
      <trkpt lat="43.78185" lon="7.01875">
        <ele>1059.8</ele>
        <time>2017-10-23T10:20:20Z</time>
      </trkpt>
      <trkpt lat="43.78186" lon="7.01894">
        <ele>1059.9</ele>
        <time>2017-10-23T10:20:31Z</time>
      </trkpt>
      <trkpt lat="43.78186" lon="7.01901">
        <ele>1059.7</ele>
        <time>2017-10-23T10:20:35Z</time>
      </trkpt>
      <trkpt lat="43.78186" lon="7.01901">
        <ele>1066.9</ele>
        <time>2017-10-23T10:20:46Z</time>
      </trkpt>
      <trkpt lat="43.78189" lon="7.0192">
        <ele>1059.5</ele>
        <time>2017-10-23T10:20:47Z</time>
      </trkpt>
      <trkpt lat="43.78192" lon="7.01926">
        <ele>1059.5</ele>
        <time>2017-10-23T10:20:51Z</time>
      </trkpt>
      <trkpt lat="43.78193" lon="7.01933">
        <ele>1059.4</ele>
        <time>2017-10-23T10:20:55Z</time>
      </trkpt>
      <trkpt lat="43.78193" lon="7.01933">
        <ele>1066.8</ele>
        <time>2017-10-23T10:21:06Z</time>
      </trkpt>
      <trkpt lat="43.782" lon="7.0195">
        <ele>1059.1</ele>
        <time>2017-10-23T10:21:07Z</time>
      </trkpt>
      <trkpt lat="43.782" lon="7.0195">
        <ele>1066.4</ele>
        <time>2017-10-23T10:21:16Z</time>
      </trkpt>
      <trkpt lat="43.78207" lon="7.01967">
        <ele>1058.2</ele>
        <time>2017-10-23T10:21:18Z</time>
      </trkpt>
      <trkpt lat="43.78207" lon="7.01967">
        <ele>1066.3</ele>
        <time>2017-10-23T10:21:27Z</time>
      </trkpt>
      <trkpt lat="43.78216" lon="7.01978">
        <ele>1057.2</ele>
        <time>2017-10-23T10:21:28Z</time>
      </trkpt>
      <trkpt lat="43.78216" lon="7.01978">
        <ele>1065.9</ele>
        <time>2017-10-23T10:21:38Z</time>
      </trkpt>
      <trkpt lat="43.78228" lon="7.01989">
        <ele>1055.7</ele>
        <time>2017-10-23T10:21:39Z</time>
      </trkpt>
      <trkpt lat="43.78232" lon="7.01996">
        <ele>1054.1</ele>
        <time>2017-10-23T10:21:43Z</time>
      </trkpt>
      <trkpt lat="43.78234" lon="7.02008">
        <ele>1054</ele>
        <time>2017-10-23T10:21:50Z</time>
      </trkpt>
      <trkpt lat="43.78234" lon="7.02008">
        <ele>1065.7</ele>
        <time>2017-10-23T10:21:59Z</time>
      </trkpt>
      <trkpt lat="43.78238" lon="7.02026">
        <ele>1054</ele>
        <time>2017-10-23T10:22:00Z</time>
      </trkpt>
      <trkpt lat="43.78238" lon="7.02026">
        <ele>1066.7</ele>
        <time>2017-10-23T10:22:09Z</time>
      </trkpt>
      <trkpt lat="43.7824" lon="7.02046">
        <ele>1054</ele>
        <time>2017-10-23T10:22:11Z</time>
      </trkpt>
      <trkpt lat="43.78241" lon="7.02053">
        <ele>1054.6</ele>
        <time>2017-10-23T10:22:16Z</time>
      </trkpt>
      <trkpt lat="43.78241" lon="7.02053">
        <ele>1067.6</ele>
        <time>2017-10-23T10:22:26Z</time>
      </trkpt>
      <trkpt lat="43.78245" lon="7.02065">
        <ele>1057.3</ele>
        <time>2017-10-23T10:22:28Z</time>
      </trkpt>
      <trkpt lat="43.78245" lon="7.02065">
        <ele>1067.7</ele>
        <time>2017-10-23T10:22:37Z</time>
      </trkpt>
      <trkpt lat="43.78254" lon="7.02081">
        <ele>1057.7</ele>
        <time>2017-10-23T10:22:41Z</time>
      </trkpt>
      <trkpt lat="43.78258" lon="7.02084">
        <ele>1057.7</ele>
        <time>2017-10-23T10:22:46Z</time>
      </trkpt>
      <trkpt lat="43.78261" lon="7.0209">
        <ele>1057.7</ele>
        <time>2017-10-23T10:22:49Z</time>
      </trkpt>
      <trkpt lat="43.78266" lon="7.02101">
        <ele>1057.7</ele>
        <time>2017-10-23T10:22:54Z</time>
      </trkpt>
      <trkpt lat="43.7827" lon="7.02105">
        <ele>1057.6</ele>
        <time>2017-10-23T10:22:58Z</time>
      </trkpt>
      <trkpt lat="43.78274" lon="7.0211">
        <ele>1057.1</ele>
        <time>2017-10-23T10:23:03Z</time>
      </trkpt>
      <trkpt lat="43.78276" lon="7.02116">
        <ele>1056.6</ele>
        <time>2017-10-23T10:23:08Z</time>
      </trkpt>
      <trkpt lat="43.78276" lon="7.02132">
        <ele>1055.9</ele>
        <time>2017-10-23T10:23:17Z</time>
      </trkpt>
      <trkpt lat="43.78281" lon="7.0215">
        <ele>1055.7</ele>
        <time>2017-10-23T10:23:25Z</time>
      </trkpt>
      <trkpt lat="43.78281" lon="7.0215">
        <ele>1067.6</ele>
        <time>2017-10-23T10:23:34Z</time>
      </trkpt>
      <trkpt lat="43.78281" lon="7.0215">
        <ele>1067.6</ele>
        <time>2017-10-23T10:23:43Z</time>
      </trkpt>
      <trkpt lat="43.78292" lon="7.02177">
        <ele>1054.7</ele>
        <time>2017-10-23T10:23:44Z</time>
      </trkpt>
      <trkpt lat="43.78296" lon="7.02189">
        <ele>1053.9</ele>
        <time>2017-10-23T10:23:51Z</time>
      </trkpt>
      <trkpt lat="43.78296" lon="7.02189">
        <ele>1065.4</ele>
        <time>2017-10-23T10:24:00Z</time>
      </trkpt>
      <trkpt lat="43.78305" lon="7.02202">
        <ele>1051.2</ele>
        <time>2017-10-23T10:24:01Z</time>
      </trkpt>
      <trkpt lat="43.78305" lon="7.02202">
        <ele>1064.6</ele>
        <time>2017-10-23T10:24:10Z</time>
      </trkpt>
      <trkpt lat="43.7831" lon="7.02215">
        <ele>1049.3</ele>
        <time>2017-10-23T10:24:11Z</time>
      </trkpt>
      <trkpt lat="43.7832" lon="7.02219">
        <ele>1049</ele>
        <time>2017-10-23T10:24:20Z</time>
      </trkpt>
      <trkpt lat="43.78323" lon="7.02222">
        <ele>1049</ele>
        <time>2017-10-23T10:24:23Z</time>
      </trkpt>
      <trkpt lat="43.78325" lon="7.02221">
        <ele>1049.6</ele>
        <time>2017-10-23T10:24:28Z</time>
      </trkpt>
      <trkpt lat="43.78325" lon="7.02221">
        <ele>1063.2</ele>
        <time>2017-10-23T10:24:28Z</time>
      </trkpt>
      <trkpt lat="43.78325" lon="7.02221">
        <ele>1063.2</ele>
        <time>2017-10-23T10:25:24Z</time>
      </trkpt>
      <trkpt lat="43.78342" lon="7.02233">
        <ele>1057.5</ele>
        <time>2017-10-23T10:25:24Z</time>
      </trkpt>
      <trkpt lat="43.78342" lon="7.02233">
        <ele>1061.8</ele>
        <time>2017-10-23T10:25:33Z</time>
      </trkpt>
      <trkpt lat="43.78342" lon="7.02233">
        <ele>1061.8</ele>
        <time>2017-10-23T10:25:43Z</time>
      </trkpt>
      <trkpt lat="43.78366" lon="7.02261">
        <ele>1057.8</ele>
        <time>2017-10-23T10:25:48Z</time>
      </trkpt>
      <trkpt lat="43.78367" lon="7.02268">
        <ele>1057.6</ele>
        <time>2017-10-23T10:25:53Z</time>
      </trkpt>
      <trkpt lat="43.78368" lon="7.02274">
        <ele>1057.4</ele>
        <time>2017-10-23T10:25:57Z</time>
      </trkpt>
      <trkpt lat="43.78368" lon="7.02274">
        <ele>1059.4</ele>
        <time>2017-10-23T10:26:07Z</time>
      </trkpt>
      <trkpt lat="43.7837" lon="7.02293">
        <ele>1056.6</ele>
        <time>2017-10-23T10:26:10Z</time>
      </trkpt>
      <trkpt lat="43.7837" lon="7.02293">
        <ele>1059.5</ele>
        <time>2017-10-23T10:26:19Z</time>
      </trkpt>
      <trkpt lat="43.78382" lon="7.02313">
        <ele>1056.3</ele>
        <time>2017-10-23T10:26:27Z</time>
      </trkpt>
      <trkpt lat="43.78385" lon="7.02325">
        <ele>1056.1</ele>
        <time>2017-10-23T10:26:34Z</time>
      </trkpt>
      <trkpt lat="43.78385" lon="7.02325">
        <ele>1056.8</ele>
        <time>2017-10-23T10:26:43Z</time>
      </trkpt>
      <trkpt lat="43.78383" lon="7.02344">
        <ele>1055.7</ele>
        <time>2017-10-23T10:26:45Z</time>
      </trkpt>
      <trkpt lat="43.78383" lon="7.02357">
        <ele>1055.5</ele>
        <time>2017-10-23T10:26:53Z</time>
      </trkpt>
      <trkpt lat="43.78383" lon="7.02357">
        <ele>1058</ele>
        <time>2017-10-23T10:27:02Z</time>
      </trkpt>
      <trkpt lat="43.78384" lon="7.02376">
        <ele>1055.4</ele>
        <time>2017-10-23T10:27:03Z</time>
      </trkpt>
      <trkpt lat="43.78384" lon="7.02376">
        <ele>1057.8</ele>
        <time>2017-10-23T10:27:12Z</time>
      </trkpt>
      <trkpt lat="43.7839" lon="7.02392">
        <ele>1055.1</ele>
        <time>2017-10-23T10:27:14Z</time>
      </trkpt>
      <trkpt lat="43.78391" lon="7.02399">
        <ele>1054.1</ele>
        <time>2017-10-23T10:27:18Z</time>
      </trkpt>
      <trkpt lat="43.78391" lon="7.02399">
        <ele>1056.8</ele>
        <time>2017-10-23T10:27:28Z</time>
      </trkpt>
      <trkpt lat="43.78397" lon="7.02421">
        <ele>1050.5</ele>
        <time>2017-10-23T10:27:31Z</time>
      </trkpt>
      <trkpt lat="43.78397" lon="7.02428">
        <ele>1050.5</ele>
        <time>2017-10-23T10:27:35Z</time>
      </trkpt>
      <trkpt lat="43.78397" lon="7.02436">
        <ele>1050.1</ele>
        <time>2017-10-23T10:27:39Z</time>
      </trkpt>
      <trkpt lat="43.78397" lon="7.0245">
        <ele>1049.5</ele>
        <time>2017-10-23T10:27:45Z</time>
      </trkpt>
      <trkpt lat="43.78395" lon="7.02464">
        <ele>1048.4</ele>
        <time>2017-10-23T10:27:52Z</time>
      </trkpt>
      <trkpt lat="43.78395" lon="7.0247">
        <ele>1048</ele>
        <time>2017-10-23T10:27:57Z</time>
      </trkpt>
      <trkpt lat="43.78395" lon="7.0247">
        <ele>1057.5</ele>
        <time>2017-10-23T10:28:08Z</time>
      </trkpt>
      <trkpt lat="43.78399" lon="7.02489">
        <ele>1048</ele>
        <time>2017-10-23T10:28:09Z</time>
      </trkpt>
      <trkpt lat="43.78401" lon="7.02495">
        <ele>1048</ele>
        <time>2017-10-23T10:28:12Z</time>
      </trkpt>
      <trkpt lat="43.78408" lon="7.02503">
        <ele>1048</ele>
        <time>2017-10-23T10:28:19Z</time>
      </trkpt>
      <trkpt lat="43.78411" lon="7.0251">
        <ele>1048.4</ele>
        <time>2017-10-23T10:28:23Z</time>
      </trkpt>
      <trkpt lat="43.78411" lon="7.0251">
        <ele>1055.3</ele>
        <time>2017-10-23T10:28:35Z</time>
      </trkpt>
      <trkpt lat="43.78413" lon="7.0253">
        <ele>1049.2</ele>
        <time>2017-10-23T10:28:36Z</time>
      </trkpt>
      <trkpt lat="43.78413" lon="7.0253">
        <ele>1056</ele>
        <time>2017-10-23T10:28:45Z</time>
      </trkpt>
      <trkpt lat="43.78416" lon="7.02547">
        <ele>1049.2</ele>
        <time>2017-10-23T10:28:49Z</time>
      </trkpt>
      <trkpt lat="43.78416" lon="7.02553">
        <ele>1049.2</ele>
        <time>2017-10-23T10:28:52Z</time>
      </trkpt>
      <trkpt lat="43.78416" lon="7.02553">
        <ele>1055.2</ele>
        <time>2017-10-23T10:29:03Z</time>
      </trkpt>
      <trkpt lat="43.78418" lon="7.02572">
        <ele>1049.1</ele>
        <time>2017-10-23T10:29:04Z</time>
      </trkpt>
      <trkpt lat="43.78419" lon="7.02585">
        <ele>1048.6</ele>
        <time>2017-10-23T10:29:13Z</time>
      </trkpt>
      <trkpt lat="43.7842" lon="7.02592">
        <ele>1048</ele>
        <time>2017-10-23T10:29:18Z</time>
      </trkpt>
      <trkpt lat="43.78421" lon="7.02605">
        <ele>1047.3</ele>
        <time>2017-10-23T10:29:26Z</time>
      </trkpt>
      <trkpt lat="43.78421" lon="7.02605">
        <ele>1053.3</ele>
        <time>2017-10-23T10:29:35Z</time>
      </trkpt>
      <trkpt lat="43.78427" lon="7.0262">
        <ele>1046.2</ele>
        <time>2017-10-23T10:29:36Z</time>
      </trkpt>
      <trkpt lat="43.7843" lon="7.02626">
        <ele>1046</ele>
        <time>2017-10-23T10:29:39Z</time>
      </trkpt>
      <trkpt lat="43.78432" lon="7.02632">
        <ele>1045.4</ele>
        <time>2017-10-23T10:29:43Z</time>
      </trkpt>
      <trkpt lat="43.78438" lon="7.02643">
        <ele>1043.9</ele>
        <time>2017-10-23T10:29:50Z</time>
      </trkpt>
      <trkpt lat="43.78438" lon="7.02643">
        <ele>1048.1</ele>
        <time>2017-10-23T10:29:59Z</time>
      </trkpt>
      <trkpt lat="43.78438" lon="7.02643">
        <ele>1048.1</ele>
        <time>2017-10-23T10:30:08Z</time>
      </trkpt>
      <trkpt lat="43.78438" lon="7.02643">
        <ele>1048.1</ele>
        <time>2017-10-23T10:30:18Z</time>
      </trkpt>
      <trkpt lat="43.78457" lon="7.02689">
        <ele>1033.7</ele>
        <time>2017-10-23T10:30:19Z</time>
      </trkpt>
      <trkpt lat="43.78457" lon="7.02689">
        <ele>1041.4</ele>
        <time>2017-10-23T10:30:28Z</time>
      </trkpt>
      <trkpt lat="43.78459" lon="7.02708">
        <ele>1033.6</ele>
        <time>2017-10-23T10:30:29Z</time>
      </trkpt>
      <trkpt lat="43.78463" lon="7.02719">
        <ele>1033.6</ele>
        <time>2017-10-23T10:30:36Z</time>
      </trkpt>
      <trkpt lat="43.78464" lon="7.02732">
        <ele>1033.6</ele>
        <time>2017-10-23T10:30:43Z</time>
      </trkpt>
      <trkpt lat="43.78466" lon="7.0274">
        <ele>1034</ele>
        <time>2017-10-23T10:30:47Z</time>
      </trkpt>
      <trkpt lat="43.78466" lon="7.02747">
        <ele>1034</ele>
        <time>2017-10-23T10:30:51Z</time>
      </trkpt>
      <trkpt lat="43.78467" lon="7.0276">
        <ele>1033.8</ele>
        <time>2017-10-23T10:30:59Z</time>
      </trkpt>
      <trkpt lat="43.78467" lon="7.0276">
        <ele>1035.9</ele>
        <time>2017-10-23T10:31:08Z</time>
      </trkpt>
      <trkpt lat="43.78467" lon="7.0276">
        <ele>1035.9</ele>
        <time>2017-10-23T10:31:17Z</time>
      </trkpt>
      <trkpt lat="43.78475" lon="7.02791">
        <ele>1032.7</ele>
        <time>2017-10-23T10:31:22Z</time>
      </trkpt>
      <trkpt lat="43.78473" lon="7.02796">
        <ele>1032</ele>
        <time>2017-10-23T10:31:28Z</time>
      </trkpt>
      <trkpt lat="43.78473" lon="7.02803">
        <ele>1031.2</ele>
        <time>2017-10-23T10:31:32Z</time>
      </trkpt>
      <trkpt lat="43.78472" lon="7.02809">
        <ele>1031</ele>
        <time>2017-10-23T10:31:38Z</time>
      </trkpt>
      <trkpt lat="43.78474" lon="7.02816">
        <ele>1029.9</ele>
        <time>2017-10-23T10:31:43Z</time>
      </trkpt>
      <trkpt lat="43.78475" lon="7.02829">
        <ele>1029.3</ele>
        <time>2017-10-23T10:31:53Z</time>
      </trkpt>
      <trkpt lat="43.78475" lon="7.02829">
        <ele>1030.1</ele>
        <time>2017-10-23T10:32:02Z</time>
      </trkpt>
      <trkpt lat="43.78481" lon="7.02847">
        <ele>1027.5</ele>
        <time>2017-10-23T10:32:04Z</time>
      </trkpt>
      <trkpt lat="43.78481" lon="7.02847">
        <ele>1027.9</ele>
        <time>2017-10-23T10:32:13Z</time>
      </trkpt>
      <trkpt lat="43.78489" lon="7.02865">
        <ele>1023.7</ele>
        <time>2017-10-23T10:32:18Z</time>
      </trkpt>
      <trkpt lat="43.78489" lon="7.02865">
        <ele>1025.3</ele>
        <time>2017-10-23T10:32:28Z</time>
      </trkpt>
      <trkpt lat="43.78502" lon="7.02883">
        <ele>1021.4</ele>
        <time>2017-10-23T10:32:32Z</time>
      </trkpt>
      <trkpt lat="43.78502" lon="7.02883">
        <ele>1021</ele>
        <time>2017-10-23T10:32:42Z</time>
      </trkpt>
      <trkpt lat="43.78508" lon="7.02906">
        <ele>1014.5</ele>
        <time>2017-10-23T10:32:46Z</time>
      </trkpt>
      <trkpt lat="43.78508" lon="7.02906">
        <ele>1019.1</ele>
        <time>2017-10-23T10:32:57Z</time>
      </trkpt>
      <trkpt lat="43.78517" lon="7.02929">
        <ele>1007.6</ele>
        <time>2017-10-23T10:33:02Z</time>
      </trkpt>
      <trkpt lat="43.78517" lon="7.02929">
        <ele>1016.2</ele>
        <time>2017-10-23T10:33:13Z</time>
      </trkpt>
      <trkpt lat="43.78525" lon="7.02946">
        <ele>1005.8</ele>
        <time>2017-10-23T10:33:15Z</time>
      </trkpt>
      <trkpt lat="43.78526" lon="7.02953">
        <ele>1003.9</ele>
        <time>2017-10-23T10:33:18Z</time>
      </trkpt>
      <trkpt lat="43.78529" lon="7.02958">
        <ele>1003.9</ele>
        <time>2017-10-23T10:33:21Z</time>
      </trkpt>
      <trkpt lat="43.78537" lon="7.02969">
        <ele>1001.8</ele>
        <time>2017-10-23T10:33:27Z</time>
      </trkpt>
      <trkpt lat="43.78537" lon="7.02969">
        <ele>1009.9</ele>
        <time>2017-10-23T10:33:36Z</time>
      </trkpt>
      <trkpt lat="43.78544" lon="7.02986">
        <ele>1001.5</ele>
        <time>2017-10-23T10:33:37Z</time>
      </trkpt>
      <trkpt lat="43.78548" lon="7.02998">
        <ele>1001.5</ele>
        <time>2017-10-23T10:33:42Z</time>
      </trkpt>
      <trkpt lat="43.78555" lon="7.0301">
        <ele>1001.3</ele>
        <time>2017-10-23T10:33:50Z</time>
      </trkpt>
      <trkpt lat="43.78555" lon="7.0301">
        <ele>1005.6</ele>
        <time>2017-10-23T10:34:00Z</time>
      </trkpt>
      <trkpt lat="43.78555" lon="7.0301">
        <ele>1005.6</ele>
        <time>2017-10-23T10:34:09Z</time>
      </trkpt>
      <trkpt lat="43.78575" lon="7.03045">
        <ele>1000.7</ele>
        <time>2017-10-23T10:34:16Z</time>
      </trkpt>
      <trkpt lat="43.78575" lon="7.03045">
        <ele>1000.9</ele>
        <time>2017-10-23T10:34:25Z</time>
      </trkpt>
      <trkpt lat="43.78575" lon="7.03045">
        <ele>1000.9</ele>
        <time>2017-10-23T10:34:36Z</time>
      </trkpt>
      <trkpt lat="43.786" lon="7.03071">
        <ele>998.3</ele>
        <time>2017-10-23T10:34:41Z</time>
      </trkpt>
      <trkpt lat="43.78604" lon="7.03076">
        <ele>998</ele>
        <time>2017-10-23T10:34:45Z</time>
      </trkpt>
      <trkpt lat="43.78607" lon="7.03082">
        <ele>998</ele>
        <time>2017-10-23T10:34:48Z</time>
      </trkpt>
      <trkpt lat="43.78607" lon="7.03082">
        <ele>993.9</ele>
        <time>2017-10-23T10:34:58Z</time>
      </trkpt>
      <trkpt lat="43.78619" lon="7.03095">
        <ele>996.5</ele>
        <time>2017-10-23T10:35:03Z</time>
      </trkpt>
      <trkpt lat="43.78622" lon="7.031">
        <ele>996.1</ele>
        <time>2017-10-23T10:35:07Z</time>
      </trkpt>
      <trkpt lat="43.78626" lon="7.03105">
        <ele>995</ele>
        <time>2017-10-23T10:35:11Z</time>
      </trkpt>
      <trkpt lat="43.7863" lon="7.0311">
        <ele>993.3</ele>
        <time>2017-10-23T10:35:15Z</time>
      </trkpt>
      <trkpt lat="43.78635" lon="7.03111">
        <ele>993</ele>
        <time>2017-10-23T10:35:21Z</time>
      </trkpt>
      <trkpt lat="43.78635" lon="7.03111">
        <ele>990.9</ele>
        <time>2017-10-23T10:35:26Z</time>
      </trkpt>
      <trkpt lat="43.78635" lon="7.03111">
        <ele>989.7</ele>
        <time>2017-10-23T10:35:26Z</time>
      </trkpt>
      <trkpt lat="43.78635" lon="7.03111">
        <ele>989.7</ele>
        <time>2017-10-23T10:35:51Z</time>
      </trkpt>
      <trkpt lat="43.78642" lon="7.03129">
        <ele>991</ele>
        <time>2017-10-23T10:35:51Z</time>
      </trkpt>
      <trkpt lat="43.78646" lon="7.03134">
        <ele>991</ele>
        <time>2017-10-23T10:35:56Z</time>
      </trkpt>
      <trkpt lat="43.7865" lon="7.03145">
        <ele>991</ele>
        <time>2017-10-23T10:36:03Z</time>
      </trkpt>
      <trkpt lat="43.78654" lon="7.03157">
        <ele>990.8</ele>
        <time>2017-10-23T10:36:11Z</time>
      </trkpt>
      <trkpt lat="43.78656" lon="7.03163">
        <ele>991</ele>
        <time>2017-10-23T10:36:15Z</time>
      </trkpt>
      <trkpt lat="43.7866" lon="7.03168">
        <ele>991</ele>
        <time>2017-10-23T10:36:19Z</time>
      </trkpt>
      <trkpt lat="43.78665" lon="7.0318">
        <ele>991.1</ele>
        <time>2017-10-23T10:36:28Z</time>
      </trkpt>
      <trkpt lat="43.78667" lon="7.03193">
        <ele>991.1</ele>
        <time>2017-10-23T10:36:36Z</time>
      </trkpt>
      <trkpt lat="43.78669" lon="7.032">
        <ele>991</ele>
        <time>2017-10-23T10:36:40Z</time>
      </trkpt>
      <trkpt lat="43.78668" lon="7.03208">
        <ele>990.6</ele>
        <time>2017-10-23T10:36:45Z</time>
      </trkpt>
      <trkpt lat="43.7867" lon="7.03221">
        <ele>990.3</ele>
        <time>2017-10-23T10:36:51Z</time>
      </trkpt>
      <trkpt lat="43.78671" lon="7.03233">
        <ele>988.5</ele>
        <time>2017-10-23T10:36:57Z</time>
      </trkpt>
      <trkpt lat="43.78673" lon="7.03239">
        <ele>986.6</ele>
        <time>2017-10-23T10:37:01Z</time>
      </trkpt>
      <trkpt lat="43.78674" lon="7.03246">
        <ele>986.6</ele>
        <time>2017-10-23T10:37:05Z</time>
      </trkpt>
      <trkpt lat="43.78676" lon="7.03254">
        <ele>986.5</ele>
        <time>2017-10-23T10:37:09Z</time>
      </trkpt>
      <trkpt lat="43.78676" lon="7.03254">
        <ele>985.9</ele>
        <time>2017-10-23T10:37:19Z</time>
      </trkpt>
      <trkpt lat="43.78675" lon="7.03277">
        <ele>984.4</ele>
        <time>2017-10-23T10:37:22Z</time>
      </trkpt>
      <trkpt lat="43.78675" lon="7.03277">
        <ele>985.4</ele>
        <time>2017-10-23T10:37:33Z</time>
      </trkpt>
      <trkpt lat="43.78673" lon="7.03303">
        <ele>984.6</ele>
        <time>2017-10-23T10:37:38Z</time>
      </trkpt>
      <trkpt lat="43.78673" lon="7.03303">
        <ele>985.4</ele>
        <time>2017-10-23T10:37:47Z</time>
      </trkpt>
      <trkpt lat="43.78673" lon="7.03303">
        <ele>985.4</ele>
        <time>2017-10-23T10:37:56Z</time>
      </trkpt>
      <trkpt lat="43.78671" lon="7.03341">
        <ele>984.4</ele>
        <time>2017-10-23T10:38:00Z</time>
      </trkpt>
      <trkpt lat="43.78671" lon="7.03341">
        <ele>985.2</ele>
        <time>2017-10-23T10:38:09Z</time>
      </trkpt>
      <trkpt lat="43.78671" lon="7.03341">
        <ele>985.2</ele>
        <time>2017-10-23T10:38:18Z</time>
      </trkpt>
      <trkpt lat="43.78699" lon="7.03353">
        <ele>982.7</ele>
        <time>2017-10-23T10:38:25Z</time>
      </trkpt>
      <trkpt lat="43.78699" lon="7.03353">
        <ele>982.1</ele>
        <time>2017-10-23T10:38:35Z</time>
      </trkpt>
      <trkpt lat="43.78699" lon="7.03353">
        <ele>982.1</ele>
        <time>2017-10-23T10:38:44Z</time>
      </trkpt>
      <trkpt lat="43.78732" lon="7.0337">
        <ele>984.8</ele>
        <time>2017-10-23T10:38:52Z</time>
      </trkpt>
      <trkpt lat="43.78741" lon="7.03376">
        <ele>985</ele>
        <time>2017-10-23T10:39:00Z</time>
      </trkpt>
      <trkpt lat="43.7875" lon="7.03384">
        <ele>985</ele>
        <time>2017-10-23T10:39:08Z</time>
      </trkpt>
      <trkpt lat="43.78755" lon="7.03387">
        <ele>985</ele>
        <time>2017-10-23T10:39:12Z</time>
      </trkpt>
      <trkpt lat="43.7876" lon="7.03391">
        <ele>985</ele>
        <time>2017-10-23T10:39:16Z</time>
      </trkpt>
      <trkpt lat="43.78764" lon="7.03392">
        <ele>984.9</ele>
        <time>2017-10-23T10:39:20Z</time>
      </trkpt>
      <trkpt lat="43.78776" lon="7.03395">
        <ele>984.2</ele>
        <time>2017-10-23T10:39:28Z</time>
      </trkpt>
      <trkpt lat="43.78776" lon="7.03395">
        <ele>977.6</ele>
        <time>2017-10-23T10:39:38Z</time>
      </trkpt>
      <trkpt lat="43.78787" lon="7.03406">
        <ele>982.9</ele>
        <time>2017-10-23T10:39:39Z</time>
      </trkpt>
      <trkpt lat="43.78787" lon="7.03406">
        <ele>976.6</ele>
        <time>2017-10-23T10:39:48Z</time>
      </trkpt>
      <trkpt lat="43.788" lon="7.03414">
        <ele>982.5</ele>
        <time>2017-10-23T10:39:49Z</time>
      </trkpt>
      <trkpt lat="43.788" lon="7.03414">
        <ele>976.1</ele>
        <time>2017-10-23T10:39:58Z</time>
      </trkpt>
      <trkpt lat="43.78813" lon="7.03422">
        <ele>981.9</ele>
        <time>2017-10-23T10:40:00Z</time>
      </trkpt>
      <trkpt lat="43.78818" lon="7.03424">
        <ele>981.9</ele>
        <time>2017-10-23T10:40:04Z</time>
      </trkpt>
      <trkpt lat="43.78818" lon="7.03424">
        <ele>975.5</ele>
        <time>2017-10-23T10:40:14Z</time>
      </trkpt>
      <trkpt lat="43.78835" lon="7.03436">
        <ele>978</ele>
        <time>2017-10-23T10:40:20Z</time>
      </trkpt>
      <trkpt lat="43.78835" lon="7.03436">
        <ele>974.6</ele>
        <time>2017-10-23T10:40:30Z</time>
      </trkpt>
      <trkpt lat="43.78847" lon="7.03433">
        <ele>976.7</ele>
        <time>2017-10-23T10:40:31Z</time>
      </trkpt>
      <trkpt lat="43.78848" lon="7.03432">
        <ele>972.3</ele>
        <time>2017-10-23T10:40:35Z</time>
      </trkpt>
      <trkpt lat="43.78848" lon="7.03432">
        <ele>975.2</ele>
        <time>2017-10-23T10:40:35Z</time>
      </trkpt>
      <trkpt lat="43.78848" lon="7.03432">
        <ele>975.2</ele>
        <time>2017-10-23T10:43:09Z</time>
      </trkpt>
    </trkseg>
  </trk>
</gpx>